<?xml version='1.0' encoding='UTF-8'?><gpx version="1.1" creator="JPX - https://github.com/jenetics/jpx" xmlns="http://www.topografix.com/GPX/1/1"><trk><trkseg><trkpt lat="45.290861150275" lon="10.88230153188195"><ele>36.0</ele><time>2026-04-04T15:13:36.006Z</time></trkpt><trkpt lat="45.29083622975731" lon="10.8824205769634"><ele>36.0</ele><time>2026-04-04T15:13:37.006Z</time></trkpt><trkpt lat="45.2908143347054" lon="10.882530283699243"><ele>36.0</ele><time>2026-04-04T15:13:38.006Z</time></trkpt><trkpt lat="45.290759966275125" lon="10.882616378732225"><ele>36.0</ele><time>2026-04-04T15:13:40.006Z</time></trkpt><trkpt lat="45.29071445335395" lon="10.882686043991923"><ele>36.0</ele><time>2026-04-04T15:13:41.006Z</time></trkpt><trkpt lat="45.29067866027664" lon="10.882768960773483"><ele>36.0</ele><time>2026-04-04T15:13:42.006Z</time></trkpt><trkpt lat="45.29078089951644" lon="10.882877963766614"><ele>36.166666666666664</ele><time>2026-04-04T15:13:44.006Z</time></trkpt><trkpt lat="45.29084777374465" lon="10.882906791874808"><ele>36.333333333333336</ele><time>2026-04-04T15:13:45.006Z</time></trkpt><trkpt lat="45.290914614620554" lon="10.882947273830595"><ele>36.5</ele><time>2026-04-04T15:13:46.006Z</time></trkpt><trkpt lat="45.290986273421154" lon="10.883004712233747"><ele>36.66666666666667</ele><time>2026-04-04T15:13:47.006Z</time></trkpt><trkpt lat="45.29110090640702" lon="10.883117777362601"><ele>36.833333333333336</ele><time>2026-04-04T15:13:49.006Z</time></trkpt><trkpt lat="45.291168192845326" lon="10.883168465420919"><ele>37.0</ele><time>2026-04-04T15:13:50.006Z</time></trkpt><trkpt lat="45.29127883448257" lon="10.883230364846156"><ele>37.0</ele><time>2026-04-04T15:13:52.006Z</time></trkpt><trkpt lat="45.29133993640031" lon="10.883274612370784"><ele>37.0</ele><time>2026-04-04T15:13:53.006Z</time></trkpt><trkpt lat="45.291398157813774" lon="10.883318760863006"><ele>37.0</ele><time>2026-04-04T15:13:54.006Z</time></trkpt><trkpt lat="45.29145530958887" lon="10.883364707336455"><ele>37.0</ele><time>2026-04-04T15:13:55.006Z</time></trkpt><trkpt lat="45.29151265662433" lon="10.883404949784595"><ele>37.0</ele><time>2026-04-04T15:13:56.006Z</time></trkpt><trkpt lat="45.29160528278085" lon="10.88347218987041"><ele>37.0</ele><time>2026-04-04T15:13:58.006Z</time></trkpt><trkpt lat="45.29166022674647" lon="10.883550484310007"><ele>37.0</ele><time>2026-04-04T15:14:02.006Z</time></trkpt><trkpt lat="45.291622662385855" lon="10.883722815847745"><ele>37.0</ele><time>2026-04-04T15:14:04.006Z</time></trkpt><trkpt lat="45.29158651919169" lon="10.883817102092928"><ele>37.0</ele><time>2026-04-04T15:14:05.006Z</time></trkpt><trkpt lat="45.2915573113979" lon="10.883927828064246"><ele>37.0</ele><time>2026-04-04T15:14:06.006Z</time></trkpt><trkpt lat="45.29152502765969" lon="10.884051582782385"><ele>37.0</ele><time>2026-04-04T15:14:07.006Z</time></trkpt><trkpt lat="45.29148396142005" lon="10.884191659851082"><ele>37.0</ele><time>2026-04-04T15:14:08.006Z</time></trkpt><trkpt lat="45.29143192726123" lon="10.88435670219913"><ele>37.25</ele><time>2026-04-04T15:14:09.006Z</time></trkpt><trkpt lat="45.29136257458308" lon="10.884521869174279"><ele>37.5</ele><time>2026-04-04T15:14:10.006Z</time></trkpt><trkpt lat="45.2913411931498" lon="10.884667546089254"><ele>37.75</ele><time>2026-04-04T15:14:11.006Z</time></trkpt><trkpt lat="45.29129439034737" lon="10.884832004573354"><ele>38.0</ele><time>2026-04-04T15:14:12.006Z</time></trkpt><trkpt lat="45.29124586229322" lon="10.885003406091794"><ele>37.75</ele><time>2026-04-04T15:14:13.006Z</time></trkpt><trkpt lat="45.29119348733919" lon="10.885175691637318"><ele>37.5</ele><time>2026-04-04T15:14:14.006Z</time></trkpt><trkpt lat="45.291141457287125" lon="10.885352263408521"><ele>37.25</ele><time>2026-04-04T15:14:15.006Z</time></trkpt><trkpt lat="45.29108787698567" lon="10.885530855710503"><ele>37.0</ele><time>2026-04-04T15:14:16.006Z</time></trkpt><trkpt lat="45.29103299383692" lon="10.885706597041505"><ele>37.0</ele><time>2026-04-04T15:14:17.006Z</time></trkpt><trkpt lat="45.29098236558182" lon="10.885874863794536"><ele>37.0</ele><time>2026-04-04T15:14:18.006Z</time></trkpt><trkpt lat="45.2909340520613" lon="10.88603936510757"><ele>37.0</ele><time>2026-04-04T15:14:19.006Z</time></trkpt><trkpt lat="45.29088239943436" lon="10.886199167483165"><ele>37.0</ele><time>2026-04-04T15:14:20.006Z</time></trkpt><trkpt lat="45.290831770900205" lon="10.886355769069091"><ele>37.2</ele><time>2026-04-04T15:14:21.006Z</time></trkpt><trkpt lat="45.29078379126416" lon="10.886508388662454"><ele>37.400000000000006</ele><time>2026-04-04T15:14:22.006Z</time></trkpt><trkpt lat="45.2907342011237" lon="10.886649325950492"><ele>37.599999999999994</ele><time>2026-04-04T15:14:23.006Z</time></trkpt><trkpt lat="45.290695267450786" lon="10.886777020946893"><ele>37.8</ele><time>2026-04-04T15:14:24.006Z</time></trkpt><trkpt lat="45.290656113135825" lon="10.886892349470942"><ele>38.0</ele><time>2026-04-04T15:14:25.006Z</time></trkpt><trkpt lat="45.29064218885074" lon="10.887000159848103"><ele>37.666666666666664</ele><time>2026-04-04T15:14:26.006Z</time></trkpt><trkpt lat="45.2906510618306" lon="10.887103919233986"><ele>37.33333333333333</ele><time>2026-04-04T15:14:27.006Z</time></trkpt><trkpt lat="45.29067589567657" lon="10.887194549975497"><ele>37.0</ele><time>2026-04-04T15:14:28.006Z</time></trkpt><trkpt lat="45.290721446623735" lon="10.887278972344093"><ele>36.666666666666664</ele><time>2026-04-04T15:14:29.006Z</time></trkpt><trkpt lat="45.29078253277398" lon="10.887348522983507"><ele>36.333333333333336</ele><time>2026-04-04T15:14:30.006Z</time></trkpt><trkpt lat="45.29086203734058" lon="10.887402335917844"><ele>36.0</ele><time>2026-04-04T15:14:31.006Z</time></trkpt><trkpt lat="45.29095851857451" lon="10.887448282985597"><ele>36.0</ele><time>2026-04-04T15:14:32.006Z</time></trkpt><trkpt lat="45.29107031973062" lon="10.887486229528657"><ele>36.0</ele><time>2026-04-04T15:14:33.006Z</time></trkpt><trkpt lat="45.29118976429208" lon="10.887529426161473"><ele>36.0</ele><time>2026-04-04T15:14:34.006Z</time></trkpt><trkpt lat="45.291323037273195" lon="10.887608683046258"><ele>36.0</ele><time>2026-04-04T15:14:35.006Z</time></trkpt><trkpt lat="45.291466480966136" lon="10.887694243840135"><ele>36.0</ele><time>2026-04-04T15:14:36.006Z</time></trkpt><trkpt lat="45.291612090453825" lon="10.887777264215897"><ele>36.0</ele><time>2026-04-04T15:14:37.006Z</time></trkpt><trkpt lat="45.291745498552324" lon="10.8878569386987"><ele>36.0</ele><time>2026-04-04T15:14:38.006Z</time></trkpt><trkpt lat="45.29186766419388" lon="10.887934070443736"><ele>36.0</ele><time>2026-04-04T15:14:39.006Z</time></trkpt><trkpt lat="45.29198155733693" lon="10.888010362620614"><ele>36.0</ele><time>2026-04-04T15:14:40.006Z</time></trkpt><trkpt lat="45.292089588749434" lon="10.888084646729954"><ele>36.0</ele><time>2026-04-04T15:14:41.006Z</time></trkpt><trkpt lat="45.29218333424817" lon="10.888163090819251"><ele>36.0</ele><time>2026-04-04T15:14:42.006Z</time></trkpt><trkpt lat="45.2922597797119" lon="10.888267161679961"><ele>36.0</ele><time>2026-04-04T15:14:43.006Z</time></trkpt><trkpt lat="45.29239525603882" lon="10.88827483375328"><ele>36.0</ele><time>2026-04-04T15:14:44.006Z</time></trkpt><trkpt lat="45.29253111868698" lon="10.888281884040405"><ele>36.0</ele><time>2026-04-04T15:14:45.006Z</time></trkpt><trkpt lat="45.29268226017018" lon="10.88829973171259"><ele>36.0</ele><time>2026-04-04T15:14:46.005Z</time></trkpt><trkpt lat="45.29283985385815" lon="10.888348821354038"><ele>36.0</ele><time>2026-04-04T15:14:47.005Z</time></trkpt><trkpt lat="45.29300746722905" lon="10.88841666103071"><ele>35.333333333333336</ele><time>2026-04-04T15:14:48.005Z</time></trkpt><trkpt lat="45.29318048802409" lon="10.88848196793862"><ele>34.66666666666667</ele><time>2026-04-04T15:14:49.005Z</time></trkpt><trkpt lat="45.29336589623968" lon="10.88853081826876"><ele>34.0</ele><time>2026-04-04T15:14:50.005Z</time></trkpt><trkpt lat="45.29355535320446" lon="10.888557369210323"><ele>34.0</ele><time>2026-04-04T15:14:51.006Z</time></trkpt><trkpt lat="45.293750057789765" lon="10.888578213979725"><ele>34.0</ele><time>2026-04-04T15:14:52.006Z</time></trkpt><trkpt lat="45.29395110770123" lon="10.888598446942531"><ele>34.0</ele><time>2026-04-04T15:14:53.006Z</time></trkpt><trkpt lat="45.29415794477169" lon="10.888623693773928"><ele>34.0</ele><time>2026-04-04T15:14:54.006Z</time></trkpt><trkpt lat="45.29436677264525" lon="10.888666693213803"><ele>34.0</ele><time>2026-04-04T15:14:55.005Z</time></trkpt><trkpt lat="45.29457645157741" lon="10.888720976952072"><ele>34.0</ele><time>2026-04-04T15:14:56.005Z</time></trkpt><trkpt lat="45.29478344556518" lon="10.888757633066149"><ele>34.0</ele><time>2026-04-04T15:14:57.004Z</time></trkpt><trkpt lat="45.29499699707708" lon="10.888755568156837"><ele>34.0</ele><time>2026-04-04T15:14:58.004Z</time></trkpt><trkpt lat="45.29521888061302" lon="10.888737832555659"><ele>34.0</ele><time>2026-04-04T15:14:59.004Z</time></trkpt><trkpt lat="45.29544181738063" lon="10.888727631296794"><ele>33.66666666666667</ele><time>2026-04-04T15:15:00.003Z</time></trkpt><trkpt lat="45.295659290993335" lon="10.888727315952876"><ele>33.333333333333336</ele><time>2026-04-04T15:15:01.003Z</time></trkpt><trkpt lat="45.29585393802539" lon="10.888739817665313"><ele>33.0</ele><time>2026-04-04T15:15:02.003Z</time></trkpt><trkpt lat="45.29603533582774" lon="10.888778212104013"><ele>33.0</ele><time>2026-04-04T15:15:03.003Z</time></trkpt><trkpt lat="45.29621084229405" lon="10.888846681377851"><ele>33.0</ele><time>2026-04-04T15:15:04.002Z</time></trkpt><trkpt lat="45.29638844638535" lon="10.888943109000184"><ele>33.0</ele><time>2026-04-04T15:15:05.002Z</time></trkpt><trkpt lat="45.2965670301688" lon="10.889057791360067"><ele>32.666666666666664</ele><time>2026-04-04T15:15:06.002Z</time></trkpt><trkpt lat="45.29674948305937" lon="10.8891780504514"><ele>32.33333333333333</ele><time>2026-04-04T15:15:07.002Z</time></trkpt><trkpt lat="45.29694027354732" lon="10.889283813904873"><ele>32.0</ele><time>2026-04-04T15:15:08.002Z</time></trkpt><trkpt lat="45.29714336355454" lon="10.889364071928854"><ele>33.0</ele><time>2026-04-04T15:15:09.002Z</time></trkpt><trkpt lat="45.297356938739306" lon="10.88943702109955"><ele>34.0</ele><time>2026-04-04T15:15:10.001Z</time></trkpt><trkpt lat="45.29756803378887" lon="10.889525475694537"><ele>35.0</ele><time>2026-04-04T15:15:11.001Z</time></trkpt><trkpt lat="45.29778073002855" lon="10.889626629032662"><ele>35.0</ele><time>2026-04-04T15:15:12.001Z</time></trkpt><trkpt lat="45.29799362134913" lon="10.8897380358203"><ele>35.0</ele><time>2026-04-04T15:15:13.001Z</time></trkpt><trkpt lat="45.29820312048525" lon="10.88985127315856"><ele>35.0</ele><time>2026-04-04T15:15:14.001Z</time></trkpt><trkpt lat="45.2984078643371" lon="10.889959557425714"><ele>35.0</ele><time>2026-04-04T15:15:15.001Z</time></trkpt><trkpt lat="45.298606848306775" lon="10.890066848913094"><ele>35.0</ele><time>2026-04-04T15:15:16.001Z</time></trkpt><trkpt lat="45.29879950144995" lon="10.890185522320461"><ele>34.33333333333333</ele><time>2026-04-04T15:15:17.001Z</time></trkpt><trkpt lat="45.29898719520435" lon="10.890306713097548"><ele>33.666666666666664</ele><time>2026-04-04T15:15:18Z</time></trkpt><trkpt lat="45.2991725209009" lon="10.890420344179184"><ele>33.0</ele><time>2026-04-04T15:15:19Z</time></trkpt><trkpt lat="45.299358927832465" lon="10.890515307024389"><ele>33.0</ele><time>2026-04-04T15:15:20Z</time></trkpt><trkpt lat="45.299548140586786" lon="10.890593930534607"><ele>33.0</ele><time>2026-04-04T15:15:21Z</time></trkpt><trkpt lat="45.29973758878046" lon="10.890663652605982"><ele>33.0</ele><time>2026-04-04T15:15:22Z</time></trkpt><trkpt lat="45.299914897279976" lon="10.890730785479668"><ele>33.0</ele><time>2026-04-04T15:15:23Z</time></trkpt><trkpt lat="45.30007374188895" lon="10.890793281931218"><ele>33.0</ele><time>2026-04-04T15:15:24Z</time></trkpt><trkpt lat="45.300222215890294" lon="10.890852402880078"><ele>33.0</ele><time>2026-04-04T15:15:25Z</time></trkpt><trkpt lat="45.30035553122949" lon="10.890908625648498"><ele>33.25</ele><time>2026-04-04T15:15:26Z</time></trkpt><trkpt lat="45.30047977746" lon="10.890962423515388"><ele>33.5</ele><time>2026-04-04T15:15:27Z</time></trkpt><trkpt lat="45.30059245898936" lon="10.891015364471466"><ele>33.75</ele><time>2026-04-04T15:15:28Z</time></trkpt><trkpt lat="45.30069429134273" lon="10.891068005745192"><ele>34.0</ele><time>2026-04-04T15:15:29Z</time></trkpt><trkpt lat="45.3007869696876" lon="10.891121550598985"><ele>34.25</ele><time>2026-04-04T15:15:30Z</time></trkpt><trkpt lat="45.30088349671155" lon="10.89118543086731"><ele>34.5</ele><time>2026-04-04T15:15:31Z</time></trkpt><trkpt lat="45.300988343869605" lon="10.891263479538408"><ele>34.75</ele><time>2026-04-04T15:15:32Z</time></trkpt><trkpt lat="45.30109683838655" lon="10.89135505197358"><ele>35.0</ele><time>2026-04-04T15:15:32.999Z</time></trkpt><trkpt lat="45.301212321515784" lon="10.891464488225017"><ele>35.0</ele><time>2026-04-04T15:15:33.999Z</time></trkpt><trkpt lat="45.30133006026714" lon="10.891590683010406"><ele>35.0</ele><time>2026-04-04T15:15:34.999Z</time></trkpt><trkpt lat="45.30145338768395" lon="10.891725311657801"><ele>35.0</ele><time>2026-04-04T15:15:35.999Z</time></trkpt><trkpt lat="45.30158606932908" lon="10.891864366573682"><ele>34.33333333333333</ele><time>2026-04-04T15:15:36.999Z</time></trkpt><trkpt lat="45.301722151697504" lon="10.892008499995356"><ele>33.666666666666664</ele><time>2026-04-04T15:15:37.999Z</time></trkpt><trkpt lat="45.30186567599929" lon="10.892157571835881"><ele>33.0</ele><time>2026-04-04T15:15:38.999Z</time></trkpt><trkpt lat="45.302018214246665" lon="10.892310630041111"><ele>33.0</ele><time>2026-04-04T15:15:39.999Z</time></trkpt><trkpt lat="45.30217341514272" lon="10.892465555531851"><ele>33.0</ele><time>2026-04-04T15:15:40.999Z</time></trkpt><trkpt lat="45.30233144609058" lon="10.892622735137554"><ele>33.0</ele><time>2026-04-04T15:15:41.999Z</time></trkpt><trkpt lat="45.30249445167428" lon="10.892763040706084"><ele>33.333333333333336</ele><time>2026-04-04T15:15:42.999Z</time></trkpt><trkpt lat="45.302666839447475" lon="10.892882739274263"><ele>33.66666666666667</ele><time>2026-04-04T15:15:43.999Z</time></trkpt><trkpt lat="45.3028485179806" lon="10.892982851394846"><ele>34.0</ele><time>2026-04-04T15:15:44.999Z</time></trkpt><trkpt lat="45.303040642779614" lon="10.893058300802105"><ele>33.333333333333336</ele><time>2026-04-04T15:15:45.999Z</time></trkpt><trkpt lat="45.303242919188584" lon="10.893109270711411"><ele>32.666666666666664</ele><time>2026-04-04T15:15:46.999Z</time></trkpt><trkpt lat="45.30345023502679" lon="10.893152138646615"><ele>32.0</ele><time>2026-04-04T15:15:47.999Z</time></trkpt><trkpt lat="45.303661455990074" lon="10.893202082121649"><ele>32.0</ele><time>2026-04-04T15:15:48.999Z</time></trkpt><trkpt lat="45.30387271276973" lon="10.8932607191466"><ele>32.0</ele><time>2026-04-04T15:15:49.999Z</time></trkpt><trkpt lat="45.30408812845281" lon="10.893319678910789"><ele>32.0</ele><time>2026-04-04T15:15:50.999Z</time></trkpt><trkpt lat="45.30430613718194" lon="10.893379541068573"><ele>33.0</ele><time>2026-04-04T15:15:51.999Z</time></trkpt><trkpt lat="45.30452542693033" lon="10.893441043897575"><ele>34.0</ele><time>2026-04-04T15:15:52.999Z</time></trkpt><trkpt lat="45.30473951672999" lon="10.893499188311244"><ele>35.0</ele><time>2026-04-04T15:15:53.999Z</time></trkpt><trkpt lat="45.30493827915817" lon="10.893556658248546"><ele>35.33333333333333</ele><time>2026-04-04T15:15:54.999Z</time></trkpt><trkpt lat="45.30512162288655" lon="10.893606360380724"><ele>35.666666666666664</ele><time>2026-04-04T15:15:55.999Z</time></trkpt><trkpt lat="45.305288728950956" lon="10.893654020669992"><ele>36.0</ele><time>2026-04-04T15:15:56.999Z</time></trkpt><trkpt lat="45.30544455645096" lon="10.893695240419715"><ele>35.5</ele><time>2026-04-04T15:15:57.999Z</time></trkpt><trkpt lat="45.30559279506134" lon="10.893730862503746"><ele>35.0</ele><time>2026-04-04T15:15:58.999Z</time></trkpt><trkpt lat="45.30573715360115" lon="10.893764300815034"><ele>34.5</ele><time>2026-04-04T15:15:59.999Z</time></trkpt><trkpt lat="45.30588476641878" lon="10.89378146810747"><ele>34.0</ele><time>2026-04-04T15:16:00.999Z</time></trkpt><trkpt lat="45.30604587882565" lon="10.8937748283491"><ele>34.0</ele><time>2026-04-04T15:16:01.999Z</time></trkpt><trkpt lat="45.30621776109694" lon="10.893747543460353"><ele>34.0</ele><time>2026-04-04T15:16:02.999Z</time></trkpt><trkpt lat="45.30640439110586" lon="10.89369998709323"><ele>34.0</ele><time>2026-04-04T15:16:03.999Z</time></trkpt><trkpt lat="45.306600119645566" lon="10.89364723991206"><ele>34.333333333333336</ele><time>2026-04-04T15:16:04.999Z</time></trkpt><trkpt lat="45.30680922082653" lon="10.893600754737351"><ele>34.666666666666664</ele><time>2026-04-04T15:16:05.999Z</time></trkpt><trkpt lat="45.30702333002286" lon="10.893552612044859"><ele>35.0</ele><time>2026-04-04T15:16:06.999Z</time></trkpt><trkpt lat="45.307231982803785" lon="10.893502182058189"><ele>35.0</ele><time>2026-04-04T15:16:07.999Z</time></trkpt><trkpt lat="45.30744055395223" lon="10.893479420690072"><ele>35.0</ele><time>2026-04-04T15:16:08.999Z</time></trkpt><trkpt lat="45.3076473832386" lon="10.893504180563816"><ele>35.0</ele><time>2026-04-04T15:16:09.999Z</time></trkpt><trkpt lat="45.307852992128495" lon="10.893568900326278"><ele>35.0</ele><time>2026-04-04T15:16:10.999Z</time></trkpt><trkpt lat="45.30805282967226" lon="10.893670614074027"><ele>35.0</ele><time>2026-04-04T15:16:11.998Z</time></trkpt><trkpt lat="45.308248922950426" lon="10.893802240958765"><ele>35.0</ele><time>2026-04-04T15:16:12.998Z</time></trkpt><trkpt lat="45.308442636355146" lon="10.893944004006093"><ele>35.0</ele><time>2026-04-04T15:16:13.998Z</time></trkpt><trkpt lat="45.30864562748312" lon="10.89407767334832"><ele>35.0</ele><time>2026-04-04T15:16:14.998Z</time></trkpt><trkpt lat="45.308851657074136" lon="10.894212623997847"><ele>34.5</ele><time>2026-04-04T15:16:15.998Z</time></trkpt><trkpt lat="45.309060582511634" lon="10.894348165797313"><ele>34.0</ele><time>2026-04-04T15:16:16.998Z</time></trkpt><trkpt lat="45.309271703104784" lon="10.894486558002706"><ele>34.0</ele><time>2026-04-04T15:16:17.998Z</time></trkpt><trkpt lat="45.309484392486425" lon="10.894629697003568"><ele>34.0</ele><time>2026-04-04T15:16:18.998Z</time></trkpt><trkpt lat="45.30969818362426" lon="10.89477701615704"><ele>34.5</ele><time>2026-04-04T15:16:19.998Z</time></trkpt><trkpt lat="45.30991406838654" lon="10.894924160564736"><ele>35.0</ele><time>2026-04-04T15:16:20.998Z</time></trkpt><trkpt lat="45.310132329512996" lon="10.895073612379072"><ele>35.0</ele><time>2026-04-04T15:16:21.998Z</time></trkpt><trkpt lat="45.31034953560747" lon="10.895223564425734"><ele>35.0</ele><time>2026-04-04T15:16:22.998Z</time></trkpt><trkpt lat="45.31056687195863" lon="10.895372787650597"><ele>35.33333333333333</ele><time>2026-04-04T15:16:23.998Z</time></trkpt><trkpt lat="45.310774055029796" lon="10.89551613489952"><ele>35.666666666666664</ele><time>2026-04-04T15:16:24.998Z</time></trkpt><trkpt lat="45.31096741638945" lon="10.895649080351008"><ele>36.0</ele><time>2026-04-04T15:16:25.998Z</time></trkpt><trkpt lat="45.3111544958509" lon="10.895763498917225"><ele>36.0</ele><time>2026-04-04T15:16:26.998Z</time></trkpt><trkpt lat="45.311340538066155" lon="10.895844501977907"><ele>36.0</ele><time>2026-04-04T15:16:27.998Z</time></trkpt><trkpt lat="45.311530129397504" lon="10.895880084097714"><ele>36.0</ele><time>2026-04-04T15:16:28.998Z</time></trkpt><trkpt lat="45.311723427481795" lon="10.895873117331263"><ele>35.666666666666664</ele><time>2026-04-04T15:16:29.998Z</time></trkpt><trkpt lat="45.31191927889148" lon="10.895836142550237"><ele>35.33333333333333</ele><time>2026-04-04T15:16:30.998Z</time></trkpt><trkpt lat="45.312111811890034" lon="10.895763387861804"><ele>35.0</ele><time>2026-04-04T15:16:31.998Z</time></trkpt><trkpt lat="45.31229610134483" lon="10.895661363911834"><ele>35.0</ele><time>2026-04-04T15:16:32.998Z</time></trkpt><trkpt lat="45.312464504013036" lon="10.895534226730154"><ele>35.0</ele><time>2026-04-04T15:16:33.998Z</time></trkpt><trkpt lat="45.31259842505029" lon="10.895387009684217"><ele>35.0</ele><time>2026-04-04T15:16:34.998Z</time></trkpt><trkpt lat="45.31270684687989" lon="10.895209752134992"><ele>34.666666666666664</ele><time>2026-04-04T15:16:35.998Z</time></trkpt><trkpt lat="45.31280671704579" lon="10.894993533273853"><ele>34.333333333333336</ele><time>2026-04-04T15:16:36.998Z</time></trkpt><trkpt lat="45.312902571071795" lon="10.894760987268176"><ele>34.0</ele><time>2026-04-04T15:16:37.998Z</time></trkpt><trkpt lat="45.313001761583415" lon="10.894512007807675"><ele>34.66666666666667</ele><time>2026-04-04T15:16:38.998Z</time></trkpt><trkpt lat="45.313107200617786" lon="10.894254473935119"><ele>35.333333333333336</ele><time>2026-04-04T15:16:39.998Z</time></trkpt><trkpt lat="45.3132181385046" lon="10.893992282858775"><ele>36.0</ele><time>2026-04-04T15:16:40.998Z</time></trkpt><trkpt lat="45.31333139341691" lon="10.893725656031549"><ele>36.0</ele><time>2026-04-04T15:16:41.998Z</time></trkpt><trkpt lat="45.3134425936111" lon="10.893452824209014"><ele>36.0</ele><time>2026-04-04T15:16:42.998Z</time></trkpt><trkpt lat="45.313552544120675" lon="10.893169262966449"><ele>36.0</ele><time>2026-04-04T15:16:43.998Z</time></trkpt><trkpt lat="45.31366942602466" lon="10.892889651490266"><ele>36.0</ele><time>2026-04-04T15:16:44.998Z</time></trkpt><trkpt lat="45.31379289569509" lon="10.892624081950757"><ele>36.0</ele><time>2026-04-04T15:16:45.998Z</time></trkpt><trkpt lat="45.313922543229786" lon="10.892386929680201"><ele>36.0</ele><time>2026-04-04T15:16:46.998Z</time></trkpt><trkpt lat="45.314062917665076" lon="10.892173125945943"><ele>36.0</ele><time>2026-04-04T15:16:47.998Z</time></trkpt><trkpt lat="45.314213217577766" lon="10.891972414074667"><ele>36.0</ele><time>2026-04-04T15:16:48.998Z</time></trkpt><trkpt lat="45.31436945528495" lon="10.891786506855928"><ele>36.0</ele><time>2026-04-04T15:16:49.998Z</time></trkpt><trkpt lat="45.31452965040729" lon="10.891617921228598"><ele>36.0</ele><time>2026-04-04T15:16:50.998Z</time></trkpt><trkpt lat="45.31469229428851" lon="10.891478558520598"><ele>36.0</ele><time>2026-04-04T15:16:51.998Z</time></trkpt><trkpt lat="45.31486203201689" lon="10.891375699117738"><ele>36.0</ele><time>2026-04-04T15:16:52.998Z</time></trkpt><trkpt lat="45.31503747340838" lon="10.891308198777857"><ele>36.0</ele><time>2026-04-04T15:16:53.998Z</time></trkpt><trkpt lat="45.31522281459155" lon="10.891272228150822"><ele>36.0</ele><time>2026-04-04T15:16:54.998Z</time></trkpt><trkpt lat="45.315414404097126" lon="10.891266440093906"><ele>36.0</ele><time>2026-04-04T15:16:55.998Z</time></trkpt><trkpt lat="45.31561307700713" lon="10.89128940851921"><ele>36.0</ele><time>2026-04-04T15:16:56.998Z</time></trkpt><trkpt lat="45.31581427567479" lon="10.891338512742594"><ele>36.0</ele><time>2026-04-04T15:16:57.998Z</time></trkpt><trkpt lat="45.31602293516619" lon="10.891397828845415"><ele>36.0</ele><time>2026-04-04T15:16:58.998Z</time></trkpt><trkpt lat="45.31623532034999" lon="10.891442023281046"><ele>37.0</ele><time>2026-04-04T15:16:59.998Z</time></trkpt><trkpt lat="45.31645319506023" lon="10.891477531668883"><ele>38.0</ele><time>2026-04-04T15:17:00.998Z</time></trkpt><trkpt lat="45.3166771817625" lon="10.89149946913196"><ele>39.0</ele><time>2026-04-04T15:17:01.998Z</time></trkpt><trkpt lat="45.316908585529404" lon="10.891493762124624"><ele>39.0</ele><time>2026-04-04T15:17:02.998Z</time></trkpt><trkpt lat="45.31714445787106" lon="10.891467014469765"><ele>39.0</ele><time>2026-04-04T15:17:03.998Z</time></trkpt><trkpt lat="45.317384497310464" lon="10.891433176784929"><ele>38.5</ele><time>2026-04-04T15:17:04.998Z</time></trkpt><trkpt lat="45.31762623961046" lon="10.891385658285607"><ele>38.0</ele><time>2026-04-04T15:17:05.998Z</time></trkpt><trkpt lat="45.31786961191497" lon="10.891316958341807"><ele>39.0</ele><time>2026-04-04T15:17:06.998Z</time></trkpt><trkpt lat="45.31811032319208" lon="10.891235662928418"><ele>40.0</ele><time>2026-04-04T15:17:07.998Z</time></trkpt><trkpt lat="45.31835203509336" lon="10.891154467932761"><ele>40.0</ele><time>2026-04-04T15:17:08.998Z</time></trkpt><trkpt lat="45.318593743887455" lon="10.891086151498495"><ele>40.0</ele><time>2026-04-04T15:17:09.998Z</time></trkpt><trkpt lat="45.318833811101534" lon="10.89103349328318"><ele>39.5</ele><time>2026-04-04T15:17:10.998Z</time></trkpt><trkpt lat="45.31907145122883" lon="10.890999827392188"><ele>39.0</ele><time>2026-04-04T15:17:11.998Z</time></trkpt><trkpt lat="45.31930926367892" lon="10.890989607146409"><ele>39.0</ele><time>2026-04-04T15:17:12.998Z</time></trkpt><trkpt lat="45.31955013025379" lon="10.89098616780724"><ele>39.0</ele><time>2026-04-04T15:17:13.998Z</time></trkpt><trkpt lat="45.31977775749247" lon="10.890978565424122"><ele>39.0</ele><time>2026-04-04T15:17:14.998Z</time></trkpt><trkpt lat="45.31998552406375" lon="10.89097084589354"><ele>39.0</ele><time>2026-04-04T15:17:15.998Z</time></trkpt><trkpt lat="45.320173596171266" lon="10.890960994267626"><ele>39.0</ele><time>2026-04-04T15:17:16.999Z</time></trkpt><trkpt lat="45.32034102330666" lon="10.89095295603993"><ele>39.0</ele><time>2026-04-04T15:17:17.999Z</time></trkpt><trkpt lat="45.32048282194265" lon="10.890943517611484"><ele>39.0</ele><time>2026-04-04T15:17:18.999Z</time></trkpt><trkpt lat="45.320605566446524" lon="10.890919286623063"><ele>39.0</ele><time>2026-04-04T15:17:19.999Z</time></trkpt><trkpt lat="45.32072095420735" lon="10.890849420635835"><ele>39.0</ele><time>2026-04-04T15:17:20.999Z</time></trkpt><trkpt lat="45.320836863463306" lon="10.890732712714174"><ele>39.333333333333336</ele><time>2026-04-04T15:17:21.999Z</time></trkpt><trkpt lat="45.32094117373027" lon="10.89058497141007"><ele>39.66666666666667</ele><time>2026-04-04T15:17:22.999Z</time></trkpt><trkpt lat="45.32101807363949" lon="10.890406471556698"><ele>40.0</ele><time>2026-04-04T15:17:23.999Z</time></trkpt><trkpt lat="45.32107218001718" lon="10.890198465318123"><ele>39.66666666666667</ele><time>2026-04-04T15:17:24.999Z</time></trkpt><trkpt lat="45.321105980343205" lon="10.889972277369749"><ele>39.333333333333336</ele><time>2026-04-04T15:17:25.999Z</time></trkpt><trkpt lat="45.321129797184206" lon="10.889737984538945"><ele>39.0</ele><time>2026-04-04T15:17:26.999Z</time></trkpt><trkpt lat="45.32115093431604" lon="10.889493937037562"><ele>38.666666666666664</ele><time>2026-04-04T15:17:27.999Z</time></trkpt><trkpt lat="45.321178044938165" lon="10.889251482778116"><ele>38.33333333333333</ele><time>2026-04-04T15:17:28.999Z</time></trkpt><trkpt lat="45.32120849340374" lon="10.889038730033755"><ele>38.0</ele><time>2026-04-04T15:17:29.999Z</time></trkpt><trkpt lat="45.32124864569212" lon="10.888854578314552"><ele>38.0</ele><time>2026-04-04T15:17:30.999Z</time></trkpt><trkpt lat="45.321309724304584" lon="10.88870403419603"><ele>38.0</ele><time>2026-04-04T15:17:31.999Z</time></trkpt><trkpt lat="45.32138963567486" lon="10.888584445878873"><ele>38.0</ele><time>2026-04-04T15:17:32.999Z</time></trkpt><trkpt lat="45.321484641515" lon="10.888496076662522"><ele>38.0</ele><time>2026-04-04T15:17:33.999Z</time></trkpt><trkpt lat="45.32159773948809" lon="10.8884397013803"><ele>38.25</ele><time>2026-04-04T15:17:34.999Z</time></trkpt><trkpt lat="45.32172913004915" lon="10.88841702519236"><ele>38.5</ele><time>2026-04-04T15:17:35.999Z</time></trkpt><trkpt lat="45.321874314282276" lon="10.888433222391761"><ele>38.75</ele><time>2026-04-04T15:17:36.999Z</time></trkpt><trkpt lat="45.32202928449552" lon="10.888477721630899"><ele>39.0</ele><time>2026-04-04T15:17:37.999Z</time></trkpt><trkpt lat="45.32219236872342" lon="10.888520391114579"><ele>38.333333333333336</ele><time>2026-04-04T15:17:38.999Z</time></trkpt><trkpt lat="45.3223648868462" lon="10.888554184053888"><ele>37.66666666666667</ele><time>2026-04-04T15:17:39.999Z</time></trkpt><trkpt lat="45.32254796436325" lon="10.888586715845696"><ele>37.0</ele><time>2026-04-04T15:17:40.999Z</time></trkpt><trkpt lat="45.322734419292985" lon="10.888623486762397"><ele>37.0</ele><time>2026-04-04T15:17:41.999Z</time></trkpt><trkpt lat="45.32292613640851" lon="10.88867867911245"><ele>37.0</ele><time>2026-04-04T15:17:42.999Z</time></trkpt><trkpt lat="45.3231073306961" lon="10.888767353201468"><ele>37.0</ele><time>2026-04-04T15:17:43.999Z</time></trkpt><trkpt lat="45.32328165164824" lon="10.888890411341633"><ele>37.333333333333336</ele><time>2026-04-04T15:17:44.999Z</time></trkpt><trkpt lat="45.323455623043166" lon="10.889029497122548"><ele>37.666666666666664</ele><time>2026-04-04T15:17:45.999Z</time></trkpt><trkpt lat="45.32363144109193" lon="10.889162263456695"><ele>38.0</ele><time>2026-04-04T15:17:46.999Z</time></trkpt><trkpt lat="45.32380580411764" lon="10.889285128062962"><ele>39.0</ele><time>2026-04-04T15:17:47.999Z</time></trkpt><trkpt lat="45.3239764869403" lon="10.889404898883651"><ele>40.0</ele><time>2026-04-04T15:17:48.999Z</time></trkpt><trkpt lat="45.32414538544768" lon="10.889530160916436"><ele>41.0</ele><time>2026-04-04T15:17:49.999Z</time></trkpt><trkpt lat="45.32431243403636" lon="10.889658322959159"><ele>41.0</ele><time>2026-04-04T15:17:50.999Z</time></trkpt><trkpt lat="45.32447449357615" lon="10.889782183515257"><ele>41.0</ele><time>2026-04-04T15:17:51.999Z</time></trkpt><trkpt lat="45.324638938103426" lon="10.88989361427911"><ele>41.0</ele><time>2026-04-04T15:17:52.999Z</time></trkpt><trkpt lat="45.32480621534042" lon="10.889966008055023"><ele>40.666666666666664</ele><time>2026-04-04T15:17:53.999Z</time></trkpt><trkpt lat="45.32499175816354" lon="10.890004503470523"><ele>40.333333333333336</ele><time>2026-04-04T15:17:54.999Z</time></trkpt><trkpt lat="45.325185530070776" lon="10.89001757374263"><ele>40.0</ele><time>2026-04-04T15:17:55.999Z</time></trkpt><trkpt lat="45.32538572606085" lon="10.890036890261431"><ele>40.0</ele><time>2026-04-04T15:17:56.999Z</time></trkpt><trkpt lat="45.32559084289186" lon="10.890069106119055"><ele>40.0</ele><time>2026-04-04T15:17:57.999Z</time></trkpt><trkpt lat="45.32579892408988" lon="10.890107506177456"><ele>40.0</ele><time>2026-04-04T15:17:58.999Z</time></trkpt><trkpt lat="45.326012754801084" lon="10.890142266153518"><ele>40.0</ele><time>2026-04-04T15:17:59.999Z</time></trkpt><trkpt lat="45.32623170326055" lon="10.890173438163268"><ele>40.0</ele><time>2026-04-04T15:18:00.999Z</time></trkpt><trkpt lat="45.32645241281828" lon="10.89020694107385"><ele>40.0</ele><time>2026-04-04T15:18:01.999Z</time></trkpt><trkpt lat="45.3266771529585" lon="10.890245471310307"><ele>40.0</ele><time>2026-04-04T15:18:02.999Z</time></trkpt><trkpt lat="45.326905371814924" lon="10.890284117294438"><ele>40.0</ele><time>2026-04-04T15:18:03.999Z</time></trkpt><trkpt lat="45.32713484977405" lon="10.8903196223021"><ele>40.5</ele><time>2026-04-04T15:18:04.999Z</time></trkpt><trkpt lat="45.327368191738245" lon="10.890354586079626"><ele>41.0</ele><time>2026-04-04T15:18:05.999Z</time></trkpt><trkpt lat="45.327602032465784" lon="10.890392009338704"><ele>41.0</ele><time>2026-04-04T15:18:06.999Z</time></trkpt><trkpt lat="45.32783753194825" lon="10.890431024506523"><ele>41.0</ele><time>2026-04-04T15:18:07.999Z</time></trkpt><trkpt lat="45.32806808489724" lon="10.890464129667834"><ele>41.0</ele><time>2026-04-04T15:18:08.999Z</time></trkpt><trkpt lat="45.3282993235695" lon="10.890490363820941"><ele>41.0</ele><time>2026-04-04T15:18:09.999Z</time></trkpt><trkpt lat="45.32852236439886" lon="10.890508453566591"><ele>41.0</ele><time>2026-04-04T15:18:10.999Z</time></trkpt><trkpt lat="45.32873477284767" lon="10.890524619022278"><ele>41.0</ele><time>2026-04-04T15:18:11.999Z</time></trkpt><trkpt lat="45.32893334120626" lon="10.890545893960029"><ele>41.0</ele><time>2026-04-04T15:18:12.999Z</time></trkpt><trkpt lat="45.329123576996516" lon="10.890561976877917"><ele>40.666666666666664</ele><time>2026-04-04T15:18:13.999Z</time></trkpt><trkpt lat="45.329308356613126" lon="10.89054792435656"><ele>40.333333333333336</ele><time>2026-04-04T15:18:14.998Z</time></trkpt><trkpt lat="45.32949417644035" lon="10.890486503138524"><ele>40.0</ele><time>2026-04-04T15:18:15.998Z</time></trkpt><trkpt lat="45.329684431448726" lon="10.89038729870796"><ele>40.0</ele><time>2026-04-04T15:18:16.998Z</time></trkpt><trkpt lat="45.32987356606391" lon="10.89026696916198"><ele>40.0</ele><time>2026-04-04T15:18:17.998Z</time></trkpt><trkpt lat="45.33006395068581" lon="10.890138264846629"><ele>40.0</ele><time>2026-04-04T15:18:18.998Z</time></trkpt><trkpt lat="45.33025891732449" lon="10.890011555421305"><ele>40.0</ele><time>2026-04-04T15:18:19.998Z</time></trkpt><trkpt lat="45.33046182400769" lon="10.889892124477896"><ele>40.0</ele><time>2026-04-04T15:18:20.998Z</time></trkpt><trkpt lat="45.33066874941775" lon="10.889777976339424"><ele>40.0</ele><time>2026-04-04T15:18:21.998Z</time></trkpt><trkpt lat="45.33088036449722" lon="10.889670549610994"><ele>39.5</ele><time>2026-04-04T15:18:22.998Z</time></trkpt><trkpt lat="45.33109809270451" lon="10.889570529229845"><ele>39.0</ele><time>2026-04-04T15:18:23.998Z</time></trkpt><trkpt lat="45.331317660846274" lon="10.889471726938249"><ele>39.0</ele><time>2026-04-04T15:18:24.998Z</time></trkpt><trkpt lat="45.331537817633006" lon="10.889360958710716"><ele>39.0</ele><time>2026-04-04T15:18:25.998Z</time></trkpt><trkpt lat="45.331756171578625" lon="10.889235898507037"><ele>39.0</ele><time>2026-04-04T15:18:26.998Z</time></trkpt><trkpt lat="45.33197477900181" lon="10.889102929465789"><ele>39.0</ele><time>2026-04-04T15:18:27.998Z</time></trkpt><trkpt lat="45.33219508452469" lon="10.888969751850441"><ele>40.0</ele><time>2026-04-04T15:18:28.998Z</time></trkpt><trkpt lat="45.33241622012165" lon="10.888840121122197"><ele>41.0</ele><time>2026-04-04T15:18:29.998Z</time></trkpt><trkpt lat="45.33263028870417" lon="10.888730475277823"><ele>41.0</ele><time>2026-04-04T15:18:30.998Z</time></trkpt><trkpt lat="45.33283942922179" lon="10.888646451012907"><ele>41.0</ele><time>2026-04-04T15:18:31.998Z</time></trkpt><trkpt lat="45.33304717116875" lon="10.888585545517005"><ele>41.0</ele><time>2026-04-04T15:18:32.998Z</time></trkpt><trkpt lat="45.33325553211153" lon="10.888552227234301"><ele>40.33333333333333</ele><time>2026-04-04T15:18:33.998Z</time></trkpt><trkpt lat="45.333460131255784" lon="10.888536259038364"><ele>39.666666666666664</ele><time>2026-04-04T15:18:34.998Z</time></trkpt><trkpt lat="45.333662670635746" lon="10.888521683357215"><ele>39.0</ele><time>2026-04-04T15:18:35.998Z</time></trkpt><trkpt lat="45.33386041181595" lon="10.888502817400791"><ele>39.333333333333336</ele><time>2026-04-04T15:18:36.998Z</time></trkpt><trkpt lat="45.33405531185341" lon="10.888479862141862"><ele>39.66666666666667</ele><time>2026-04-04T15:18:37.998Z</time></trkpt><trkpt lat="45.33425336998396" lon="10.888460000869232"><ele>40.0</ele><time>2026-04-04T15:18:38.998Z</time></trkpt><trkpt lat="45.33445172618423" lon="10.888452230324857"><ele>40.0</ele><time>2026-04-04T15:18:39.998Z</time></trkpt><trkpt lat="45.334648290569724" lon="10.888452095743437"><ele>40.0</ele><time>2026-04-04T15:18:40.998Z</time></trkpt><trkpt lat="45.33484543808594" lon="10.888457501757456"><ele>40.0</ele><time>2026-04-04T15:18:41.998Z</time></trkpt><trkpt lat="45.335036713958175" lon="10.888462044066706"><ele>40.66666666666667</ele><time>2026-04-04T15:18:42.998Z</time></trkpt><trkpt lat="45.33521680616887" lon="10.888459604472358"><ele>41.333333333333336</ele><time>2026-04-04T15:18:43.998Z</time></trkpt><trkpt lat="45.33538391535632" lon="10.88844571798336"><ele>42.0</ele><time>2026-04-04T15:18:44.998Z</time></trkpt><trkpt lat="45.335540825034485" lon="10.888428340967407"><ele>42.0</ele><time>2026-04-04T15:18:45.998Z</time></trkpt><trkpt lat="45.33568368026819" lon="10.8884121742555"><ele>42.0</ele><time>2026-04-04T15:18:46.998Z</time></trkpt><trkpt lat="45.33582568265373" lon="10.888394539073742"><ele>42.0</ele><time>2026-04-04T15:18:47.998Z</time></trkpt><trkpt lat="45.33597063623375" lon="10.888377359586181"><ele>42.0</ele><time>2026-04-04T15:18:48.998Z</time></trkpt><trkpt lat="45.33611940789706" lon="10.888358514473072"><ele>42.0</ele><time>2026-04-04T15:18:49.998Z</time></trkpt><trkpt lat="45.33627318635618" lon="10.888339935387183"><ele>42.0</ele><time>2026-04-04T15:18:50.998Z</time></trkpt><trkpt lat="45.33643245575987" lon="10.888324976930706"><ele>42.0</ele><time>2026-04-04T15:18:51.998Z</time></trkpt><trkpt lat="45.33659473308144" lon="10.888315446995676"><ele>41.333333333333336</ele><time>2026-04-04T15:18:52.998Z</time></trkpt><trkpt lat="45.33676111809169" lon="10.888310859145875"><ele>40.66666666666667</ele><time>2026-04-04T15:18:53.998Z</time></trkpt><trkpt lat="45.336930280535675" lon="10.888312633534142"><ele>40.0</ele><time>2026-04-04T15:18:54.998Z</time></trkpt><trkpt lat="45.33710099371866" lon="10.888313729650015"><ele>40.333333333333336</ele><time>2026-04-04T15:18:55.998Z</time></trkpt><trkpt lat="45.3372756911263" lon="10.888313681673411"><ele>40.666666666666664</ele><time>2026-04-04T15:18:56.998Z</time></trkpt><trkpt lat="45.337453169125546" lon="10.888315623244967"><ele>41.0</ele><time>2026-04-04T15:18:57.998Z</time></trkpt><trkpt lat="45.33763343156549" lon="10.888321283492214"><ele>41.0</ele><time>2026-04-04T15:18:58.998Z</time></trkpt><trkpt lat="45.337814450105746" lon="10.888328662351405"><ele>41.0</ele><time>2026-04-04T15:18:59.998Z</time></trkpt><trkpt lat="45.33799389207363" lon="10.888331958105791"><ele>41.0</ele><time>2026-04-04T15:19:00.998Z</time></trkpt><trkpt lat="45.338159383710384" lon="10.888336070883607"><ele>40.666666666666664</ele><time>2026-04-04T15:19:01.998Z</time></trkpt><trkpt lat="45.33831731620568" lon="10.888346199034272"><ele>40.333333333333336</ele><time>2026-04-04T15:19:02.998Z</time></trkpt><trkpt lat="45.338471294510974" lon="10.888364492397994"><ele>40.0</ele><time>2026-04-04T15:19:03.998Z</time></trkpt><trkpt lat="45.33862420437335" lon="10.888394171185832"><ele>40.333333333333336</ele><time>2026-04-04T15:19:04.998Z</time></trkpt><trkpt lat="45.338774092190725" lon="10.88843052126979"><ele>40.666666666666664</ele><time>2026-04-04T15:19:05.998Z</time></trkpt><trkpt lat="45.33892394977915" lon="10.88846864589811"><ele>41.0</ele><time>2026-04-04T15:19:06.998Z</time></trkpt><trkpt lat="45.3390742585276" lon="10.88850284075963"><ele>41.0</ele><time>2026-04-04T15:19:07.998Z</time></trkpt><trkpt lat="45.339225866386" lon="10.888524852854449"><ele>41.0</ele><time>2026-04-04T15:19:08.998Z</time></trkpt><trkpt lat="45.339374200616845" lon="10.888537272009994"><ele>41.0</ele><time>2026-04-04T15:19:09.998Z</time></trkpt><trkpt lat="45.339511320593054" lon="10.888537925417154"><ele>41.0</ele><time>2026-04-04T15:19:10.998Z</time></trkpt><trkpt lat="45.33964099464143" lon="10.88851703258767"><ele>41.0</ele><time>2026-04-04T15:19:11.998Z</time></trkpt><trkpt lat="45.33976736483644" lon="10.888476775969428"><ele>41.0</ele><time>2026-04-04T15:19:12.998Z</time></trkpt><trkpt lat="45.3398897687485" lon="10.888418127942463"><ele>41.0</ele><time>2026-04-04T15:19:13.998Z</time></trkpt><trkpt lat="45.340008069982986" lon="10.888342109268732"><ele>41.0</ele><time>2026-04-04T15:19:14.998Z</time></trkpt><trkpt lat="45.340127258374864" lon="10.888262708931162"><ele>41.0</ele><time>2026-04-04T15:19:15.998Z</time></trkpt><trkpt lat="45.34024635849951" lon="10.88818243809332"><ele>41.0</ele><time>2026-04-04T15:19:16.998Z</time></trkpt><trkpt lat="45.340359657261466" lon="10.888104779990059"><ele>41.0</ele><time>2026-04-04T15:19:17.998Z</time></trkpt><trkpt lat="45.340463053482125" lon="10.888033972862768"><ele>41.0</ele><time>2026-04-04T15:19:18.998Z</time></trkpt><trkpt lat="45.340555647901176" lon="10.887969489948134"><ele>41.0</ele><time>2026-04-04T15:19:19.998Z</time></trkpt><trkpt lat="45.340641803790014" lon="10.887907270869096"><ele>41.0</ele><time>2026-04-04T15:19:20.998Z</time></trkpt><trkpt lat="45.34071993355292" lon="10.887871062479144"><ele>41.0</ele><time>2026-04-04T15:19:21.998Z</time></trkpt><trkpt lat="45.3407960189878" lon="10.887862994251094"><ele>41.0</ele><time>2026-04-04T15:19:22.998Z</time></trkpt><trkpt lat="45.34086255917873" lon="10.88785823303431"><ele>41.0</ele><time>2026-04-04T15:19:23.999Z</time></trkpt><trkpt lat="45.340968348577164" lon="10.887853478154502"><ele>41.0</ele><time>2026-04-04T15:19:25.999Z</time></trkpt><trkpt lat="45.34103380186138" lon="10.887849824343508"><ele>41.0</ele><time>2026-04-04T15:19:27.999Z</time></trkpt><trkpt lat="45.34112451197199" lon="10.88783967077376"><ele>41.0</ele><time>2026-04-04T15:19:44.999Z</time></trkpt><trkpt lat="45.34117481825653" lon="10.887708235804535"><ele>41.0</ele><time>2026-04-04T15:19:46.999Z</time></trkpt><trkpt lat="45.3411747121268" lon="10.887605536513568"><ele>41.0</ele><time>2026-04-04T15:19:47.999Z</time></trkpt><trkpt lat="45.34118908743372" lon="10.887512758434854"><ele>41.0</ele><time>2026-04-04T15:19:48.999Z</time></trkpt><trkpt lat="45.34122080807285" lon="10.887426845635698"><ele>41.0</ele><time>2026-04-04T15:19:49.999Z</time></trkpt><trkpt lat="45.341265726963236" lon="10.88735610410295"><ele>41.0</ele><time>2026-04-04T15:19:50.999Z</time></trkpt><trkpt lat="45.341323305234766" lon="10.887295434236519"><ele>41.0</ele><time>2026-04-04T15:19:51.999Z</time></trkpt><trkpt lat="45.34140037146682" lon="10.887261407249248"><ele>41.0</ele><time>2026-04-04T15:19:52.999Z</time></trkpt><trkpt lat="45.34149250566037" lon="10.887244237020864"><ele>41.0</ele><time>2026-04-04T15:19:53.999Z</time></trkpt><trkpt lat="45.34158240288384" lon="10.88725213922096"><ele>41.0</ele><time>2026-04-04T15:19:54.999Z</time></trkpt><trkpt lat="45.34166191723735" lon="10.887240231293614"><ele>41.0</ele><time>2026-04-04T15:19:55.999Z</time></trkpt><trkpt lat="45.34175185370785" lon="10.887199399393298"><ele>41.199999999999996</ele><time>2026-04-04T15:19:56.999Z</time></trkpt><trkpt lat="45.34185160800639" lon="10.887150690915318"><ele>41.4</ele><time>2026-04-04T15:19:57.999Z</time></trkpt><trkpt lat="45.34194889047527" lon="10.887104183226988"><ele>41.6</ele><time>2026-04-04T15:19:58.999Z</time></trkpt><trkpt lat="45.34204386716334" lon="10.887052559628327"><ele>41.8</ele><time>2026-04-04T15:19:59.999Z</time></trkpt><trkpt lat="45.342129517906365" lon="10.886990348814912"><ele>42.0</ele><time>2026-04-04T15:20:00.999Z</time></trkpt><trkpt lat="45.34220610638987" lon="10.886914740971395"><ele>42.2</ele><time>2026-04-04T15:20:01.999Z</time></trkpt><trkpt lat="45.34227252012145" lon="10.886828332733922"><ele>42.400000000000006</ele><time>2026-04-04T15:20:02.999Z</time></trkpt><trkpt lat="45.342328299397046" lon="10.886724863988315"><ele>42.599999999999994</ele><time>2026-04-04T15:20:03.999Z</time></trkpt><trkpt lat="45.34236984489857" lon="10.886600166544158"><ele>42.8</ele><time>2026-04-04T15:20:04.999Z</time></trkpt><trkpt lat="45.34240582560603" lon="10.8864636690899"><ele>43.0</ele><time>2026-04-04T15:20:05.999Z</time></trkpt><trkpt lat="45.342445632232256" lon="10.886321325879557"><ele>43.25</ele><time>2026-04-04T15:20:06.999Z</time></trkpt><trkpt lat="45.34248941161914" lon="10.886170371724324"><ele>43.5</ele><time>2026-04-04T15:20:07.999Z</time></trkpt><trkpt lat="45.342526088531095" lon="10.886010830289681"><ele>43.75</ele><time>2026-04-04T15:20:08.999Z</time></trkpt><trkpt lat="45.34254793233732" lon="10.88585363368931"><ele>44.0</ele><time>2026-04-04T15:20:09.999Z</time></trkpt><trkpt lat="45.34255334557797" lon="10.885693754066441"><ele>44.0</ele><time>2026-04-04T15:20:10.999Z</time></trkpt><trkpt lat="45.34254788695966" lon="10.885534571329842"><ele>44.0</ele><time>2026-04-04T15:20:11.999Z</time></trkpt><trkpt lat="45.34253702818201" lon="10.885381356566114"><ele>44.0</ele><time>2026-04-04T15:20:12.999Z</time></trkpt><trkpt lat="45.34252413346531" lon="10.885234155827074"><ele>44.0</ele><time>2026-04-04T15:20:13.999Z</time></trkpt><trkpt lat="45.34251195027735" lon="10.88509072700445"><ele>44.0</ele><time>2026-04-04T15:20:14.999Z</time></trkpt><trkpt lat="45.342499082820254" lon="10.884950609714297"><ele>43.666666666666664</ele><time>2026-04-04T15:20:15.999Z</time></trkpt><trkpt lat="45.34248529631872" lon="10.884822606469436"><ele>43.33333333333333</ele><time>2026-04-04T15:20:16.999Z</time></trkpt><trkpt lat="45.34247393806934" lon="10.884705389547792"><ele>43.0</ele><time>2026-04-04T15:20:17.999Z</time></trkpt><trkpt lat="45.34246329166401" lon="10.884604904269688"><ele>42.666666666666664</ele><time>2026-04-04T15:20:18.999Z</time></trkpt><trkpt lat="45.34246610962511" lon="10.884461224755"><ele>42.333333333333336</ele><time>2026-04-04T15:20:20.999Z</time></trkpt><trkpt lat="45.34254020691919" lon="10.8843922214409"><ele>42.0</ele><time>2026-04-04T15:20:22.999Z</time></trkpt><trkpt lat="45.34266098883443" lon="10.884372234863479"><ele>42.0</ele><time>2026-04-04T15:20:24.999Z</time></trkpt><trkpt lat="45.342737971889825" lon="10.884345699936933"><ele>42.0</ele><time>2026-04-04T15:20:25.999Z</time></trkpt><trkpt lat="45.34282487855677" lon="10.884321971052733"><ele>42.0</ele><time>2026-04-04T15:20:26.999Z</time></trkpt><trkpt lat="45.342911886410974" lon="10.884298682147119"><ele>42.0</ele><time>2026-04-04T15:20:27.999Z</time></trkpt><trkpt lat="45.34299915395797" lon="10.88427183413501"><ele>42.0</ele><time>2026-04-04T15:20:28.999Z</time></trkpt><trkpt lat="45.34308799102103" lon="10.884230066710277"><ele>42.0</ele><time>2026-04-04T15:20:29.999Z</time></trkpt><trkpt lat="45.34317742594632" lon="10.88416460877275"><ele>42.75</ele><time>2026-04-04T15:20:30.999Z</time></trkpt><trkpt lat="45.343266642584105" lon="10.88407939437837"><ele>43.5</ele><time>2026-04-04T15:20:31.999Z</time></trkpt><trkpt lat="45.34335420633469" lon="10.88398256809731"><ele>44.25</ele><time>2026-04-04T15:20:32.999Z</time></trkpt><trkpt lat="45.3434413890273" lon="10.883873236397832"><ele>45.0</ele><time>2026-04-04T15:20:33.999Z</time></trkpt><trkpt lat="45.3435316811074" lon="10.883762684854197"><ele>45.0</ele><time>2026-04-04T15:20:34.999Z</time></trkpt><trkpt lat="45.3436191562344" lon="10.883643960470073"><ele>45.0</ele><time>2026-04-04T15:20:35.999Z</time></trkpt><trkpt lat="45.343702349685806" lon="10.883513919813808"><ele>45.0</ele><time>2026-04-04T15:20:36.999Z</time></trkpt><trkpt lat="45.34378089070026" lon="10.883379578484014"><ele>45.0</ele><time>2026-04-04T15:20:37.999Z</time></trkpt><trkpt lat="45.343853912655284" lon="10.88324363050708"><ele>45.0</ele><time>2026-04-04T15:20:38.999Z</time></trkpt><trkpt lat="45.34392128062532" lon="10.883111230051362"><ele>45.0</ele><time>2026-04-04T15:20:39.999Z</time></trkpt><trkpt lat="45.34399290440091" lon="10.88297903115833"><ele>45.0</ele><time>2026-04-04T15:20:40.999Z</time></trkpt><trkpt lat="45.34406497229589" lon="10.882847381547208"><ele>45.0</ele><time>2026-04-04T15:20:41.999Z</time></trkpt><trkpt lat="45.344136642285186" lon="10.882719453556039"><ele>45.0</ele><time>2026-04-04T15:20:42.999Z</time></trkpt><trkpt lat="45.34421404031187" lon="10.882598632687605"><ele>45.0</ele><time>2026-04-04T15:20:43.999Z</time></trkpt><trkpt lat="45.34429875512126" lon="10.882488886511396"><ele>45.0</ele><time>2026-04-04T15:20:44.999Z</time></trkpt><trkpt lat="45.34439025841272" lon="10.882392559536298"><ele>45.0</ele><time>2026-04-04T15:20:45.999Z</time></trkpt><trkpt lat="45.34448882016256" lon="10.882311053957636"><ele>45.0</ele><time>2026-04-04T15:20:46.999Z</time></trkpt><trkpt lat="45.344592406427296" lon="10.882238180620263"><ele>45.0</ele><time>2026-04-04T15:20:47.999Z</time></trkpt><trkpt lat="45.34469866505013" lon="10.882170470225219"><ele>45.0</ele><time>2026-04-04T15:20:48.999Z</time></trkpt><trkpt lat="45.34480672243574" lon="10.882105139414849"><ele>45.0</ele><time>2026-04-04T15:20:49.999Z</time></trkpt><trkpt lat="45.344918376040184" lon="10.882044085395473"><ele>44.75</ele><time>2026-04-04T15:20:50.999Z</time></trkpt><trkpt lat="45.34503110482382" lon="10.881986071604958"><ele>44.5</ele><time>2026-04-04T15:20:51.999Z</time></trkpt><trkpt lat="45.34514787961011" lon="10.881927482751314"><ele>44.25</ele><time>2026-04-04T15:20:52.999Z</time></trkpt><trkpt lat="45.345266477588936" lon="10.881871211123375"><ele>44.0</ele><time>2026-04-04T15:20:53.999Z</time></trkpt><trkpt lat="45.345384341949625" lon="10.881812510512843"><ele>44.0</ele><time>2026-04-04T15:20:54.999Z</time></trkpt><trkpt lat="45.34549562521135" lon="10.881760457929378"><ele>44.0</ele><time>2026-04-04T15:20:55.999Z</time></trkpt><trkpt lat="45.34559219679706" lon="10.88170931744357"><ele>44.0</ele><time>2026-04-04T15:20:56.999Z</time></trkpt><trkpt lat="45.345681839624405" lon="10.881662095395454"><ele>44.0</ele><time>2026-04-04T15:20:57.999Z</time></trkpt><trkpt lat="45.34576532785347" lon="10.88161751324835"><ele>44.0</ele><time>2026-04-04T15:20:58.999Z</time></trkpt><trkpt lat="45.345844820237836" lon="10.881574924911273"><ele>44.166666666666664</ele><time>2026-04-04T15:20:59.999Z</time></trkpt><trkpt lat="45.34592231892995" lon="10.881527442071873"><ele>44.33333333333333</ele><time>2026-04-04T15:21:00.999Z</time></trkpt><trkpt lat="45.34599823908509" lon="10.881477683467748"><ele>44.5</ele><time>2026-04-04T15:21:01.999Z</time></trkpt><trkpt lat="45.34607219941221" lon="10.88142776419417"><ele>44.666666666666664</ele><time>2026-04-04T15:21:02.999Z</time></trkpt><trkpt lat="45.346147329578315" lon="10.881376117613529"><ele>44.833333333333336</ele><time>2026-04-04T15:21:03.999Z</time></trkpt><trkpt lat="45.34622124175929" lon="10.881321125927917"><ele>45.0</ele><time>2026-04-04T15:21:04.999Z</time></trkpt><trkpt lat="45.34629839108483" lon="10.88126873220556"><ele>46.0</ele><time>2026-04-04T15:21:05.999Z</time></trkpt><trkpt lat="45.346383710009384" lon="10.881218647640976"><ele>47.0</ele><time>2026-04-04T15:21:06.999Z</time></trkpt><trkpt lat="45.34647301418132" lon="10.881169342001408"><ele>48.0</ele><time>2026-04-04T15:21:07.999Z</time></trkpt><trkpt lat="45.346566448660724" lon="10.881118875673378"><ele>49.0</ele><time>2026-04-04T15:21:08.998Z</time></trkpt><trkpt lat="45.34666112871247" lon="10.881075031791257"><ele>50.0</ele><time>2026-04-04T15:21:09.998Z</time></trkpt><trkpt lat="45.34675580295175" lon="10.881036666360421"><ele>50.0</ele><time>2026-04-04T15:21:10.998Z</time></trkpt><trkpt lat="45.34685147579085" lon="10.88101141320514"><ele>50.0</ele><time>2026-04-04T15:21:11.998Z</time></trkpt><trkpt lat="45.346946314952504" lon="10.880997297584281"><ele>50.0</ele><time>2026-04-04T15:21:12.998Z</time></trkpt><trkpt lat="45.347041142045654" lon="10.880994548374753"><ele>50.0</ele><time>2026-04-04T15:21:13.998Z</time></trkpt><trkpt lat="45.347136610504684" lon="10.881004601675937"><ele>50.0</ele><time>2026-04-04T15:21:14.998Z</time></trkpt><trkpt lat="45.34723242624644" lon="10.881023462792657"><ele>49.6</ele><time>2026-04-04T15:21:15.998Z</time></trkpt><trkpt lat="45.347325628893664" lon="10.881040172527007"><ele>49.2</ele><time>2026-04-04T15:21:16.998Z</time></trkpt><trkpt lat="45.347415892208154" lon="10.881054455862099"><ele>48.8</ele><time>2026-04-04T15:21:17.998Z</time></trkpt><trkpt lat="45.34750762126457" lon="10.881068536509655"><ele>48.4</ele><time>2026-04-04T15:21:18.998Z</time></trkpt><trkpt lat="45.34759860505146" lon="10.88108052948969"><ele>48.0</ele><time>2026-04-04T15:21:19.998Z</time></trkpt><trkpt lat="45.34769081564267" lon="10.881081165510084"><ele>48.0</ele><time>2026-04-04T15:21:20.998Z</time></trkpt><trkpt lat="45.347782052584186" lon="10.88107114368939"><ele>48.0</ele><time>2026-04-04T15:21:21.998Z</time></trkpt><trkpt lat="45.34787434710277" lon="10.881057813011637"><ele>48.0</ele><time>2026-04-04T15:21:22.998Z</time></trkpt><trkpt lat="45.347965681099915" lon="10.881052637490937"><ele>48.0</ele><time>2026-04-04T15:21:23.999Z</time></trkpt><trkpt lat="45.34804973929682" lon="10.881060171573981"><ele>48.0</ele><time>2026-04-04T15:21:24.999Z</time></trkpt><trkpt lat="45.348118978340224" lon="10.881075481121385"><ele>48.0</ele><time>2026-04-04T15:21:25.999Z</time></trkpt><trkpt lat="45.34820563481469" lon="10.88109726996553"><ele>47.5</ele><time>2026-04-04T15:21:27.999Z</time></trkpt><trkpt lat="45.348270601647236" lon="10.88111433794604"><ele>47.0</ele><time>2026-04-04T15:21:29.999Z</time></trkpt><trkpt lat="45.34835040165386" lon="10.881138021539016"><ele>46.5</ele><time>2026-04-04T15:21:32.999Z</time></trkpt><trkpt lat="45.34842652314516" lon="10.88120589315061"><ele>46.0</ele><time>2026-04-04T15:21:35.999Z</time></trkpt><trkpt lat="45.348522365538265" lon="10.8812802353512"><ele>45.5</ele><time>2026-04-04T15:21:37.999Z</time></trkpt><trkpt lat="45.348585357809164" lon="10.881382057084355"><ele>45.0</ele><time>2026-04-04T15:21:38.999Z</time></trkpt><trkpt lat="45.348673764681664" lon="10.881477664692097"><ele>45.0</ele><time>2026-04-04T15:21:39.999Z</time></trkpt><trkpt lat="45.34877323405857" lon="10.881581726165047"><ele>45.0</ele><time>2026-04-04T15:21:40.999Z</time></trkpt><trkpt lat="45.34887863104165" lon="10.881720679674686"><ele>45.0</ele><time>2026-04-04T15:21:41.999Z</time></trkpt><trkpt lat="45.34896399389042" lon="10.881848209396018"><ele>45.0</ele><time>2026-04-04T15:21:42.999Z</time></trkpt><trkpt lat="45.34903034749029" lon="10.881954137060188"><ele>45.2</ele><time>2026-04-04T15:21:43.999Z</time></trkpt><trkpt lat="45.349081954900875" lon="10.882052011206543"><ele>45.4</ele><time>2026-04-04T15:21:44.999Z</time></trkpt><trkpt lat="45.34913800491741" lon="10.882123528668401"><ele>45.599999999999994</ele><time>2026-04-04T15:21:45.999Z</time></trkpt><trkpt lat="45.34921413840556" lon="10.882156994207334"><ele>45.8</ele><time>2026-04-04T15:21:46.999Z</time></trkpt><trkpt lat="45.34932204883899" lon="10.88217316660123"><ele>46.0</ele><time>2026-04-04T15:21:47.999Z</time></trkpt><trkpt lat="45.34945260972379" lon="10.882155285031253"><ele>46.0</ele><time>2026-04-04T15:21:48.999Z</time></trkpt><trkpt lat="45.34958953205439" lon="10.882231317131538"><ele>46.0</ele><time>2026-04-04T15:21:49.999Z</time></trkpt><trkpt lat="45.349731777908005" lon="10.882282726187572"><ele>46.0</ele><time>2026-04-04T15:21:50.999Z</time></trkpt><trkpt lat="45.34988193899946" lon="10.882336999901238"><ele>46.0</ele><time>2026-04-04T15:21:51.999Z</time></trkpt><trkpt lat="45.350034849610225" lon="10.8823868253771"><ele>46.333333333333336</ele><time>2026-04-04T15:21:52.999Z</time></trkpt><trkpt lat="45.35018802027719" lon="10.88243212476608"><ele>46.666666666666664</ele><time>2026-04-04T15:21:53.999Z</time></trkpt><trkpt lat="45.35034438746153" lon="10.882466770055414"><ele>47.0</ele><time>2026-04-04T15:21:54.999Z</time></trkpt><trkpt lat="45.35050111469212" lon="10.882480509694918"><ele>47.33333333333333</ele><time>2026-04-04T15:21:55.999Z</time></trkpt><trkpt lat="45.35065854840852" lon="10.882478182057916"><ele>47.666666666666664</ele><time>2026-04-04T15:21:56.999Z</time></trkpt><trkpt lat="45.350816687579076" lon="10.88246907438615"><ele>48.0</ele><time>2026-04-04T15:21:57.999Z</time></trkpt><trkpt lat="45.35097336673296" lon="10.882465608754888"><ele>48.0</ele><time>2026-04-04T15:21:58.999Z</time></trkpt><trkpt lat="45.35112642642375" lon="10.882463791730327"><ele>48.0</ele><time>2026-04-04T15:21:59.999Z</time></trkpt><trkpt lat="45.35127251086204" lon="10.882460901741949"><ele>48.0</ele><time>2026-04-04T15:22:00.999Z</time></trkpt><trkpt lat="45.35141171834971" lon="10.88246024787536"><ele>48.0</ele><time>2026-04-04T15:22:01.999Z</time></trkpt><trkpt lat="45.35154179393403" lon="10.882455761796349"><ele>47.8</ele><time>2026-04-04T15:22:02.999Z</time></trkpt><trkpt lat="45.35166292765805" lon="10.88244660129628"><ele>47.599999999999994</ele><time>2026-04-04T15:22:03.999Z</time></trkpt><trkpt lat="45.351769684017036" lon="10.88245233786216"><ele>47.400000000000006</ele><time>2026-04-04T15:22:04.999Z</time></trkpt><trkpt lat="45.35187019418889" lon="10.882476766776024"><ele>47.2</ele><time>2026-04-04T15:22:05.999Z</time></trkpt><trkpt lat="45.35197165234789" lon="10.882523137714529"><ele>47.0</ele><time>2026-04-04T15:22:06.999Z</time></trkpt><trkpt lat="45.35207918228424" lon="10.882582470238159"><ele>47.0</ele><time>2026-04-04T15:22:07.999Z</time></trkpt><trkpt lat="45.35219083233531" lon="10.882645058797676"><ele>47.0</ele><time>2026-04-04T15:22:08.999Z</time></trkpt><trkpt lat="45.35231078882854" lon="10.882707335682973"><ele>47.0</ele><time>2026-04-04T15:22:09.999Z</time></trkpt><trkpt lat="45.35243838980594" lon="10.882767098274346"><ele>47.0</ele><time>2026-04-04T15:22:10.999Z</time></trkpt><trkpt lat="45.35257007387271" lon="10.882825609313796"><ele>47.0</ele><time>2026-04-04T15:22:11.999Z</time></trkpt><trkpt lat="45.3527033426504" lon="10.882898411655633"><ele>47.0</ele><time>2026-04-04T15:22:12.999Z</time></trkpt><trkpt lat="45.35282291036433" lon="10.882957489290202"><ele>47.0</ele><time>2026-04-04T15:22:13.999Z</time></trkpt><trkpt lat="45.35291832652311" lon="10.883005104266898"><ele>47.0</ele><time>2026-04-04T15:22:14.999Z</time></trkpt><trkpt lat="45.35298711755849" lon="10.883050338345171"><ele>47.0</ele><time>2026-04-04T15:22:15.999Z</time></trkpt><trkpt lat="45.353043201624224" lon="10.88309484323089"><ele>47.0</ele><time>2026-04-04T15:22:16.999Z</time></trkpt><trkpt lat="45.353139636930756" lon="10.883141866991798"><ele>47.0</ele><time>2026-04-04T15:22:18.999Z</time></trkpt><trkpt lat="45.35321118870117" lon="10.883177957307913"><ele>47.0</ele><time>2026-04-04T15:22:19.999Z</time></trkpt><trkpt lat="45.35327857099042" lon="10.88322014689391"><ele>47.0</ele><time>2026-04-04T15:22:20.999Z</time></trkpt><trkpt lat="45.353378327971804" lon="10.883248003293444"><ele>47.0</ele><time>2026-04-04T15:22:21.999Z</time></trkpt><trkpt lat="45.35349499921117" lon="10.883303487108392"><ele>47.0</ele><time>2026-04-04T15:22:22.999Z</time></trkpt><trkpt lat="45.35363233263195" lon="10.883360657622193"><ele>47.0</ele><time>2026-04-04T15:22:23.999Z</time></trkpt><trkpt lat="45.35378501160279" lon="10.883429060584415"><ele>47.0</ele><time>2026-04-04T15:22:24.999Z</time></trkpt><trkpt lat="45.35394655388945" lon="10.883511767856552"><ele>46.666666666666664</ele><time>2026-04-04T15:22:25.999Z</time></trkpt><trkpt lat="45.354115554346706" lon="10.883595423623811"><ele>46.333333333333336</ele><time>2026-04-04T15:22:26.999Z</time></trkpt><trkpt lat="45.35429608310694" lon="10.883680988701563"><ele>46.0</ele><time>2026-04-04T15:22:27.999Z</time></trkpt><trkpt lat="45.35448425945174" lon="10.883774981205883"><ele>46.0</ele><time>2026-04-04T15:22:28.999Z</time></trkpt><trkpt lat="45.35468413144601" lon="10.883856582778014"><ele>46.0</ele><time>2026-04-04T15:22:29.999Z</time></trkpt><trkpt lat="45.35488862595031" lon="10.883925396491957"><ele>46.0</ele><time>2026-04-04T15:22:30.999Z</time></trkpt><trkpt lat="45.35507418263586" lon="10.883987301455926"><ele>46.333333333333336</ele><time>2026-04-04T15:22:31.999Z</time></trkpt><trkpt lat="45.3552485996038" lon="10.884054994971166"><ele>46.666666666666664</ele><time>2026-04-04T15:22:32.999Z</time></trkpt><trkpt lat="45.35540501272142" lon="10.884131244940598"><ele>47.0</ele><time>2026-04-04T15:22:33.999Z</time></trkpt><trkpt lat="45.355543765994625" lon="10.884226811785203"><ele>47.0</ele><time>2026-04-04T15:22:34.999Z</time></trkpt><trkpt lat="45.35565836886919" lon="10.884349934598996"><ele>47.0</ele><time>2026-04-04T15:22:35.999Z</time></trkpt><trkpt lat="45.35574865962593" lon="10.884503423576403"><ele>47.0</ele><time>2026-04-04T15:22:36.999Z</time></trkpt><trkpt lat="45.35582930016332" lon="10.884673312447035"><ele>47.0</ele><time>2026-04-04T15:22:37.999Z</time></trkpt><trkpt lat="45.35589339712085" lon="10.884826334927224"><ele>47.0</ele><time>2026-04-04T15:22:38.999Z</time></trkpt><trkpt lat="45.35595005746995" lon="10.884952471804876"><ele>47.0</ele><time>2026-04-04T15:22:39.999Z</time></trkpt><trkpt lat="45.35600074406324" lon="10.8850594864611"><ele>47.0</ele><time>2026-04-04T15:22:40.999Z</time></trkpt><trkpt lat="45.356051132098855" lon="10.885136847146795"><ele>47.0</ele><time>2026-04-04T15:22:41.999Z</time></trkpt><trkpt lat="45.35620659973543" lon="10.885154947586921"><ele>47.0</ele><time>2026-04-04T15:22:43.999Z</time></trkpt><trkpt lat="45.35631753854911" lon="10.885145496960567"><ele>47.0</ele><time>2026-04-04T15:22:44.999Z</time></trkpt><trkpt lat="45.35644860742657" lon="10.885154617369622"><ele>47.0</ele><time>2026-04-04T15:22:45.999Z</time></trkpt><trkpt lat="45.35659858047737" lon="10.88517645613976"><ele>47.0</ele><time>2026-04-04T15:22:46.999Z</time></trkpt><trkpt lat="45.35676411326991" lon="10.885196581276166"><ele>47.0</ele><time>2026-04-04T15:22:47.999Z</time></trkpt><trkpt lat="45.35693689911816" lon="10.885218043388049"><ele>47.0</ele><time>2026-04-04T15:22:48.999Z</time></trkpt><trkpt lat="45.35712059907197" lon="10.885240583741101"><ele>47.0</ele><time>2026-04-04T15:22:49.999Z</time></trkpt><trkpt lat="45.35731213908037" lon="10.88526225944453"><ele>47.0</ele><time>2026-04-04T15:22:50.999Z</time></trkpt><trkpt lat="45.3575111966872" lon="10.885283688587624"><ele>47.0</ele><time>2026-04-04T15:22:51.999Z</time></trkpt><trkpt lat="45.35771804651496" lon="10.885306880703162"><ele>47.0</ele><time>2026-04-04T15:22:52.999Z</time></trkpt><trkpt lat="45.35793207026085" lon="10.88532773699778"><ele>47.0</ele><time>2026-04-04T15:22:53.999Z</time></trkpt><trkpt lat="45.35814918329788" lon="10.885341830997415"><ele>47.0</ele><time>2026-04-04T15:22:54.999Z</time></trkpt><trkpt lat="45.358363050684545" lon="10.88534934547448"><ele>47.0</ele><time>2026-04-04T15:22:55.999Z</time></trkpt><trkpt lat="45.35857409747926" lon="10.885343107232314"><ele>47.0</ele><time>2026-04-04T15:22:56.999Z</time></trkpt><trkpt lat="45.35877546646963" lon="10.885314791866048"><ele>46.0</ele><time>2026-04-04T15:22:57.999Z</time></trkpt><trkpt lat="45.35897389219574" lon="10.88529078784522"><ele>45.0</ele><time>2026-04-04T15:22:58.999Z</time></trkpt><trkpt lat="45.35916779451676" lon="10.88521837806919"><ele>44.0</ele><time>2026-04-04T15:22:59.999Z</time></trkpt><trkpt lat="45.35935362424277" lon="10.88510462073744"><ele>44.33333333333333</ele><time>2026-04-04T15:23:00.999Z</time></trkpt><trkpt lat="45.3595443738749" lon="10.885000588336581"><ele>44.666666666666664</ele><time>2026-04-04T15:23:01.999Z</time></trkpt><trkpt lat="45.35973264389227" lon="10.884881153081952"><ele>45.0</ele><time>2026-04-04T15:23:02.999Z</time></trkpt><trkpt lat="45.359918809264954" lon="10.884754768833009"><ele>45.333333333333336</ele><time>2026-04-04T15:23:03.999Z</time></trkpt><trkpt lat="45.360107522233115" lon="10.884639744083076"><ele>45.66666666666667</ele><time>2026-04-04T15:23:04.999Z</time></trkpt><trkpt lat="45.36030472860692" lon="10.884551832324913"><ele>46.0</ele><time>2026-04-04T15:23:05.999Z</time></trkpt><trkpt lat="45.36050673448293" lon="10.884474026218548"><ele>45.66666666666667</ele><time>2026-04-04T15:23:06.999Z</time></trkpt><trkpt lat="45.360710460436145" lon="10.884396016041368"><ele>45.333333333333336</ele><time>2026-04-04T15:23:07.999Z</time></trkpt><trkpt lat="45.36091714367199" lon="10.884313603808282"><ele>45.0</ele><time>2026-04-04T15:23:08.999Z</time></trkpt><trkpt lat="45.36112517229434" lon="10.884230859375508"><ele>46.0</ele><time>2026-04-04T15:23:09.999Z</time></trkpt><trkpt lat="45.3613251818788" lon="10.884149875714927"><ele>47.0</ele><time>2026-04-04T15:23:10.999Z</time></trkpt><trkpt lat="45.36150917744699" lon="10.884076770351005"><ele>48.0</ele><time>2026-04-04T15:23:11.999Z</time></trkpt><trkpt lat="45.361677547044906" lon="10.884018588344945"><ele>48.0</ele><time>2026-04-04T15:23:12.999Z</time></trkpt><trkpt lat="45.36182418726265" lon="10.883969951919687"><ele>48.0</ele><time>2026-04-04T15:23:13.999Z</time></trkpt><trkpt lat="45.36196038009932" lon="10.883934220541295"><ele>48.0</ele><time>2026-04-04T15:23:14.998Z</time></trkpt><trkpt lat="45.36209091984632" lon="10.883917158231595"><ele>48.0</ele><time>2026-04-04T15:23:15.998Z</time></trkpt><trkpt lat="45.36220740529622" lon="10.88392056018868"><ele>48.0</ele><time>2026-04-04T15:23:16.998Z</time></trkpt><trkpt lat="45.362300315049715" lon="10.883938891843142"><ele>48.0</ele><time>2026-04-04T15:23:17.998Z</time></trkpt><trkpt lat="45.3623801181918" lon="10.883974915177912"><ele>48.0</ele><time>2026-04-04T15:23:18.998Z</time></trkpt><trkpt lat="45.3624494852622" lon="10.884024672004903"><ele>48.0</ele><time>2026-04-04T15:23:19.998Z</time></trkpt><trkpt lat="45.362514894879816" lon="10.88408958024323"><ele>48.0</ele><time>2026-04-04T15:23:20.998Z</time></trkpt><trkpt lat="45.36258251297261" lon="10.884182336198622"><ele>48.0</ele><time>2026-04-04T15:23:21.998Z</time></trkpt><trkpt lat="45.36265520313535" lon="10.884284668115757"><ele>48.2</ele><time>2026-04-04T15:23:22.998Z</time></trkpt><trkpt lat="45.36275035581461" lon="10.884348858445378"><ele>48.4</ele><time>2026-04-04T15:23:23.998Z</time></trkpt><trkpt lat="45.3628569256105" lon="10.884364274754493"><ele>48.6</ele><time>2026-04-04T15:23:24.998Z</time></trkpt><trkpt lat="45.36295713599453" lon="10.884333432116657"><ele>48.800000000000004</ele><time>2026-04-04T15:23:25.998Z</time></trkpt><trkpt lat="45.36303791066007" lon="10.884261745668185"><ele>49.0</ele><time>2026-04-04T15:23:26.998Z</time></trkpt><trkpt lat="45.363097142988835" lon="10.884150325410207"><ele>49.0</ele><time>2026-04-04T15:23:27.999Z</time></trkpt><trkpt lat="45.363124366440836" lon="10.883998460105254"><ele>49.0</ele><time>2026-04-04T15:23:28.999Z</time></trkpt><trkpt lat="45.36316598321235" lon="10.883862992680545"><ele>49.0</ele><time>2026-04-04T15:23:29.999Z</time></trkpt><trkpt lat="45.363228615873986" lon="10.883738211295153"><ele>49.0</ele><time>2026-04-04T15:23:30.999Z</time></trkpt><trkpt lat="45.363312500071906" lon="10.883629573248173"><ele>49.0</ele><time>2026-04-04T15:23:31.999Z</time></trkpt><trkpt lat="45.36340600332166" lon="10.883535335891786"><ele>49.0</ele><time>2026-04-04T15:23:32.999Z</time></trkpt><trkpt lat="45.36350204789254" lon="10.883456912387345"><ele>49.0</ele><time>2026-04-04T15:23:33.999Z</time></trkpt><trkpt lat="45.363594232356235" lon="10.883395210195749"><ele>49.0</ele><time>2026-04-04T15:23:34.999Z</time></trkpt><trkpt lat="45.363682509940816" lon="10.883357153659368"><ele>49.0</ele><time>2026-04-04T15:23:35.999Z</time></trkpt><trkpt lat="45.363767514528426" lon="10.883362139837672"><ele>49.0</ele><time>2026-04-04T15:23:36.999Z</time></trkpt><trkpt lat="45.36385208818698" lon="10.883398019964414"><ele>49.400000000000006</ele><time>2026-04-04T15:23:37.999Z</time></trkpt><trkpt lat="45.36392678105313" lon="10.883464629740311"><ele>49.8</ele><time>2026-04-04T15:23:38.999Z</time></trkpt><trkpt lat="45.363992034629966" lon="10.883565629074424"><ele>50.2</ele><time>2026-04-04T15:23:39.999Z</time></trkpt><trkpt lat="45.36404958310749" lon="10.883695524696504"><ele>50.599999999999994</ele><time>2026-04-04T15:23:40.999Z</time></trkpt><trkpt lat="45.364113252746186" lon="10.883835204456826"><ele>51.0</ele><time>2026-04-04T15:23:41.999Z</time></trkpt><trkpt lat="45.364191603000336" lon="10.883984007001905"><ele>51.0</ele><time>2026-04-04T15:23:42.999Z</time></trkpt><trkpt lat="45.36427780225311" lon="10.884143977399692"><ele>51.0</ele><time>2026-04-04T15:23:43.999Z</time></trkpt><trkpt lat="45.36436588998276" lon="10.884319351864624"><ele>51.0</ele><time>2026-04-04T15:23:44.999Z</time></trkpt><trkpt lat="45.364458502521146" lon="10.884508379222845"><ele>50.66666666666667</ele><time>2026-04-04T15:23:45.999Z</time></trkpt><trkpt lat="45.36455641783439" lon="10.88470559056673"><ele>50.333333333333336</ele><time>2026-04-04T15:23:46.999Z</time></trkpt><trkpt lat="45.364656813553644" lon="10.884905238044022"><ele>50.0</ele><time>2026-04-04T15:23:47.999Z</time></trkpt><trkpt lat="45.36476644347117" lon="10.885086473689013"><ele>50.0</ele><time>2026-04-04T15:23:48.999Z</time></trkpt><trkpt lat="45.364890532977554" lon="10.885261113261999"><ele>50.0</ele><time>2026-04-04T15:23:49.999Z</time></trkpt><trkpt lat="45.36502715880705" lon="10.885431013332646"><ele>50.0</ele><time>2026-04-04T15:23:50.999Z</time></trkpt><trkpt lat="45.3651711635157" lon="10.885596576060697"><ele>50.0</ele><time>2026-04-04T15:23:51.999Z</time></trkpt><trkpt lat="45.36531867153577" lon="10.885760994934293"><ele>50.0</ele><time>2026-04-04T15:23:52.999Z</time></trkpt><trkpt lat="45.365464049115566" lon="10.885928317582737"><ele>50.0</ele><time>2026-04-04T15:23:53.999Z</time></trkpt><trkpt lat="45.36560615332618" lon="10.886102926823153"><ele>50.0</ele><time>2026-04-04T15:23:54.999Z</time></trkpt><trkpt lat="45.365744259413944" lon="10.886285890351406"><ele>50.0</ele><time>2026-04-04T15:23:55.999Z</time></trkpt><trkpt lat="45.36588101081789" lon="10.886471355770617"><ele>50.0</ele><time>2026-04-04T15:23:56.999Z</time></trkpt><trkpt lat="45.36601522735948" lon="10.88665370106869"><ele>50.25</ele><time>2026-04-04T15:23:57.999Z</time></trkpt><trkpt lat="45.36613594623434" lon="10.886816598832432"><ele>50.5</ele><time>2026-04-04T15:23:58.999Z</time></trkpt><trkpt lat="45.36624237328578" lon="10.886960961903718"><ele>50.75</ele><time>2026-04-04T15:23:59.999Z</time></trkpt><trkpt lat="45.36632846778203" lon="10.887086029368827"><ele>51.0</ele><time>2026-04-04T15:24:00.999Z</time></trkpt><trkpt lat="45.366400927567334" lon="10.887200817422965"><ele>51.4</ele><time>2026-04-04T15:24:01.999Z</time></trkpt><trkpt lat="45.36646354899022" lon="10.887295118239294"><ele>51.8</ele><time>2026-04-04T15:24:02.999Z</time></trkpt><trkpt lat="45.366529325077785" lon="10.887357845116561"><ele>52.199999999999996</ele><time>2026-04-04T15:24:03.999Z</time></trkpt><trkpt lat="45.366605449266224" lon="10.88741783481164"><ele>52.599999999999994</ele><time>2026-04-04T15:24:04.999Z</time></trkpt><trkpt lat="45.36670909816021" lon="10.88736559506129"><ele>53.0</ele><time>2026-04-04T15:24:05.999Z</time></trkpt><trkpt lat="45.36682061547361" lon="10.88731705301878"><ele>53.0</ele><time>2026-04-04T15:24:06.999Z</time></trkpt><trkpt lat="45.366949113991716" lon="10.887256908783781"><ele>53.0</ele><time>2026-04-04T15:24:07.999Z</time></trkpt><trkpt lat="45.36709231671788" lon="10.88719360097637"><ele>53.0</ele><time>2026-04-04T15:24:08.999Z</time></trkpt><trkpt lat="45.367249881563026" lon="10.887128099280467"><ele>53.0</ele><time>2026-04-04T15:24:09.999Z</time></trkpt><trkpt lat="45.3674156159173" lon="10.887058931337426"><ele>52.66666666666667</ele><time>2026-04-04T15:24:10.999Z</time></trkpt><trkpt lat="45.36758778027859" lon="10.886987121426028"><ele>52.33333333333333</ele><time>2026-04-04T15:24:11.999Z</time></trkpt><trkpt lat="45.36776780796466" lon="10.88691358218228"><ele>52.0</ele><time>2026-04-04T15:24:12.999Z</time></trkpt><trkpt lat="45.36795351896465" lon="10.88683929894352"><ele>52.33333333333333</ele><time>2026-04-04T15:24:13.999Z</time></trkpt><trkpt lat="45.3681415401195" lon="10.886759409964727"><ele>52.66666666666667</ele><time>2026-04-04T15:24:14.999Z</time></trkpt><trkpt lat="45.36833459389598" lon="10.886672453837647"><ele>53.0</ele><time>2026-04-04T15:24:15.999Z</time></trkpt><trkpt lat="45.368531152907025" lon="10.886587752922877"><ele>53.0</ele><time>2026-04-04T15:24:16.999Z</time></trkpt><trkpt lat="45.36873049701405" lon="10.886504774999848"><ele>53.0</ele><time>2026-04-04T15:24:17.999Z</time></trkpt><trkpt lat="45.36892919782699" lon="10.886420962898052"><ele>53.0</ele><time>2026-04-04T15:24:18.999Z</time></trkpt><trkpt lat="45.36912774216961" lon="10.88633567537675"><ele>52.333333333333336</ele><time>2026-04-04T15:24:19.999Z</time></trkpt><trkpt lat="45.36931834559409" lon="10.886256769453398"><ele>51.66666666666667</ele><time>2026-04-04T15:24:20.999Z</time></trkpt><trkpt lat="45.36949695222865" lon="10.886182953155092"><ele>51.0</ele><time>2026-04-04T15:24:21.999Z</time></trkpt><trkpt lat="45.369664262546806" lon="10.886112675200247"><ele>51.75</ele><time>2026-04-04T15:24:22.999Z</time></trkpt><trkpt lat="45.36982053922499" lon="10.886050512555641"><ele>52.5</ele><time>2026-04-04T15:24:23.999Z</time></trkpt><trkpt lat="45.36996027329888" lon="10.885996472983564"><ele>53.25</ele><time>2026-04-04T15:24:24.999Z</time></trkpt><trkpt lat="45.37009101950139" lon="10.885942068908358"><ele>54.0</ele><time>2026-04-04T15:24:25.999Z</time></trkpt><trkpt lat="45.37020822056596" lon="10.885884416330573"><ele>54.0</ele><time>2026-04-04T15:24:26.999Z</time></trkpt><trkpt lat="45.37031581703631" lon="10.885823388160526"><ele>54.0</ele><time>2026-04-04T15:24:27.999Z</time></trkpt><trkpt lat="45.370418763819785" lon="10.88575785763306"><ele>54.0</ele><time>2026-04-04T15:24:28.999Z</time></trkpt><trkpt lat="45.370521098359674" lon="10.88568876477494"><ele>54.0</ele><time>2026-04-04T15:24:29.999Z</time></trkpt><trkpt lat="45.37062439330696" lon="10.885617602633761"><ele>54.0</ele><time>2026-04-04T15:24:30.999Z</time></trkpt><trkpt lat="45.370729040921965" lon="10.885548609673885"><ele>54.0</ele><time>2026-04-04T15:24:31.999Z</time></trkpt><trkpt lat="45.3708272668559" lon="10.885480180055751"><ele>54.0</ele><time>2026-04-04T15:24:32.999Z</time></trkpt><trkpt lat="45.37090606227447" lon="10.885422166606299"><ele>54.0</ele><time>2026-04-04T15:24:33.999Z</time></trkpt><trkpt lat="45.370963825747346" lon="10.885375803881379"><ele>54.0</ele><time>2026-04-04T15:24:34.999Z</time></trkpt><trkpt lat="45.37102199916589" lon="10.885321965013448"><ele>54.0</ele><time>2026-04-04T15:24:35.999Z</time></trkpt><trkpt lat="45.37111009183114" lon="10.885250199719524"><ele>54.0</ele><time>2026-04-04T15:24:36.999Z</time></trkpt><trkpt lat="45.37122355885563" lon="10.88516575857313"><ele>54.0</ele><time>2026-04-04T15:24:37.999Z</time></trkpt><trkpt lat="45.3713575901938" lon="10.885060893322576"><ele>54.0</ele><time>2026-04-04T15:24:38.999Z</time></trkpt><trkpt lat="45.37149681189715" lon="10.884944491861765"><ele>54.0</ele><time>2026-04-04T15:24:39.999Z</time></trkpt><trkpt lat="45.37163913622009" lon="10.884799167489547"><ele>54.0</ele><time>2026-04-04T15:24:40.999Z</time></trkpt><trkpt lat="45.37178787998946" lon="10.884607793905056"><ele>54.0</ele><time>2026-04-04T15:24:41.999Z</time></trkpt><trkpt lat="45.371941375768344" lon="10.884422811613254"><ele>54.0</ele><time>2026-04-04T15:24:42.999Z</time></trkpt><trkpt lat="45.3720953893539" lon="10.884278151315781"><ele>53.66666666666667</ele><time>2026-04-04T15:24:43.999Z</time></trkpt><trkpt lat="45.37226044140421" lon="10.88415897829448"><ele>53.333333333333336</ele><time>2026-04-04T15:24:44.999Z</time></trkpt><trkpt lat="45.372437649020824" lon="10.884046588941898"><ele>53.0</ele><time>2026-04-04T15:24:45.999Z</time></trkpt><trkpt lat="45.37261532420412" lon="10.883931517943177"><ele>53.0</ele><time>2026-04-04T15:24:46.999Z</time></trkpt><trkpt lat="45.37278838049862" lon="10.883820131027775"><ele>53.0</ele><time>2026-04-04T15:24:47.999Z</time></trkpt><trkpt lat="45.3729519715286" lon="10.883709410250214"><ele>53.0</ele><time>2026-04-04T15:24:48.999Z</time></trkpt><trkpt lat="45.37310565430594" lon="10.883614941482431"><ele>52.66666666666667</ele><time>2026-04-04T15:24:49.999Z</time></trkpt><trkpt lat="45.373276139600485" lon="10.883579832798098"><ele>52.33333333333333</ele><time>2026-04-04T15:24:50.999Z</time></trkpt><trkpt lat="45.373447126430186" lon="10.883536943723469"><ele>52.0</ele><time>2026-04-04T15:24:51.999Z</time></trkpt><trkpt lat="45.37361563043393" lon="10.883472717453321"><ele>52.666666666666664</ele><time>2026-04-04T15:24:52.999Z</time></trkpt><trkpt lat="45.373781276077366" lon="10.883405214062963"><ele>53.33333333333333</ele><time>2026-04-04T15:24:53.999Z</time></trkpt><trkpt lat="45.3739457064484" lon="10.883306327578842"><ele>54.0</ele><time>2026-04-04T15:24:54.999Z</time></trkpt><trkpt lat="45.37410976954634" lon="10.883188750102141"><ele>54.0</ele><time>2026-04-04T15:24:55.999Z</time></trkpt><trkpt lat="45.37428817574962" lon="10.883090042122394"><ele>54.0</ele><time>2026-04-04T15:24:56.999Z</time></trkpt><trkpt lat="45.37445739604251" lon="10.88294961172"><ele>54.0</ele><time>2026-04-04T15:24:57.999Z</time></trkpt><trkpt lat="45.37463724123346" lon="10.882825088615421"><ele>54.66666666666667</ele><time>2026-04-04T15:24:58.999Z</time></trkpt><trkpt lat="45.37482052942868" lon="10.882697187558026"><ele>55.333333333333336</ele><time>2026-04-04T15:24:59.999Z</time></trkpt><trkpt lat="45.375007368439086" lon="10.882570501320691"><ele>56.0</ele><time>2026-04-04T15:25:00.999Z</time></trkpt><trkpt lat="45.37519447808652" lon="10.882442312655964"><ele>56.333333333333336</ele><time>2026-04-04T15:25:01.999Z</time></trkpt><trkpt lat="45.37537300945827" lon="10.882315885552602"><ele>56.66666666666667</ele><time>2026-04-04T15:25:02.999Z</time></trkpt><trkpt lat="45.3755386522034" lon="10.882201604892916"><ele>57.0</ele><time>2026-04-04T15:25:03.999Z</time></trkpt><trkpt lat="45.375693577214" lon="10.882094414790979"><ele>56.25</ele><time>2026-04-04T15:25:04.999Z</time></trkpt><trkpt lat="45.375835517865745" lon="10.88199518948111"><ele>55.5</ele><time>2026-04-04T15:25:05.999Z</time></trkpt><trkpt lat="45.375953015012044" lon="10.881913564954875"><ele>54.75</ele><time>2026-04-04T15:25:06.999Z</time></trkpt><trkpt lat="45.37604823679296" lon="10.88184588064199"><ele>54.0</ele><time>2026-04-04T15:25:07.999Z</time></trkpt><trkpt lat="45.376138890275996" lon="10.88179506294833"><ele>54.0</ele><time>2026-04-04T15:25:08.999Z</time></trkpt><trkpt lat="45.37622127280194" lon="10.881790661875266"><ele>54.0</ele><time>2026-04-04T15:25:10Z</time></trkpt><trkpt lat="45.37630220895908" lon="10.881813731901387"><ele>54.0</ele><time>2026-04-04T15:25:11Z</time></trkpt><trkpt lat="45.37638469763341" lon="10.881829174389305"><ele>54.0</ele><time>2026-04-04T15:25:12Z</time></trkpt><trkpt lat="45.376465833657534" lon="10.881801181543006"><ele>54.0</ele><time>2026-04-04T15:25:13Z</time></trkpt><trkpt lat="45.37654020228488" lon="10.881739213994322"><ele>54.0</ele><time>2026-04-04T15:25:14Z</time></trkpt><trkpt lat="45.376587631223856" lon="10.881636967155515"><ele>55.0</ele><time>2026-04-04T15:25:15Z</time></trkpt><trkpt lat="45.3766046420116" lon="10.881512737534237"><ele>56.00000000000001</ele><time>2026-04-04T15:25:16Z</time></trkpt><trkpt lat="45.37661650253153" lon="10.881371439976125"><ele>57.00000000000001</ele><time>2026-04-04T15:25:17Z</time></trkpt><trkpt lat="45.37665996665377" lon="10.881232635984174"><ele>58.0</ele><time>2026-04-04T15:25:18Z</time></trkpt><trkpt lat="45.37673088054245" lon="10.881101025445442"><ele>59.0</ele><time>2026-04-04T15:25:19Z</time></trkpt><trkpt lat="45.37681839739289" lon="10.880991605339489"><ele>59.0</ele><time>2026-04-04T15:25:20Z</time></trkpt><trkpt lat="45.37692715882424" lon="10.880921102990342"><ele>59.0</ele><time>2026-04-04T15:25:20.999Z</time></trkpt><trkpt lat="45.37702578266702" lon="10.880819523581625"><ele>59.0</ele><time>2026-04-04T15:25:21.999Z</time></trkpt><trkpt lat="45.37713746922146" lon="10.880751623303249"><ele>59.0</ele><time>2026-04-04T15:25:22.999Z</time></trkpt><trkpt lat="45.37724773463821" lon="10.880677179048538"><ele>59.0</ele><time>2026-04-04T15:25:23.999Z</time></trkpt><trkpt lat="45.37734713983419" lon="10.880608692425275"><ele>59.0</ele><time>2026-04-04T15:25:24.999Z</time></trkpt><trkpt lat="45.37744744526558" lon="10.880543807049278"><ele>59.0</ele><time>2026-04-04T15:25:25.999Z</time></trkpt><trkpt lat="45.37756451647322" lon="10.880474962795772"><ele>59.0</ele><time>2026-04-04T15:25:26.999Z</time></trkpt><trkpt lat="45.37769237013799" lon="10.880388681629006"><ele>59.0</ele><time>2026-04-04T15:25:27.999Z</time></trkpt><trkpt lat="45.37783126571344" lon="10.880299924445483"><ele>59.0</ele><time>2026-04-04T15:25:28.999Z</time></trkpt><trkpt lat="45.377977568652476" lon="10.880203933192297"><ele>59.0</ele><time>2026-04-04T15:25:29.999Z</time></trkpt><trkpt lat="45.378129756936694" lon="10.880106364295534"><ele>58.333333333333336</ele><time>2026-04-04T15:25:30.999Z</time></trkpt><trkpt lat="45.37828550111333" lon="10.88000737779449"><ele>57.66666666666667</ele><time>2026-04-04T15:25:31.999Z</time></trkpt><trkpt lat="45.378430310426424" lon="10.879917988050464"><ele>57.0</ele><time>2026-04-04T15:25:32.999Z</time></trkpt><trkpt lat="45.37857070327718" lon="10.879847510326195"><ele>57.0</ele><time>2026-04-04T15:25:33.999Z</time></trkpt><trkpt lat="45.37870799368672" lon="10.87979551790794"><ele>57.0</ele><time>2026-04-04T15:25:34.999Z</time></trkpt><trkpt lat="45.37884115425565" lon="10.879750996654524"><ele>57.0</ele><time>2026-04-04T15:25:35.999Z</time></trkpt><trkpt lat="45.37896613113473" lon="10.879702876905752"><ele>57.0</ele><time>2026-04-04T15:25:36.999Z</time></trkpt><trkpt lat="45.379075124109534" lon="10.879655950367498"><ele>57.333333333333336</ele><time>2026-04-04T15:25:37.999Z</time></trkpt><trkpt lat="45.37917531001161" lon="10.879611384024763"><ele>57.66666666666667</ele><time>2026-04-04T15:25:38.999Z</time></trkpt><trkpt lat="45.37926285118417" lon="10.879583663521663"><ele>58.0</ele><time>2026-04-04T15:25:39.999Z</time></trkpt><trkpt lat="45.3793501479183" lon="10.879545955601698"><ele>58.333333333333336</ele><time>2026-04-04T15:25:40.999Z</time></trkpt><trkpt lat="45.37942834396687" lon="10.879512803845902"><ele>58.66666666666667</ele><time>2026-04-04T15:25:41.999Z</time></trkpt><trkpt lat="45.37949921518014" lon="10.87947571941706"><ele>59.0</ele><time>2026-04-04T15:25:42.999Z</time></trkpt><trkpt lat="45.37956934578103" lon="10.879443970252257"><ele>59.00000000000001</ele><time>2026-04-04T15:25:43.999Z</time></trkpt><trkpt lat="45.379635187352314" lon="10.87941364501281"><ele>59.0</ele><time>2026-04-04T15:25:44.999Z</time></trkpt><trkpt lat="45.379709235911086" lon="10.879374460980419"><ele>59.0</ele><time>2026-04-04T15:25:45.999Z</time></trkpt><trkpt lat="45.37978364778321" lon="10.879325922757639"><ele>59.0</ele><time>2026-04-04T15:25:46.999Z</time></trkpt><trkpt lat="45.379863704827315" lon="10.879281204957891"><ele>59.00000000000001</ele><time>2026-04-04T15:25:47.999Z</time></trkpt><trkpt lat="45.37995084957072" lon="10.879232012923609"><ele>59.0</ele><time>2026-04-04T15:25:48.999Z</time></trkpt><trkpt lat="45.38004778659729" lon="10.879179573782308"><ele>59.25</ele><time>2026-04-04T15:25:49.999Z</time></trkpt><trkpt lat="45.3801523459618" lon="10.879120417518454"><ele>59.5</ele><time>2026-04-04T15:25:50.999Z</time></trkpt><trkpt lat="45.380265312253236" lon="10.879058141686183"><ele>59.75</ele><time>2026-04-04T15:25:51.999Z</time></trkpt><trkpt lat="45.38038804281652" lon="10.878992619173282"><ele>60.0</ele><time>2026-04-04T15:25:52.999Z</time></trkpt><trkpt lat="45.38052082713998" lon="10.878924336860651"><ele>60.0</ele><time>2026-04-04T15:25:53.999Z</time></trkpt><trkpt lat="45.38065438306927" lon="10.87885809635142"><ele>60.0</ele><time>2026-04-04T15:25:54.999Z</time></trkpt><trkpt lat="45.38077955013212" lon="10.878803558093368"><ele>60.0</ele><time>2026-04-04T15:25:55.999Z</time></trkpt><trkpt lat="45.38089162580015" lon="10.878759416106398"><ele>60.0</ele><time>2026-04-04T15:25:56.999Z</time></trkpt><trkpt lat="45.38099085218144" lon="10.878716109920449"><ele>60.0</ele><time>2026-04-04T15:25:57.999Z</time></trkpt><trkpt lat="45.38107968587627" lon="10.878684687348033"><ele>60.0</ele><time>2026-04-04T15:25:58.999Z</time></trkpt><trkpt lat="45.38116145544471" lon="10.87866401023795"><ele>60.0</ele><time>2026-04-04T15:25:59.999Z</time></trkpt><trkpt lat="45.38124613711291" lon="10.878600915130495"><ele>60.0</ele><time>2026-04-04T15:26:00.999Z</time></trkpt><trkpt lat="45.38137971572712" lon="10.878644379476533"><ele>60.0</ele><time>2026-04-04T15:26:02Z</time></trkpt><trkpt lat="45.381507559050405" lon="10.878633117760616"><ele>60.25</ele><time>2026-04-04T15:26:03Z</time></trkpt><trkpt lat="45.381645868887226" lon="10.8786038067805"><ele>60.5</ele><time>2026-04-04T15:26:04Z</time></trkpt><trkpt lat="45.38179106858025" lon="10.87856100119757"><ele>60.75</ele><time>2026-04-04T15:26:05Z</time></trkpt><trkpt lat="45.38194516147985" lon="10.878513024058845"><ele>61.0</ele><time>2026-04-04T15:26:06Z</time></trkpt><trkpt lat="45.38208695440609" lon="10.878490412789969"><ele>61.0</ele><time>2026-04-04T15:26:07Z</time></trkpt><trkpt lat="45.38221882604374" lon="10.878469472871984"><ele>61.0</ele><time>2026-04-04T15:26:08Z</time></trkpt><trkpt lat="45.38234687310971" lon="10.878438782800064"><ele>61.0</ele><time>2026-04-04T15:26:09Z</time></trkpt><trkpt lat="45.382473093374955" lon="10.878404795317717"><ele>61.0</ele><time>2026-04-04T15:26:10Z</time></trkpt><trkpt lat="45.38257717263568" lon="10.878379390440559"><ele>60.99999999999999</ele><time>2026-04-04T15:26:11Z</time></trkpt><trkpt lat="45.38264765926808" lon="10.878357825958243"><ele>61.0</ele><time>2026-04-04T15:26:12Z</time></trkpt><trkpt lat="45.38270664177693" lon="10.878249264026792"><ele>61.0</ele><time>2026-04-04T15:26:14Z</time></trkpt><trkpt lat="45.382710252298345" lon="10.878153345736528"><ele>61.0</ele><time>2026-04-04T15:26:15Z</time></trkpt><trkpt lat="45.38269867845325" lon="10.878024340045007"><ele>60.99999999999999</ele><time>2026-04-04T15:26:16Z</time></trkpt><trkpt lat="45.38267712215179" lon="10.8778647047473"><ele>61.0</ele><time>2026-04-04T15:26:17Z</time></trkpt><trkpt lat="45.38265855633162" lon="10.87768291483914"><ele>60.666666666666664</ele><time>2026-04-04T15:26:18Z</time></trkpt><trkpt lat="45.38264103631294" lon="10.877485519822384"><ele>60.33333333333333</ele><time>2026-04-04T15:26:19Z</time></trkpt><trkpt lat="45.38262198785648" lon="10.877268119407006"><ele>60.0</ele><time>2026-04-04T15:26:20Z</time></trkpt><trkpt lat="45.38260566515271" lon="10.877031703448342"><ele>60.0</ele><time>2026-04-04T15:26:21Z</time></trkpt><trkpt lat="45.38258458184133" lon="10.876788956948046"><ele>60.0</ele><time>2026-04-04T15:26:22Z</time></trkpt><trkpt lat="45.38255954528682" lon="10.87653571947423"><ele>60.0</ele><time>2026-04-04T15:26:23Z</time></trkpt><trkpt lat="45.382535197634034" lon="10.876269103690415"><ele>60.66666666666667</ele><time>2026-04-04T15:26:24Z</time></trkpt><trkpt lat="45.3825122116026" lon="10.875995014247293"><ele>61.333333333333336</ele><time>2026-04-04T15:26:25Z</time></trkpt><trkpt lat="45.38248676588702" lon="10.875717486287567"><ele>62.0</ele><time>2026-04-04T15:26:26Z</time></trkpt><trkpt lat="45.38246442894878" lon="10.87543917663065"><ele>62.0</ele><time>2026-04-04T15:26:27Z</time></trkpt><trkpt lat="45.382441441757415" lon="10.875168937202004"><ele>62.0</ele><time>2026-04-04T15:26:28Z</time></trkpt><trkpt lat="45.38241903213662" lon="10.8749126359344"><ele>62.0</ele><time>2026-04-04T15:26:29Z</time></trkpt><trkpt lat="45.38239859022989" lon="10.874664317741082"><ele>62.0</ele><time>2026-04-04T15:26:30Z</time></trkpt><trkpt lat="45.382382943638426" lon="10.874415655858696"><ele>62.0</ele><time>2026-04-04T15:26:31Z</time></trkpt><trkpt lat="45.38237931255915" lon="10.874161835288543"><ele>62.0</ele><time>2026-04-04T15:26:32Z</time></trkpt><trkpt lat="45.3823858386994" lon="10.87389911791232"><ele>62.0</ele><time>2026-04-04T15:26:33Z</time></trkpt><trkpt lat="45.382395734910695" lon="10.873629209114346"><ele>62.0</ele><time>2026-04-04T15:26:34Z</time></trkpt><trkpt lat="45.38240613721249" lon="10.873351946474425"><ele>62.0</ele><time>2026-04-04T15:26:35Z</time></trkpt><trkpt lat="45.38241447089666" lon="10.873072315621696"><ele>62.0</ele><time>2026-04-04T15:26:36Z</time></trkpt><trkpt lat="45.38242355928621" lon="10.872795791267512"><ele>62.0</ele><time>2026-04-04T15:26:37Z</time></trkpt><trkpt lat="45.382430971656404" lon="10.872521488753913"><ele>62.0</ele><time>2026-04-04T15:26:38Z</time></trkpt><trkpt lat="45.38243521317939" lon="10.872247130713603"><ele>61.66666666666667</ele><time>2026-04-04T15:26:39Z</time></trkpt><trkpt lat="45.382439843890985" lon="10.871974467486842"><ele>61.33333333333333</ele><time>2026-04-04T15:26:40Z</time></trkpt><trkpt lat="45.38245069827355" lon="10.871700584661635"><ele>61.0</ele><time>2026-04-04T15:26:41Z</time></trkpt><trkpt lat="45.382470044975626" lon="10.871429331803277"><ele>61.0</ele><time>2026-04-04T15:26:42Z</time></trkpt><trkpt lat="45.38250574429438" lon="10.871162874202687"><ele>61.0</ele><time>2026-04-04T15:26:43Z</time></trkpt><trkpt lat="45.38255207545131" lon="10.87089293698038"><ele>61.0</ele><time>2026-04-04T15:26:44Z</time></trkpt><trkpt lat="45.382606049076216" lon="10.870619899303398"><ele>60.666666666666664</ele><time>2026-04-04T15:26:45Z</time></trkpt><trkpt lat="45.382655618266966" lon="10.870341538548953"><ele>60.33333333333333</ele><time>2026-04-04T15:26:46Z</time></trkpt><trkpt lat="45.38270525991034" lon="10.87006232490098"><ele>60.0</ele><time>2026-04-04T15:26:47Z</time></trkpt><trkpt lat="45.382755384943515" lon="10.869780966522168"><ele>60.0</ele><time>2026-04-04T15:26:48Z</time></trkpt><trkpt lat="45.38280512745595" lon="10.869499276593212"><ele>60.0</ele><time>2026-04-04T15:26:49Z</time></trkpt><trkpt lat="45.382856809321396" lon="10.869219905916873"><ele>60.0</ele><time>2026-04-04T15:26:50Z</time></trkpt><trkpt lat="45.38290959309798" lon="10.868941954936378"><ele>60.33333333333333</ele><time>2026-04-04T15:26:51Z</time></trkpt><trkpt lat="45.38296072530627" lon="10.868664541139779"><ele>60.666666666666664</ele><time>2026-04-04T15:26:52Z</time></trkpt><trkpt lat="45.3830131546881" lon="10.868389602674577"><ele>61.0</ele><time>2026-04-04T15:26:53Z</time></trkpt><trkpt lat="45.383071313064605" lon="10.868115398064058"><ele>61.0</ele><time>2026-04-04T15:26:54Z</time></trkpt><trkpt lat="45.38313778004441" lon="10.867847205060562"><ele>61.0</ele><time>2026-04-04T15:26:55Z</time></trkpt><trkpt lat="45.38321362179627" lon="10.867582760584508"><ele>61.0</ele><time>2026-04-04T15:26:56Z</time></trkpt><trkpt lat="45.383291978755324" lon="10.867316598542509"><ele>61.0</ele><time>2026-04-04T15:26:57Z</time></trkpt><trkpt lat="45.38336862910434" lon="10.86704224662879"><ele>61.0</ele><time>2026-04-04T15:26:58Z</time></trkpt><trkpt lat="45.38344741743868" lon="10.8667652144614"><ele>61.0</ele><time>2026-04-04T15:26:59Z</time></trkpt><trkpt lat="45.38352811186822" lon="10.866486349811064"><ele>60.666666666666664</ele><time>2026-04-04T15:27:00Z</time></trkpt><trkpt lat="45.38360959360498" lon="10.866207203345814"><ele>60.33333333333333</ele><time>2026-04-04T15:27:01Z</time></trkpt><trkpt lat="45.38369040841325" lon="10.865926906523706"><ele>60.0</ele><time>2026-04-04T15:27:02Z</time></trkpt><trkpt lat="45.383769465797" lon="10.865652764457266"><ele>60.0</ele><time>2026-04-04T15:27:03Z</time></trkpt><trkpt lat="45.38384037224527" lon="10.865396145024887"><ele>60.0</ele><time>2026-04-04T15:27:04Z</time></trkpt><trkpt lat="45.38390852540398" lon="10.86515427191369"><ele>60.0</ele><time>2026-04-04T15:27:05Z</time></trkpt><trkpt lat="45.383973198669885" lon="10.86492738592209"><ele>60.0</ele><time>2026-04-04T15:27:06Z</time></trkpt><trkpt lat="45.38403700862102" lon="10.864711775778762"><ele>60.0</ele><time>2026-04-04T15:27:07Z</time></trkpt><trkpt lat="45.384104286212114" lon="10.864503203082126"><ele>60.0</ele><time>2026-04-04T15:27:08Z</time></trkpt><trkpt lat="45.3841788630106" lon="10.864300205133826"><ele>60.33333333333333</ele><time>2026-04-04T15:27:09Z</time></trkpt><trkpt lat="45.38425899578414" lon="10.864100362294193"><ele>60.666666666666664</ele><time>2026-04-04T15:27:10Z</time></trkpt><trkpt lat="45.38434365786589" lon="10.863905719509495"><ele>61.0</ele><time>2026-04-04T15:27:11Z</time></trkpt><trkpt lat="45.38443694315055" lon="10.863727347863367"><ele>61.0</ele><time>2026-04-04T15:27:12Z</time></trkpt><trkpt lat="45.384545449433745" lon="10.863569852749784"><ele>61.0</ele><time>2026-04-04T15:27:13Z</time></trkpt><trkpt lat="45.38466528353867" lon="10.863418261521938"><ele>61.0</ele><time>2026-04-04T15:27:14Z</time></trkpt><trkpt lat="45.38479343441457" lon="10.863272363089932"><ele>61.666666666666664</ele><time>2026-04-04T15:27:15Z</time></trkpt><trkpt lat="45.38492808910104" lon="10.863128278677936"><ele>62.33333333333333</ele><time>2026-04-04T15:27:16Z</time></trkpt><trkpt lat="45.38506959302179" lon="10.862986035565575"><ele>63.0</ele><time>2026-04-04T15:27:17Z</time></trkpt><trkpt lat="45.38521923796775" lon="10.86285082458348"><ele>63.0</ele><time>2026-04-04T15:27:18Z</time></trkpt><trkpt lat="45.3853782802734" lon="10.862729179941653"><ele>63.0</ele><time>2026-04-04T15:27:19Z</time></trkpt><trkpt lat="45.38554166598111" lon="10.862624555004198"><ele>63.0</ele><time>2026-04-04T15:27:20Z</time></trkpt><trkpt lat="45.38570456083321" lon="10.862543313348285"><ele>63.0</ele><time>2026-04-04T15:27:21Z</time></trkpt><trkpt lat="45.38585702552128" lon="10.862491913213471"><ele>63.0</ele><time>2026-04-04T15:27:22Z</time></trkpt><trkpt lat="45.385992738316254" lon="10.862461533686972"><ele>63.0</ele><time>2026-04-04T15:27:23Z</time></trkpt><trkpt lat="45.38611060236805" lon="10.86243551635021"><ele>63.0</ele><time>2026-04-04T15:27:24Z</time></trkpt><trkpt lat="45.38622092204692" lon="10.862406953604367"><ele>63.0</ele><time>2026-04-04T15:27:25Z</time></trkpt><trkpt lat="45.38633594957486" lon="10.862365701450859"><ele>63.0</ele><time>2026-04-04T15:27:25.999Z</time></trkpt><trkpt lat="45.38646607502382" lon="10.862324893154964"><ele>63.0</ele><time>2026-04-04T15:27:26.999Z</time></trkpt><trkpt lat="45.38661023224837" lon="10.862293389604844"><ele>63.0</ele><time>2026-04-04T15:27:27.999Z</time></trkpt><trkpt lat="45.386767379023354" lon="10.862255361804174"><ele>63.0</ele><time>2026-04-04T15:27:28.999Z</time></trkpt><trkpt lat="45.38693925441843" lon="10.862211038320073"><ele>63.0</ele><time>2026-04-04T15:27:29.999Z</time></trkpt><trkpt lat="45.38712322439305" lon="10.862160724716167"><ele>63.0</ele><time>2026-04-04T15:27:30.999Z</time></trkpt><trkpt lat="45.38731907301271" lon="10.86210498284419"><ele>63.0</ele><time>2026-04-04T15:27:31.999Z</time></trkpt><trkpt lat="45.38752477432656" lon="10.862047171337908"><ele>63.0</ele><time>2026-04-04T15:27:32.999Z</time></trkpt><trkpt lat="45.38773928213778" lon="10.861989557097514"><ele>63.0</ele><time>2026-04-04T15:27:33.999Z</time></trkpt><trkpt lat="45.38796156613959" lon="10.861930134730786"><ele>63.0</ele><time>2026-04-04T15:27:34.999Z</time></trkpt><trkpt lat="45.388189773952256" lon="10.861867458940702"><ele>63.0</ele><time>2026-04-04T15:27:35.999Z</time></trkpt><trkpt lat="45.38841484196482" lon="10.861808742341545"><ele>63.0</ele><time>2026-04-04T15:27:36.999Z</time></trkpt><trkpt lat="45.38864179006991" lon="10.861748773110595"><ele>63.0</ele><time>2026-04-04T15:27:37.999Z</time></trkpt><trkpt lat="45.38886730357633" lon="10.861677908932627"><ele>64.5</ele><time>2026-04-04T15:27:38.999Z</time></trkpt><trkpt lat="45.38909015348793" lon="10.861599986019025"><ele>66.0</ele><time>2026-04-04T15:27:39.999Z</time></trkpt><trkpt lat="45.38930571016577" lon="10.861518291376441"><ele>66.0</ele><time>2026-04-04T15:27:41Z</time></trkpt><trkpt lat="45.38950170377407" lon="10.861439181341975"><ele>66.0</ele><time>2026-04-04T15:27:42Z</time></trkpt><trkpt lat="45.389687016229004" lon="10.861367358220631"><ele>66.0</ele><time>2026-04-04T15:27:43Z</time></trkpt><trkpt lat="45.389862791841935" lon="10.8613077745634"><ele>66.33333333333333</ele><time>2026-04-04T15:27:44Z</time></trkpt><trkpt lat="45.39002900220828" lon="10.86126067613789"><ele>66.66666666666666</ele><time>2026-04-04T15:27:45Z</time></trkpt><trkpt lat="45.39018955311479" lon="10.861218857189899"><ele>67.0</ele><time>2026-04-04T15:27:46Z</time></trkpt><trkpt lat="45.39034066689736" lon="10.861180735216585"><ele>67.0</ele><time>2026-04-04T15:27:47Z</time></trkpt><trkpt lat="45.39047954350209" lon="10.861149473661186"><ele>67.0</ele><time>2026-04-04T15:27:48Z</time></trkpt><trkpt lat="45.39060646450445" lon="10.86114253204735"><ele>67.0</ele><time>2026-04-04T15:27:49Z</time></trkpt><trkpt lat="45.39071980722102" lon="10.861174153666054"><ele>67.0</ele><time>2026-04-04T15:27:50Z</time></trkpt><trkpt lat="45.39082053004635" lon="10.86124081853841"><ele>67.0</ele><time>2026-04-04T15:27:51Z</time></trkpt><trkpt lat="45.39091078539097" lon="10.861339254864975"><ele>67.0</ele><time>2026-04-04T15:27:52Z</time></trkpt><trkpt lat="45.39098363049596" lon="10.86147266703372"><ele>67.0</ele><time>2026-04-04T15:27:53Z</time></trkpt><trkpt lat="45.391037433197646" lon="10.86163464422162"><ele>67.0</ele><time>2026-04-04T15:27:54Z</time></trkpt><trkpt lat="45.391078619365196" lon="10.861819346089504"><ele>66.66666666666666</ele><time>2026-04-04T15:27:55Z</time></trkpt><trkpt lat="45.391125344569794" lon="10.862018172537866"><ele>66.33333333333333</ele><time>2026-04-04T15:27:56Z</time></trkpt><trkpt lat="45.39118026385805" lon="10.86222936975332"><ele>66.0</ele><time>2026-04-04T15:27:57Z</time></trkpt><trkpt lat="45.39123648646178" lon="10.862451947697428"><ele>66.0</ele><time>2026-04-04T15:27:58Z</time></trkpt><trkpt lat="45.391290885755666" lon="10.862673269893563"><ele>66.0</ele><time>2026-04-04T15:27:59Z</time></trkpt><trkpt lat="45.39134028871744" lon="10.862868013007267"><ele>66.0</ele><time>2026-04-04T15:28:00Z</time></trkpt><trkpt lat="45.391384822364174" lon="10.863048900974329"><ele>66.0</ele><time>2026-04-04T15:28:01Z</time></trkpt><trkpt lat="45.391423472481335" lon="10.863217656594554"><ele>66.2</ele><time>2026-04-04T15:28:02Z</time></trkpt><trkpt lat="45.391462000623555" lon="10.863367976953322"><ele>66.39999999999999</ele><time>2026-04-04T15:28:03Z</time></trkpt><trkpt lat="45.39150744792314" lon="10.863487465239816"><ele>66.6</ele><time>2026-04-04T15:28:04Z</time></trkpt><trkpt lat="45.391562618873145" lon="10.863565492439179"><ele>66.8</ele><time>2026-04-04T15:28:05Z</time></trkpt><trkpt lat="45.39163483142603" lon="10.863612900064629"><ele>67.0</ele><time>2026-04-04T15:28:06Z</time></trkpt><trkpt lat="45.39172165650294" lon="10.863632678880844"><ele>67.0</ele><time>2026-04-04T15:28:07Z</time></trkpt><trkpt lat="45.39181934714116" lon="10.863623786328592"><ele>67.0</ele><time>2026-04-04T15:28:08Z</time></trkpt><trkpt lat="45.39192282201247" lon="10.863599922449076"><ele>67.0</ele><time>2026-04-04T15:28:09Z</time></trkpt><trkpt lat="45.39203106766992" lon="10.863565824474296"><ele>67.0</ele><time>2026-04-04T15:28:10Z</time></trkpt><trkpt lat="45.392134457091885" lon="10.86353533993186"><ele>67.0</ele><time>2026-04-04T15:28:11Z</time></trkpt><trkpt lat="45.39223145259288" lon="10.863510259728718"><ele>67.25</ele><time>2026-04-04T15:28:12Z</time></trkpt><trkpt lat="45.392339701725724" lon="10.863484382911457"><ele>67.5</ele><time>2026-04-04T15:28:13Z</time></trkpt><trkpt lat="45.3924738748488" lon="10.863436183045366"><ele>67.75</ele><time>2026-04-04T15:28:14Z</time></trkpt><trkpt lat="45.39262133706556" lon="10.863370440452222"><ele>68.0</ele><time>2026-04-04T15:28:15Z</time></trkpt><trkpt lat="45.39278282073693" lon="10.86328599100016"><ele>68.66666666666667</ele><time>2026-04-04T15:28:16Z</time></trkpt><trkpt lat="45.3929605668744" lon="10.863197246719574"><ele>69.33333333333333</ele><time>2026-04-04T15:28:17Z</time></trkpt><trkpt lat="45.39314837551579" lon="10.863103478390148"><ele>70.0</ele><time>2026-04-04T15:28:18Z</time></trkpt><trkpt lat="45.393335612217825" lon="10.862986744622276"><ele>70.0</ele><time>2026-04-04T15:28:19Z</time></trkpt><trkpt lat="45.39353988392055" lon="10.862889824689269"><ele>70.0</ele><time>2026-04-04T15:28:20Z</time></trkpt><trkpt lat="45.39375098116321" lon="10.862784812458239"><ele>70.0</ele><time>2026-04-04T15:28:21Z</time></trkpt><trkpt lat="45.393963849690074" lon="10.8626792673404"><ele>69.66666666666666</ele><time>2026-04-04T15:28:22Z</time></trkpt><trkpt lat="45.394172405537915" lon="10.862576202824698"><ele>69.33333333333333</ele><time>2026-04-04T15:28:23Z</time></trkpt><trkpt lat="45.39437937286217" lon="10.862475298068132"><ele>69.0</ele><time>2026-04-04T15:28:24Z</time></trkpt><trkpt lat="45.39457386728928" lon="10.862383890626607"><ele>69.66666666666667</ele><time>2026-04-04T15:28:25Z</time></trkpt><trkpt lat="45.39475276507801" lon="10.862300330453749"><ele>70.33333333333334</ele><time>2026-04-04T15:28:26Z</time></trkpt><trkpt lat="45.394920417174994" lon="10.862223619417527"><ele>71.0</ele><time>2026-04-04T15:28:27Z</time></trkpt><trkpt lat="45.39507608170063" lon="10.862151982506097"><ele>71.0</ele><time>2026-04-04T15:28:28Z</time></trkpt><trkpt lat="45.39522016903965" lon="10.86208466998428"><ele>71.0</ele><time>2026-04-04T15:28:29Z</time></trkpt><trkpt lat="45.395354097405125" lon="10.862019836462068"><ele>71.0</ele><time>2026-04-04T15:28:30Z</time></trkpt><trkpt lat="45.39548205822722" lon="10.861970016775677"><ele>71.0</ele><time>2026-04-04T15:28:31Z</time></trkpt><trkpt lat="45.39560738042178" lon="10.861961255798661"><ele>71.5</ele><time>2026-04-04T15:28:32Z</time></trkpt><trkpt lat="45.395733121386314" lon="10.861996430505606"><ele>72.0</ele><time>2026-04-04T15:28:33Z</time></trkpt><trkpt lat="45.395855050247896" lon="10.862074108288638"><ele>72.5</ele><time>2026-04-04T15:28:34Z</time></trkpt><trkpt lat="45.395986894462894" lon="10.862155496343986"><ele>73.0</ele><time>2026-04-04T15:28:35Z</time></trkpt><trkpt lat="45.39612846773239" lon="10.86223231447137"><ele>73.0</ele><time>2026-04-04T15:28:36Z</time></trkpt><trkpt lat="45.39626570412017" lon="10.862303728740438"><ele>73.0</ele><time>2026-04-04T15:28:37Z</time></trkpt><trkpt lat="45.39638671187734" lon="10.862366380252398"><ele>73.0</ele><time>2026-04-04T15:28:38Z</time></trkpt><trkpt lat="45.39648226290683" lon="10.862415636617218"><ele>73.0</ele><time>2026-04-04T15:28:39Z</time></trkpt><trkpt lat="45.3965449215826" lon="10.862444294506188"><ele>73.0</ele><time>2026-04-04T15:28:40Z</time></trkpt><trkpt lat="45.39662615856565" lon="10.862478386984916"><ele>72.75</ele><time>2026-04-04T15:28:43Z</time></trkpt><trkpt lat="45.39670166311136" lon="10.862395010498297"><ele>72.5</ele><time>2026-04-04T15:28:44Z</time></trkpt><trkpt lat="45.39670900746358" lon="10.862226844102102"><ele>72.25</ele><time>2026-04-04T15:28:45Z</time></trkpt><trkpt lat="45.39675315439175" lon="10.862085246946599"><ele>72.0</ele><time>2026-04-04T15:28:46Z</time></trkpt><trkpt lat="45.39680607276899" lon="10.861909906368526"><ele>72.33333333333333</ele><time>2026-04-04T15:28:47Z</time></trkpt><trkpt lat="45.39687054973897" lon="10.861710279381644"><ele>72.66666666666666</ele><time>2026-04-04T15:28:48Z</time></trkpt><trkpt lat="45.39693667372634" lon="10.861501670408426"><ele>73.0</ele><time>2026-04-04T15:28:49Z</time></trkpt><trkpt lat="45.39700380206982" lon="10.861270535254967"><ele>73.0</ele><time>2026-04-04T15:28:50Z</time></trkpt><trkpt lat="45.397073664829946" lon="10.861023086037994"><ele>73.0</ele><time>2026-04-04T15:28:51Z</time></trkpt><trkpt lat="45.39714976016653" lon="10.860764004866931"><ele>73.0</ele><time>2026-04-04T15:28:52Z</time></trkpt><trkpt lat="45.39723505354201" lon="10.860495276829408"><ele>73.33333333333333</ele><time>2026-04-04T15:28:53Z</time></trkpt><trkpt lat="45.397323433835474" lon="10.860213191182766"><ele>73.66666666666667</ele><time>2026-04-04T15:28:54Z</time></trkpt><trkpt lat="45.397411407060105" lon="10.859926419723998"><ele>74.0</ele><time>2026-04-04T15:28:55Z</time></trkpt><trkpt lat="45.39750013896247" lon="10.859632530652648"><ele>74.0</ele><time>2026-04-04T15:28:56Z</time></trkpt><trkpt lat="45.3975912631786" lon="10.859338699020672"><ele>74.0</ele><time>2026-04-04T15:28:57Z</time></trkpt><trkpt lat="45.39768768746204" lon="10.859043509311778"><ele>74.0</ele><time>2026-04-04T15:28:58Z</time></trkpt><trkpt lat="45.397786316710274" lon="10.858751463141024"><ele>74.0</ele><time>2026-04-04T15:28:59Z</time></trkpt><trkpt lat="45.39788402741676" lon="10.858459229017862"><ele>74.0</ele><time>2026-04-04T15:29:00Z</time></trkpt><trkpt lat="45.397978167964844" lon="10.858177032962251"><ele>74.0</ele><time>2026-04-04T15:29:01Z</time></trkpt><trkpt lat="45.39807147249497" lon="10.85790045831831"><ele>74.0</ele><time>2026-04-04T15:29:02Z</time></trkpt><trkpt lat="45.39816373673339" lon="10.857626848842614"><ele>75.0</ele><time>2026-04-04T15:29:03Z</time></trkpt><trkpt lat="45.39825466874062" lon="10.857358305494488"><ele>76.0</ele><time>2026-04-04T15:29:04Z</time></trkpt><trkpt lat="45.39834798341736" lon="10.85709819083913"><ele>77.0</ele><time>2026-04-04T15:29:05Z</time></trkpt><trkpt lat="45.398438780118276" lon="10.85683887453882"><ele>77.33333333333334</ele><time>2026-04-04T15:29:06Z</time></trkpt><trkpt lat="45.39852716892304" lon="10.856579308664942"><ele>77.66666666666667</ele><time>2026-04-04T15:29:07Z</time></trkpt><trkpt lat="45.398619805264325" lon="10.856324298967095"><ele>78.0</ele><time>2026-04-04T15:29:08Z</time></trkpt><trkpt lat="45.39872188169608" lon="10.856077202524203"><ele>78.33333333333333</ele><time>2026-04-04T15:29:09Z</time></trkpt><trkpt lat="45.398827301721134" lon="10.855835213016691"><ele>78.66666666666666</ele><time>2026-04-04T15:29:10Z</time></trkpt><trkpt lat="45.39893148055296" lon="10.85560191798871"><ele>79.0</ele><time>2026-04-04T15:29:11Z</time></trkpt><trkpt lat="45.39903601699644" lon="10.855376710929635"><ele>79.0</ele><time>2026-04-04T15:29:12Z</time></trkpt><trkpt lat="45.3991421549739" lon="10.855154126846372"><ele>79.0</ele><time>2026-04-04T15:29:13Z</time></trkpt><trkpt lat="45.39924907058584" lon="10.854935031732847"><ele>79.0</ele><time>2026-04-04T15:29:14Z</time></trkpt><trkpt lat="45.399358799394385" lon="10.854722357009306"><ele>79.0</ele><time>2026-04-04T15:29:15Z</time></trkpt><trkpt lat="45.39947312016872" lon="10.854519396687357"><ele>79.0</ele><time>2026-04-04T15:29:16Z</time></trkpt><trkpt lat="45.399590521248605" lon="10.854326905943111"><ele>79.0</ele><time>2026-04-04T15:29:17Z</time></trkpt><trkpt lat="45.39970794492319" lon="10.854140097532838"><ele>79.66666666666666</ele><time>2026-04-04T15:29:18Z</time></trkpt><trkpt lat="45.399825541232204" lon="10.853960091927311"><ele>80.33333333333333</ele><time>2026-04-04T15:29:19Z</time></trkpt><trkpt lat="45.39994096533001" lon="10.853788244058904"><ele>81.0</ele><time>2026-04-04T15:29:20Z</time></trkpt><trkpt lat="45.40005710023534" lon="10.853625708001774"><ele>81.0</ele><time>2026-04-04T15:29:21Z</time></trkpt><trkpt lat="45.40017356151122" lon="10.85347098930155"><ele>81.0</ele><time>2026-04-04T15:29:22Z</time></trkpt><trkpt lat="45.4002880829355" lon="10.853319095683764"><ele>81.0</ele><time>2026-04-04T15:29:23Z</time></trkpt><trkpt lat="45.40040048872269" lon="10.853170770482844"><ele>81.0</ele><time>2026-04-04T15:29:24Z</time></trkpt><trkpt lat="45.40051178144882" lon="10.853024303954722"><ele>81.0</ele><time>2026-04-04T15:29:25Z</time></trkpt><trkpt lat="45.40061766570077" lon="10.852884445698397"><ele>81.0</ele><time>2026-04-04T15:29:26Z</time></trkpt><trkpt lat="45.400714574727424" lon="10.852759139731392"><ele>81.0</ele><time>2026-04-04T15:29:27Z</time></trkpt><trkpt lat="45.40080191846973" lon="10.852644642819532"><ele>81.0</ele><time>2026-04-04T15:29:28Z</time></trkpt><trkpt lat="45.400882591611605" lon="10.852532848768615"><ele>81.0</ele><time>2026-04-04T15:29:29Z</time></trkpt><trkpt lat="45.40095861129271" lon="10.852423426104563"><ele>81.0</ele><time>2026-04-04T15:29:30Z</time></trkpt><trkpt lat="45.40103245983816" lon="10.85231176186861"><ele>81.0</ele><time>2026-04-04T15:29:31Z</time></trkpt><trkpt lat="45.4011016784174" lon="10.8521924826784"><ele>81.0</ele><time>2026-04-04T15:29:32Z</time></trkpt><trkpt lat="45.40116799135589" lon="10.852068682472126"><ele>81.0</ele><time>2026-04-04T15:29:33Z</time></trkpt><trkpt lat="45.40123407288165" lon="10.85194696150981"><ele>81.0</ele><time>2026-04-04T15:29:34Z</time></trkpt><trkpt lat="45.40129922076704" lon="10.851832169786816"><ele>81.0</ele><time>2026-04-04T15:29:35Z</time></trkpt><trkpt lat="45.40135867344156" lon="10.8517257565537"><ele>81.0</ele><time>2026-04-04T15:29:36Z</time></trkpt><trkpt lat="45.40140962524532" lon="10.851629545732745"><ele>81.0</ele><time>2026-04-04T15:29:37Z</time></trkpt><trkpt lat="45.40146615689877" lon="10.851565717621984"><ele>81.0</ele><time>2026-04-04T15:29:38Z</time></trkpt><trkpt lat="45.40151112856872" lon="10.851461272827112"><ele>81.0</ele><time>2026-04-04T15:29:40Z</time></trkpt><trkpt lat="45.40158207406804" lon="10.851401658578702"><ele>81.0</ele><time>2026-04-04T15:29:43Z</time></trkpt><trkpt lat="45.40169080026377" lon="10.851344206972318"><ele>81.0</ele><time>2026-04-04T15:29:52Z</time></trkpt><trkpt lat="45.40175587515846" lon="10.851318388328547"><ele>81.0</ele><time>2026-04-04T15:29:53Z</time></trkpt><trkpt lat="45.40183440984627" lon="10.851181954023987"><ele>81.0</ele><time>2026-04-04T15:29:55Z</time></trkpt><trkpt lat="45.401847912971654" lon="10.85106942490779"><ele>81.0</ele><time>2026-04-04T15:29:56Z</time></trkpt><trkpt lat="45.401854698676985" lon="10.85094863607493"><ele>81.0</ele><time>2026-04-04T15:29:57Z</time></trkpt><trkpt lat="45.40191936303178" lon="10.850718264629574"><ele>81.0</ele><time>2026-04-04T15:29:59Z</time></trkpt><trkpt lat="45.40198831187323" lon="10.850597280484454"><ele>81.0</ele><time>2026-04-04T15:30:00Z</time></trkpt><trkpt lat="45.40206587414695" lon="10.850459510792133"><ele>81.25</ele><time>2026-04-04T15:30:01Z</time></trkpt><trkpt lat="45.40215199997608" lon="10.85030592310117"><ele>81.5</ele><time>2026-04-04T15:30:02Z</time></trkpt><trkpt lat="45.40224255403517" lon="10.850145425447623"><ele>81.75</ele><time>2026-04-04T15:30:03Z</time></trkpt><trkpt lat="45.40232994081911" lon="10.850002259312001"><ele>82.0</ele><time>2026-04-04T15:30:04Z</time></trkpt><trkpt lat="45.402423427396734" lon="10.84986939743931"><ele>82.75</ele><time>2026-04-04T15:30:05Z</time></trkpt><trkpt lat="45.40252257398989" lon="10.84973811545378"><ele>83.5</ele><time>2026-04-04T15:30:06Z</time></trkpt><trkpt lat="45.40262250916254" lon="10.849605387584612"><ele>84.25</ele><time>2026-04-04T15:30:07Z</time></trkpt><trkpt lat="45.40272202938507" lon="10.849468738062363"><ele>85.0</ele><time>2026-04-04T15:30:08Z</time></trkpt><trkpt lat="45.402812448686" lon="10.849351574960874"><ele>84.5</ele><time>2026-04-04T15:30:09Z</time></trkpt><trkpt lat="45.40290055911773" lon="10.84923889150797"><ele>84.0</ele><time>2026-04-04T15:30:10Z</time></trkpt><trkpt lat="45.40298727251199" lon="10.849117893384236"><ele>83.5</ele><time>2026-04-04T15:30:11Z</time></trkpt><trkpt lat="45.40307662647771" lon="10.848994418944466"><ele>83.0</ele><time>2026-04-04T15:30:12Z</time></trkpt><trkpt lat="45.40317275001412" lon="10.848872539545782"><ele>83.0</ele><time>2026-04-04T15:30:13Z</time></trkpt><trkpt lat="45.40327111949671" lon="10.84874673144763"><ele>83.0</ele><time>2026-04-04T15:30:14Z</time></trkpt><trkpt lat="45.403370368573626" lon="10.848612452176825"><ele>83.0</ele><time>2026-04-04T15:30:15Z</time></trkpt><trkpt lat="45.403470039326216" lon="10.848474350582862"><ele>83.0</ele><time>2026-04-04T15:30:16Z</time></trkpt><trkpt lat="45.403570637382" lon="10.848338044811841"><ele>83.25</ele><time>2026-04-04T15:30:17Z</time></trkpt><trkpt lat="45.40367139061296" lon="10.848202686757473"><ele>83.5</ele><time>2026-04-04T15:30:18Z</time></trkpt><trkpt lat="45.40376755298338" lon="10.848070810754217"><ele>83.75</ele><time>2026-04-04T15:30:19Z</time></trkpt><trkpt lat="45.403862034330494" lon="10.84793910747301"><ele>84.0</ele><time>2026-04-04T15:30:20Z</time></trkpt><trkpt lat="45.4039540470399" lon="10.847811666785606"><ele>84.0</ele><time>2026-04-04T15:30:21Z</time></trkpt><trkpt lat="45.40404565222027" lon="10.847687606366717"><ele>84.0</ele><time>2026-04-04T15:30:22Z</time></trkpt><trkpt lat="45.40413457546138" lon="10.847565434912385"><ele>84.0</ele><time>2026-04-04T15:30:23Z</time></trkpt><trkpt lat="45.40421862097522" lon="10.847447670984154"><ele>84.0</ele><time>2026-04-04T15:30:24Z</time></trkpt><trkpt lat="45.40430158712899" lon="10.847336412771432"><ele>84.25</ele><time>2026-04-04T15:30:25Z</time></trkpt><trkpt lat="45.40438572695078" lon="10.847224317473735"><ele>84.5</ele><time>2026-04-04T15:30:26Z</time></trkpt><trkpt lat="45.40446932654406" lon="10.847109919145192"><ele>84.75</ele><time>2026-04-04T15:30:27Z</time></trkpt><trkpt lat="45.404551938767916" lon="10.846996978217028"><ele>85.0</ele><time>2026-04-04T15:30:28Z</time></trkpt><trkpt lat="45.40463111497327" lon="10.846885949275709"><ele>85.4</ele><time>2026-04-04T15:30:29Z</time></trkpt><trkpt lat="45.40471946834889" lon="10.846794187787525"><ele>85.8</ele><time>2026-04-04T15:30:30Z</time></trkpt><trkpt lat="45.40478084000678" lon="10.846684198248187"><ele>86.19999999999999</ele><time>2026-04-04T15:30:31Z</time></trkpt><trkpt lat="45.40484516478577" lon="10.84659963069971"><ele>86.6</ele><time>2026-04-04T15:30:32Z</time></trkpt><trkpt lat="45.40490027828622" lon="10.84652785232443"><ele>87.0</ele><time>2026-04-04T15:30:33Z</time></trkpt><trkpt lat="45.404981867077424" lon="10.846433889032893"><ele>87.0</ele><time>2026-04-04T15:30:35Z</time></trkpt><trkpt lat="45.40504823519506" lon="10.84637090548452"><ele>87.0</ele><time>2026-04-04T15:30:38Z</time></trkpt><trkpt lat="45.40514415342052" lon="10.846496867032808"><ele>87.0</ele><time>2026-04-04T15:30:39Z</time></trkpt><trkpt lat="45.40521281262516" lon="10.846537067317318"><ele>87.0</ele><time>2026-04-04T15:30:40Z</time></trkpt><trkpt lat="45.40529472287039" lon="10.846573976071475"><ele>87.0</ele><time>2026-04-04T15:30:41Z</time></trkpt><trkpt lat="45.40536679814" lon="10.846578377581288"><ele>87.0</ele><time>2026-04-04T15:30:42Z</time></trkpt><trkpt lat="45.40544480611441" lon="10.846650277560833"><ele>87.0</ele><time>2026-04-04T15:30:44Z</time></trkpt><trkpt lat="45.40546484318702" lon="10.846817145150048"><ele>87.0</ele><time>2026-04-04T15:30:46Z</time></trkpt><trkpt lat="45.405446606038595" lon="10.846963069025678"><ele>87.0</ele><time>2026-04-04T15:30:48Z</time></trkpt><trkpt lat="45.40583623612341" lon="10.84711982151458"><ele>87.0</ele><time>2026-04-04T15:38:48.001Z</time></trkpt><trkpt lat="45.40591179624536" lon="10.84715834404247"><ele>87.0</ele><time>2026-04-04T15:38:50.001Z</time></trkpt><trkpt lat="45.40602014099122" lon="10.847242115972804"><ele>87.0</ele><time>2026-04-04T15:38:52.001Z</time></trkpt><trkpt lat="45.40609423168957" lon="10.847276847760565"><ele>87.0</ele><time>2026-04-04T15:38:53.001Z</time></trkpt><trkpt lat="45.406173789694755" lon="10.8472886900703"><ele>87.0</ele><time>2026-04-04T15:38:54.001Z</time></trkpt><trkpt lat="45.40624340954507" lon="10.847339101019179"><ele>87.0</ele><time>2026-04-04T15:38:55.001Z</time></trkpt><trkpt lat="45.40630822993039" lon="10.847342456916293"><ele>87.19999999999999</ele><time>2026-04-04T15:38:56.001Z</time></trkpt><trkpt lat="45.40640284267219" lon="10.847386871408267"><ele>87.4</ele><time>2026-04-04T15:38:58.001Z</time></trkpt><trkpt lat="45.406463213631326" lon="10.84743345503468"><ele>87.6</ele><time>2026-04-04T15:39:02.001Z</time></trkpt><trkpt lat="45.4065335835434" lon="10.847273399847703"><ele>87.80000000000001</ele><time>2026-04-04T15:39:04.001Z</time></trkpt><trkpt lat="45.406552199846594" lon="10.847182674923062"><ele>88.0</ele><time>2026-04-04T15:39:05.001Z</time></trkpt><trkpt lat="45.40661448942483" lon="10.84708282593594"><ele>88.0</ele><time>2026-04-04T15:39:07.001Z</time></trkpt><trkpt lat="45.406755963680055" lon="10.847130747635422"><ele>88.0</ele><time>2026-04-04T15:39:11.001Z</time></trkpt><trkpt lat="45.40681631798085" lon="10.847200593484507"><ele>88.0</ele><time>2026-04-04T15:39:12.001Z</time></trkpt><trkpt lat="45.40688995549531" lon="10.847276601040509"><ele>88.0</ele><time>2026-04-04T15:39:13.001Z</time></trkpt><trkpt lat="45.40696426383841" lon="10.847355063730525"><ele>88.0</ele><time>2026-04-04T15:39:14.001Z</time></trkpt><trkpt lat="45.407042797477715" lon="10.847441891747946"><ele>88.0</ele><time>2026-04-04T15:39:15.001Z</time></trkpt><trkpt lat="45.40712610227408" lon="10.847529926752205"><ele>88.0</ele><time>2026-04-04T15:39:16.001Z</time></trkpt><trkpt lat="45.40720884931439" lon="10.847618098109374"><ele>88.0</ele><time>2026-04-04T15:39:17.001Z</time></trkpt><trkpt lat="45.40729135039848" lon="10.847705185518036"><ele>88.0</ele><time>2026-04-04T15:39:18.001Z</time></trkpt><trkpt lat="45.40737161910897" lon="10.847791300683031"><ele>88.0</ele><time>2026-04-04T15:39:19.001Z</time></trkpt><trkpt lat="45.407451750226514" lon="10.847876533290407"><ele>88.4</ele><time>2026-04-04T15:39:20.001Z</time></trkpt><trkpt lat="45.407532494987585" lon="10.847956588802932"><ele>88.80000000000001</ele><time>2026-04-04T15:39:21.001Z</time></trkpt><trkpt lat="45.40761174309144" lon="10.84803476122997"><ele>89.2</ele><time>2026-04-04T15:39:22.001Z</time></trkpt><trkpt lat="45.407686638311255" lon="10.848111668013988"><ele>89.6</ele><time>2026-04-04T15:39:23.001Z</time></trkpt><trkpt lat="45.407762299054426" lon="10.848189640689128"><ele>90.0</ele><time>2026-04-04T15:39:24.001Z</time></trkpt><trkpt lat="45.40783793605261" lon="10.848264241359127"><ele>90.0</ele><time>2026-04-04T15:39:25.001Z</time></trkpt><trkpt lat="45.40791326822211" lon="10.84833895637213"><ele>90.0</ele><time>2026-04-04T15:39:26.001Z</time></trkpt><trkpt lat="45.40798899163586" lon="10.848411424358998"><ele>90.0</ele><time>2026-04-04T15:39:27.001Z</time></trkpt><trkpt lat="45.40806088059226" lon="10.848475594590338"><ele>90.0</ele><time>2026-04-04T15:39:28.001Z</time></trkpt><trkpt lat="45.40813005597851" lon="10.848537106998396"><ele>90.0</ele><time>2026-04-04T15:39:29.001Z</time></trkpt><trkpt lat="45.40819831802306" lon="10.848599821875995"><ele>90.0</ele><time>2026-04-04T15:39:30.001Z</time></trkpt><trkpt lat="45.40826195991238" lon="10.848658631582753"><ele>90.0</ele><time>2026-04-04T15:39:31.001Z</time></trkpt><trkpt lat="45.408327167976864" lon="10.848714734148402"><ele>90.0</ele><time>2026-04-04T15:39:32.001Z</time></trkpt><trkpt lat="45.40839227561622" lon="10.84876495156661"><ele>90.0</ele><time>2026-04-04T15:39:33Z</time></trkpt><trkpt lat="45.40845650690361" lon="10.848811950517316"><ele>90.0</ele><time>2026-04-04T15:39:34Z</time></trkpt><trkpt lat="45.408519993759995" lon="10.848859062804527"><ele>90.0</ele><time>2026-04-04T15:39:35Z</time></trkpt><trkpt lat="45.40857783276292" lon="10.848905641292001"><ele>90.0</ele><time>2026-04-04T15:39:36Z</time></trkpt><trkpt lat="45.40866132681664" lon="10.848988821855809"><ele>90.0</ele><time>2026-04-04T15:39:38Z</time></trkpt><trkpt lat="45.4087190824219" lon="10.849129890356506"><ele>90.0</ele><time>2026-04-04T15:39:40Z</time></trkpt><trkpt lat="45.408759411533524" lon="10.849205466153984"><ele>90.0</ele><time>2026-04-04T15:39:41Z</time></trkpt><trkpt lat="45.408818441638836" lon="10.849252342839652"><ele>90.0</ele><time>2026-04-04T15:39:42Z</time></trkpt><trkpt lat="45.40888501112236" lon="10.84926906364896"><ele>90.0</ele><time>2026-04-04T15:39:43Z</time></trkpt><trkpt lat="45.408953005238615" lon="10.849254039444775"><ele>90.0</ele><time>2026-04-04T15:39:44Z</time></trkpt><trkpt lat="45.40902654291216" lon="10.84924232155438"><ele>90.0</ele><time>2026-04-04T15:39:45Z</time></trkpt><trkpt lat="45.40910772781928" lon="10.849241681776162"><ele>90.0</ele><time>2026-04-04T15:39:46Z</time></trkpt><trkpt lat="45.409190077818145" lon="10.849264060485902"><ele>90.0</ele><time>2026-04-04T15:39:47Z</time></trkpt><trkpt lat="45.409271269691224" lon="10.849304637863938"><ele>90.0</ele><time>2026-04-04T15:39:48Z</time></trkpt><trkpt lat="45.40935770864037" lon="10.849355216665984"><ele>90.0</ele><time>2026-04-04T15:39:49Z</time></trkpt><trkpt lat="45.40945241843097" lon="10.849404171102954"><ele>90.0</ele><time>2026-04-04T15:39:50Z</time></trkpt><trkpt lat="45.40955646043536" lon="10.849451942398208"><ele>90.25</ele><time>2026-04-04T15:39:51Z</time></trkpt><trkpt lat="45.40966663550248" lon="10.849503943741118"><ele>90.5</ele><time>2026-04-04T15:39:52Z</time></trkpt><trkpt lat="45.40978385961963" lon="10.849559032350308"><ele>90.75</ele><time>2026-04-04T15:39:53Z</time></trkpt><trkpt lat="45.409905924588415" lon="10.849618518387377"><ele>91.0</ele><time>2026-04-04T15:39:54Z</time></trkpt><trkpt lat="45.41003204083562" lon="10.84967738007496"><ele>91.0</ele><time>2026-04-04T15:39:55Z</time></trkpt><trkpt lat="45.41015459049243" lon="10.849731555509774"><ele>91.0</ele><time>2026-04-04T15:39:56Z</time></trkpt><trkpt lat="45.41027634022122" lon="10.849785056513063"><ele>91.0</ele><time>2026-04-04T15:39:57Z</time></trkpt><trkpt lat="45.410396568367254" lon="10.849832172136976"><ele>91.0</ele><time>2026-04-04T15:39:58Z</time></trkpt><trkpt lat="45.41050918980398" lon="10.849875990480205"><ele>91.19999999999999</ele><time>2026-04-04T15:39:59Z</time></trkpt><trkpt lat="45.41060614248854" lon="10.849935551870134"><ele>91.39999999999999</ele><time>2026-04-04T15:40:00Z</time></trkpt><trkpt lat="45.41069235034297" lon="10.850017118611087"><ele>91.6</ele><time>2026-04-04T15:40:01.001Z</time></trkpt><trkpt lat="45.41076220643585" lon="10.850118339730237"><ele>91.8</ele><time>2026-04-04T15:40:02.001Z</time></trkpt><trkpt lat="45.41082365627198" lon="10.850243820111915"><ele>92.0</ele><time>2026-04-04T15:40:03.001Z</time></trkpt><trkpt lat="45.41088275640004" lon="10.85038507001822"><ele>91.5</ele><time>2026-04-04T15:40:04.001Z</time></trkpt><trkpt lat="45.410944868589574" lon="10.850531620567981"><ele>91.0</ele><time>2026-04-04T15:40:05Z</time></trkpt><trkpt lat="45.41100920845869" lon="10.850685677383051"><ele>90.5</ele><time>2026-04-04T15:40:06Z</time></trkpt><trkpt lat="45.41107721498776" lon="10.850844224177962"><ele>90.0</ele><time>2026-04-04T15:40:07Z</time></trkpt><trkpt lat="45.41114882601776" lon="10.851009661270188"><ele>90.0</ele><time>2026-04-04T15:40:08Z</time></trkpt><trkpt lat="45.41122031581382" lon="10.851178553705322"><ele>90.0</ele><time>2026-04-04T15:40:09Z</time></trkpt><trkpt lat="45.41128974663227" lon="10.851346170880198"><ele>90.0</ele><time>2026-04-04T15:40:10Z</time></trkpt><trkpt lat="45.411359692302604" lon="10.851512819150736"><ele>90.0</ele><time>2026-04-04T15:40:11Z</time></trkpt><trkpt lat="45.411431584130284" lon="10.851672355533694"><ele>89.75</ele><time>2026-04-04T15:40:12Z</time></trkpt><trkpt lat="45.41151138704337" lon="10.851816266763784"><ele>89.5</ele><time>2026-04-04T15:40:13Z</time></trkpt><trkpt lat="45.41160202141516" lon="10.851943368463633"><ele>89.25</ele><time>2026-04-04T15:40:14Z</time></trkpt><trkpt lat="45.41170563906234" lon="10.852044612509188"><ele>89.0</ele><time>2026-04-04T15:40:15Z</time></trkpt><trkpt lat="45.41181442993634" lon="10.852131695549424"><ele>89.0</ele><time>2026-04-04T15:40:16Z</time></trkpt><trkpt lat="45.41192311085202" lon="10.852214680275418"><ele>89.0</ele><time>2026-04-04T15:40:17Z</time></trkpt><trkpt lat="45.41203503484905" lon="10.852295152915337"><ele>89.0</ele><time>2026-04-04T15:40:18Z</time></trkpt><trkpt lat="45.41214934399172" lon="10.852366135672328"><ele>89.0</ele><time>2026-04-04T15:40:19Z</time></trkpt><trkpt lat="45.412264653045334" lon="10.852431013334904"><ele>89.25</ele><time>2026-04-04T15:40:20Z</time></trkpt><trkpt lat="45.412380384775" lon="10.85248942692518"><ele>89.5</ele><time>2026-04-04T15:40:21Z</time></trkpt><trkpt lat="45.41249423825385" lon="10.852537997376045"><ele>89.75</ele><time>2026-04-04T15:40:22Z</time></trkpt><trkpt lat="45.41260793955198" lon="10.852575953878544"><ele>90.0</ele><time>2026-04-04T15:40:23Z</time></trkpt><trkpt lat="45.412719489470646" lon="10.852608667996568"><ele>89.8</ele><time>2026-04-04T15:40:24Z</time></trkpt><trkpt lat="45.412830622431756" lon="10.852636080842547"><ele>89.6</ele><time>2026-04-04T15:40:25Z</time></trkpt><trkpt lat="45.41293954149836" lon="10.852656553773118"><ele>89.4</ele><time>2026-04-04T15:40:26Z</time></trkpt><trkpt lat="45.41303317742221" lon="10.852675197795339"><ele>89.2</ele><time>2026-04-04T15:40:27Z</time></trkpt><trkpt lat="45.41311183754176" lon="10.852689076582031"><ele>89.0</ele><time>2026-04-04T15:40:28Z</time></trkpt><trkpt lat="45.41321429368714" lon="10.852724817139956"><ele>89.0</ele><time>2026-04-04T15:40:30Z</time></trkpt><trkpt lat="45.41327280068532" lon="10.852760263692872"><ele>89.0</ele><time>2026-04-04T15:40:34Z</time></trkpt><trkpt lat="45.41335832708438" lon="10.852733115862682"><ele>89.0</ele><time>2026-04-04T15:40:58Z</time></trkpt><trkpt lat="45.41343336686792" lon="10.852745990225255"><ele>89.0</ele><time>2026-04-04T15:40:59Z</time></trkpt><trkpt lat="45.41351926681465" lon="10.852757368844353"><ele>89.0</ele><time>2026-04-04T15:41:00Z</time></trkpt><trkpt lat="45.41361100409283" lon="10.852768081912954"><ele>89.0</ele><time>2026-04-04T15:41:01Z</time></trkpt><trkpt lat="45.41370179402275" lon="10.852779660003065"><ele>89.0</ele><time>2026-04-04T15:41:02Z</time></trkpt><trkpt lat="45.41378854994449" lon="10.852794420215883"><ele>89.0</ele><time>2026-04-04T15:41:03Z</time></trkpt><trkpt lat="45.41387140878632" lon="10.85281481914323"><ele>89.0</ele><time>2026-04-04T15:41:04Z</time></trkpt><trkpt lat="45.413937412714496" lon="10.85283584112526"><ele>89.0</ele><time>2026-04-04T15:41:05Z</time></trkpt><trkpt lat="45.41401654158963" lon="10.852903150072821"><ele>89.0</ele><time>2026-04-04T15:41:07Z</time></trkpt><trkpt lat="45.41405970432867" lon="10.852969420254546"><ele>89.0</ele><time>2026-04-04T15:41:22Z</time></trkpt><trkpt lat="45.41410614414151" lon="10.853041289166065"><ele>89.0</ele><time>2026-04-04T15:41:32Z</time></trkpt><trkpt lat="45.41415175643793" lon="10.853119281568508"><ele>89.0</ele><time>2026-04-04T15:41:33Z</time></trkpt><trkpt lat="45.41422032029419" lon="10.853189131820978"><ele>89.0</ele><time>2026-04-04T15:41:34Z</time></trkpt><trkpt lat="45.414295563594024" lon="10.853229020865014"><ele>89.0</ele><time>2026-04-04T15:41:35Z</time></trkpt><trkpt lat="45.414370917528665" lon="10.853240410298243"><ele>89.0</ele><time>2026-04-04T15:41:36Z</time></trkpt><trkpt lat="45.41444907198461" lon="10.853206959961907"><ele>89.0</ele><time>2026-04-04T15:41:37Z</time></trkpt><trkpt lat="45.4145377360844" lon="10.853146404134712"><ele>89.0</ele><time>2026-04-04T15:41:38Z</time></trkpt><trkpt lat="45.41464868961104" lon="10.85307838633115"><ele>89.0</ele><time>2026-04-04T15:41:39Z</time></trkpt><trkpt lat="45.41477281554068" lon="10.853028004008896"><ele>89.0</ele><time>2026-04-04T15:41:40Z</time></trkpt><trkpt lat="45.41490994494344" lon="10.853002778690064"><ele>89.0</ele><time>2026-04-04T15:41:41Z</time></trkpt><trkpt lat="45.415052522726576" lon="10.853011030235086"><ele>88.66666666666667</ele><time>2026-04-04T15:41:42Z</time></trkpt><trkpt lat="45.41519902802866" lon="10.853047315566702"><ele>88.33333333333333</ele><time>2026-04-04T15:41:43Z</time></trkpt><trkpt lat="45.41535096411828" lon="10.853091282164467"><ele>88.0</ele><time>2026-04-04T15:41:44Z</time></trkpt><trkpt lat="45.41550997430922" lon="10.85311190509146"><ele>88.66666666666666</ele><time>2026-04-04T15:41:45Z</time></trkpt><trkpt lat="45.41568733339337" lon="10.853107037541108"><ele>89.33333333333333</ele><time>2026-04-04T15:41:46Z</time></trkpt><trkpt lat="45.415886908620685" lon="10.853089436877982"><ele>90.0</ele><time>2026-04-04T15:41:47Z</time></trkpt><trkpt lat="45.41612681654966" lon="10.853052891550004"><ele>90.0</ele><time>2026-04-04T15:41:48Z</time></trkpt><trkpt lat="45.41636549813404" lon="10.85303208737329"><ele>90.0</ele><time>2026-04-04T15:41:49Z</time></trkpt><trkpt lat="45.41658126825184" lon="10.853019665456154"><ele>90.0</ele><time>2026-04-04T15:41:50Z</time></trkpt><trkpt lat="45.416772953768366" lon="10.852993869509545"><ele>90.0</ele><time>2026-04-04T15:41:51Z</time></trkpt><trkpt lat="45.41694929722008" lon="10.852934624486046"><ele>90.0</ele><time>2026-04-04T15:41:52Z</time></trkpt><trkpt lat="45.417120968181194" lon="10.852837051182044"><ele>90.0</ele><time>2026-04-04T15:41:53Z</time></trkpt><trkpt lat="45.417281058909495" lon="10.85272013562836"><ele>90.0</ele><time>2026-04-04T15:41:54Z</time></trkpt><trkpt lat="45.41742840285953" lon="10.852603407312507"><ele>90.0</ele><time>2026-04-04T15:41:55Z</time></trkpt><trkpt lat="45.41757255003188" lon="10.852497128305888"><ele>90.5</ele><time>2026-04-04T15:41:56Z</time></trkpt><trkpt lat="45.417709761243856" lon="10.852406484775834"><ele>91.0</ele><time>2026-04-04T15:41:57Z</time></trkpt><trkpt lat="45.417840455899515" lon="10.852321848629787"><ele>91.5</ele><time>2026-04-04T15:41:58Z</time></trkpt><trkpt lat="45.41797072161517" lon="10.852240763615356"><ele>92.0</ele><time>2026-04-04T15:41:59Z</time></trkpt><trkpt lat="45.41810232839114" lon="10.852179067295959"><ele>92.0</ele><time>2026-04-04T15:42:00Z</time></trkpt><trkpt lat="45.41823503288581" lon="10.85212819504985"><ele>92.0</ele><time>2026-04-04T15:42:01Z</time></trkpt><trkpt lat="45.41836824511921" lon="10.852086375013213"><ele>92.0</ele><time>2026-04-04T15:42:02Z</time></trkpt><trkpt lat="45.418508949384844" lon="10.852058121286978"><ele>92.0</ele><time>2026-04-04T15:42:03Z</time></trkpt><trkpt lat="45.41864748452071" lon="10.852039769329478"><ele>92.0</ele><time>2026-04-04T15:42:04Z</time></trkpt><trkpt lat="45.41878075836326" lon="10.85202578639157"><ele>92.0</ele><time>2026-04-04T15:42:05Z</time></trkpt><trkpt lat="45.41891474991348" lon="10.852010540987902"><ele>92.0</ele><time>2026-04-04T15:42:06Z</time></trkpt><trkpt lat="45.419054895592936" lon="10.851997084963442"><ele>92.0</ele><time>2026-04-04T15:42:06.999Z</time></trkpt><trkpt lat="45.41920500927731" lon="10.851987476685563"><ele>92.0</ele><time>2026-04-04T15:42:07.999Z</time></trkpt><trkpt lat="45.41937273646191" lon="10.851980773698333"><ele>92.0</ele><time>2026-04-04T15:42:08.999Z</time></trkpt><trkpt lat="45.41955731209457" lon="10.851968434889828"><ele>92.0</ele><time>2026-04-04T15:42:09.999Z</time></trkpt><trkpt lat="45.419751868648646" lon="10.851955428796565"><ele>91.66666666666667</ele><time>2026-04-04T15:42:10.999Z</time></trkpt><trkpt lat="45.4199392216117" lon="10.85192448678194"><ele>91.33333333333333</ele><time>2026-04-04T15:42:11.999Z</time></trkpt><trkpt lat="45.42010682236946" lon="10.85191800068258"><ele>91.0</ele><time>2026-04-04T15:42:12.999Z</time></trkpt><trkpt lat="45.42026801408802" lon="10.851905123330262"><ele>91.0</ele><time>2026-04-04T15:42:13.999Z</time></trkpt><trkpt lat="45.42042469805127" lon="10.851881369115747"><ele>91.0</ele><time>2026-04-04T15:42:14.999Z</time></trkpt><trkpt lat="45.42058311410689" lon="10.851841544810403"><ele>91.0</ele><time>2026-04-04T15:42:15.999Z</time></trkpt><trkpt lat="45.42073783248473" lon="10.851794127928507"><ele>91.66666666666666</ele><time>2026-04-04T15:42:16.999Z</time></trkpt><trkpt lat="45.42088928117766" lon="10.85173847481621"><ele>92.33333333333333</ele><time>2026-04-04T15:42:17.999Z</time></trkpt><trkpt lat="45.42103391469431" lon="10.851665147890614"><ele>93.0</ele><time>2026-04-04T15:42:18.999Z</time></trkpt><trkpt lat="45.42117181152776" lon="10.851579454999646"><ele>93.0</ele><time>2026-04-04T15:42:19.999Z</time></trkpt><trkpt lat="45.42130586724091" lon="10.851482573757023"><ele>93.0</ele><time>2026-04-04T15:42:20.999Z</time></trkpt><trkpt lat="45.42143522407132" lon="10.851379107079131"><ele>93.0</ele><time>2026-04-04T15:42:21.999Z</time></trkpt><trkpt lat="45.42156405997813" lon="10.851268414243979"><ele>93.0</ele><time>2026-04-04T15:42:22.999Z</time></trkpt><trkpt lat="45.421693535133386" lon="10.851154271098597"><ele>93.0</ele><time>2026-04-04T15:42:23.999Z</time></trkpt><trkpt lat="45.42182190678059" lon="10.851043009176317"><ele>93.0</ele><time>2026-04-04T15:42:24.999Z</time></trkpt><trkpt lat="45.42194735992629" lon="10.850937704065755"><ele>93.0</ele><time>2026-04-04T15:42:25.999Z</time></trkpt><trkpt lat="45.422071521352606" lon="10.850836341204664"><ele>93.0</ele><time>2026-04-04T15:42:26.999Z</time></trkpt><trkpt lat="45.4221940225942" lon="10.85073281099749"><ele>93.25</ele><time>2026-04-04T15:42:27.999Z</time></trkpt><trkpt lat="45.42231520386726" lon="10.850629611250266"><ele>93.5</ele><time>2026-04-04T15:42:28.999Z</time></trkpt><trkpt lat="45.422437316076284" lon="10.850528655888947"><ele>93.75</ele><time>2026-04-04T15:42:29.999Z</time></trkpt><trkpt lat="45.42255799126166" lon="10.850429704740733"><ele>94.0</ele><time>2026-04-04T15:42:30.999Z</time></trkpt><trkpt lat="45.4226755700294" lon="10.850333057634638"><ele>94.0</ele><time>2026-04-04T15:42:31.999Z</time></trkpt><trkpt lat="45.42279094639499" lon="10.850237969156707"><ele>94.0</ele><time>2026-04-04T15:42:32.999Z</time></trkpt><trkpt lat="45.42290638593887" lon="10.850143368682708"><ele>94.0</ele><time>2026-04-04T15:42:33.999Z</time></trkpt><trkpt lat="45.423017791166615" lon="10.850049174195053"><ele>94.0</ele><time>2026-04-04T15:42:34.999Z</time></trkpt><trkpt lat="45.42312821364345" lon="10.849953622298568"><ele>94.25</ele><time>2026-04-04T15:42:35.999Z</time></trkpt><trkpt lat="45.42323700933128" lon="10.849860266907276"><ele>94.5</ele><time>2026-04-04T15:42:36.999Z</time></trkpt><trkpt lat="45.4233435658631" lon="10.84976719640363"><ele>94.75</ele><time>2026-04-04T15:42:37.999Z</time></trkpt><trkpt lat="45.42344999003665" lon="10.849671425441302"><ele>95.0</ele><time>2026-04-04T15:42:38.999Z</time></trkpt><trkpt lat="45.42355855582254" lon="10.849576944754268"><ele>95.0</ele><time>2026-04-04T15:42:39.999Z</time></trkpt><trkpt lat="45.42367666541436" lon="10.849466589184484"><ele>95.0</ele><time>2026-04-04T15:42:40.999Z</time></trkpt><trkpt lat="45.42382240952893" lon="10.849357333322999"><ele>95.0</ele><time>2026-04-04T15:42:41.999Z</time></trkpt><trkpt lat="45.42397305149297" lon="10.849222380533416"><ele>95.33333333333334</ele><time>2026-04-04T15:42:42.999Z</time></trkpt><trkpt lat="45.42414705941369" lon="10.849064382490827"><ele>95.66666666666667</ele><time>2026-04-04T15:42:43.999Z</time></trkpt><trkpt lat="45.42432532780176" lon="10.8489025157412"><ele>96.0</ele><time>2026-04-04T15:42:44.999Z</time></trkpt><trkpt lat="45.42451877266845" lon="10.848727065020029"><ele>96.33333333333334</ele><time>2026-04-04T15:42:45.999Z</time></trkpt><trkpt lat="45.42470603035974" lon="10.848562192704756"><ele>96.66666666666667</ele><time>2026-04-04T15:42:46.999Z</time></trkpt><trkpt lat="45.4248742752376" lon="10.848421174729898"><ele>97.0</ele><time>2026-04-04T15:42:47.999Z</time></trkpt><trkpt lat="45.42502362214508" lon="10.848283254022535"><ele>97.75</ele><time>2026-04-04T15:42:48.999Z</time></trkpt><trkpt lat="45.425161469683744" lon="10.848202897777828"><ele>98.5</ele><time>2026-04-04T15:42:49.999Z</time></trkpt><trkpt lat="45.425284466174176" lon="10.848134511800525"><ele>99.25</ele><time>2026-04-04T15:42:50.999Z</time></trkpt><trkpt lat="45.42539990260985" lon="10.848074740890812"><ele>100.0</ele><time>2026-04-04T15:42:51.999Z</time></trkpt><trkpt lat="45.42550225147497" lon="10.848025068886905"><ele>100.0</ele><time>2026-04-04T15:42:52.999Z</time></trkpt><trkpt lat="45.42559899839539" lon="10.847986853208893"><ele>100.0</ele><time>2026-04-04T15:42:53.999Z</time></trkpt><trkpt lat="45.425692918101944" lon="10.847963340937435"><ele>100.0</ele><time>2026-04-04T15:42:54.999Z</time></trkpt><trkpt lat="45.42578736871934" lon="10.847952823094008"><ele>100.0</ele><time>2026-04-04T15:42:55.999Z</time></trkpt><trkpt lat="45.42588444313828" lon="10.847972499673649"><ele>100.0</ele><time>2026-04-04T15:42:56.999Z</time></trkpt><trkpt lat="45.42597291866949" lon="10.848001849118912"><ele>100.0</ele><time>2026-04-04T15:42:57.999Z</time></trkpt><trkpt lat="45.42605354496228" lon="10.847993258035604"><ele>100.0</ele><time>2026-04-04T15:42:58.999Z</time></trkpt><trkpt lat="45.42613057239488" lon="10.847939953550936"><ele>100.0</ele><time>2026-04-04T15:42:59.999Z</time></trkpt><trkpt lat="45.42619825547571" lon="10.847850164112042"><ele>100.0</ele><time>2026-04-04T15:43:00.999Z</time></trkpt><trkpt lat="45.42626878883678" lon="10.84773688568628"><ele>100.0</ele><time>2026-04-04T15:43:01.999Z</time></trkpt><trkpt lat="45.4263607345357" lon="10.8476440102338"><ele>100.2</ele><time>2026-04-04T15:43:02.999Z</time></trkpt><trkpt lat="45.4264560506725" lon="10.847580671781895"><ele>100.4</ele><time>2026-04-04T15:43:03.999Z</time></trkpt><trkpt lat="45.42655175445826" lon="10.847532356855003"><ele>100.6</ele><time>2026-04-04T15:43:04.999Z</time></trkpt><trkpt lat="45.42664873068295" lon="10.847488683441012"><ele>100.8</ele><time>2026-04-04T15:43:05.999Z</time></trkpt><trkpt lat="45.42675455068054" lon="10.847444590791442"><ele>101.0</ele><time>2026-04-04T15:43:06.999Z</time></trkpt><trkpt lat="45.426864960032766" lon="10.847400755592679"><ele>101.0</ele><time>2026-04-04T15:43:07.999Z</time></trkpt><trkpt lat="45.42697389493842" lon="10.8473494780551"><ele>101.0</ele><time>2026-04-04T15:43:08.999Z</time></trkpt><trkpt lat="45.42708957101564" lon="10.84731057734023"><ele>101.0</ele><time>2026-04-04T15:43:09.999Z</time></trkpt><trkpt lat="45.42720771452537" lon="10.847271682652462"><ele>101.0</ele><time>2026-04-04T15:43:10.999Z</time></trkpt><trkpt lat="45.42733242648106" lon="10.847226043862877"><ele>101.0</ele><time>2026-04-04T15:43:11.999Z</time></trkpt><trkpt lat="45.427459741049645" lon="10.84720405224923"><ele>101.0</ele><time>2026-04-04T15:43:12.999Z</time></trkpt><trkpt lat="45.42758701451461" lon="10.847183634634053"><ele>101.0</ele><time>2026-04-04T15:43:13.999Z</time></trkpt><trkpt lat="45.42771242206579" lon="10.847163292054985"><ele>101.0</ele><time>2026-04-04T15:43:14.999Z</time></trkpt><trkpt lat="45.42782914196339" lon="10.847145312456952"><ele>101.0</ele><time>2026-04-04T15:43:15.999Z</time></trkpt><trkpt lat="45.427940508357544" lon="10.847128005071491"><ele>101.0</ele><time>2026-04-04T15:43:16.999Z</time></trkpt><trkpt lat="45.42805552908148" lon="10.847114179695897"><ele>101.0</ele><time>2026-04-04T15:43:17.999Z</time></trkpt><trkpt lat="45.42817169561306" lon="10.847118026400484"><ele>101.0</ele><time>2026-04-04T15:43:18.999Z</time></trkpt><trkpt lat="45.4282894026087" lon="10.847143909307105"><ele>101.25</ele><time>2026-04-04T15:43:19.999Z</time></trkpt><trkpt lat="45.42840928563332" lon="10.847186949705268"><ele>101.5</ele><time>2026-04-04T15:43:20.999Z</time></trkpt><trkpt lat="45.42853067795912" lon="10.847240263787004"><ele>101.75</ele><time>2026-04-04T15:43:21.999Z</time></trkpt><trkpt lat="45.42865393548803" lon="10.847300355308807"><ele>102.0</ele><time>2026-04-04T15:43:22.999Z</time></trkpt><trkpt lat="45.4287773112363" lon="10.847363504447406"><ele>101.5</ele><time>2026-04-04T15:43:23.999Z</time></trkpt><trkpt lat="45.4288995549677" lon="10.847419659876756"><ele>101.0</ele><time>2026-04-04T15:43:24.999Z</time></trkpt><trkpt lat="45.429025164888515" lon="10.847450878873527"><ele>100.5</ele><time>2026-04-04T15:43:25.999Z</time></trkpt><trkpt lat="45.4291562379953" lon="10.847463284681773"><ele>100.0</ele><time>2026-04-04T15:43:26.999Z</time></trkpt><trkpt lat="45.42928913614113" lon="10.84746324389209"><ele>100.0</ele><time>2026-04-04T15:43:27.999Z</time></trkpt><trkpt lat="45.429423276414575" lon="10.847457852495436"><ele>100.0</ele><time>2026-04-04T15:43:28.999Z</time></trkpt><trkpt lat="45.429558554056506" lon="10.847445535945045"><ele>100.0</ele><time>2026-04-04T15:43:29.999Z</time></trkpt><trkpt lat="45.429689703404165" lon="10.847429765000234"><ele>100.0</ele><time>2026-04-04T15:43:30.999Z</time></trkpt><trkpt lat="45.42981762819359" lon="10.847416389148467"><ele>100.25</ele><time>2026-04-04T15:43:31.999Z</time></trkpt><trkpt lat="45.42994745298389" lon="10.847402542601415"><ele>100.5</ele><time>2026-04-04T15:43:32.999Z</time></trkpt><trkpt lat="45.43008207191117" lon="10.847376241383994"><ele>100.75</ele><time>2026-04-04T15:43:33.999Z</time></trkpt><trkpt lat="45.430225191146086" lon="10.8473438305839"><ele>101.0</ele><time>2026-04-04T15:43:34.999Z</time></trkpt><trkpt lat="45.43037279863626" lon="10.8473309172415"><ele>100.75</ele><time>2026-04-04T15:43:35.999Z</time></trkpt><trkpt lat="45.430509533384104" lon="10.847337066903174"><ele>100.5</ele><time>2026-04-04T15:43:36.999Z</time></trkpt><trkpt lat="45.43065492803341" lon="10.847363132210337"><ele>100.25</ele><time>2026-04-04T15:43:37.999Z</time></trkpt><trkpt lat="45.43080855585504" lon="10.847413466394352"><ele>100.0</ele><time>2026-04-04T15:43:38.999Z</time></trkpt><trkpt lat="45.430958284606085" lon="10.847475175374962"><ele>100.0</ele><time>2026-04-04T15:43:39.999Z</time></trkpt><trkpt lat="45.4310942749146" lon="10.84754839358504"><ele>100.0</ele><time>2026-04-04T15:43:40.999Z</time></trkpt><trkpt lat="45.43122850693855" lon="10.847624415481873"><ele>100.0</ele><time>2026-04-04T15:43:41.999Z</time></trkpt><trkpt lat="45.43136323021525" lon="10.847691920788693"><ele>100.0</ele><time>2026-04-04T15:43:42.999Z</time></trkpt><trkpt lat="45.43150322760066" lon="10.847751866361536"><ele>99.75</ele><time>2026-04-04T15:43:43.999Z</time></trkpt><trkpt lat="45.43164069831167" lon="10.847814481196798"><ele>99.5</ele><time>2026-04-04T15:43:44.999Z</time></trkpt><trkpt lat="45.4317764000328" lon="10.847863129597556"><ele>99.25</ele><time>2026-04-04T15:43:45.999Z</time></trkpt><trkpt lat="45.431912314604965" lon="10.847892064457056"><ele>99.0</ele><time>2026-04-04T15:43:46.999Z</time></trkpt><trkpt lat="45.43204640913218" lon="10.847910422648374"><ele>99.0</ele><time>2026-04-04T15:43:47.999Z</time></trkpt><trkpt lat="45.432179416580844" lon="10.84791448162744"><ele>99.0</ele><time>2026-04-04T15:43:48.999Z</time></trkpt><trkpt lat="45.432316514854634" lon="10.847903612506729"><ele>99.0</ele><time>2026-04-04T15:43:49.999Z</time></trkpt><trkpt lat="45.43246489145094" lon="10.847872286475244"><ele>99.0</ele><time>2026-04-04T15:43:50.999Z</time></trkpt><trkpt lat="45.43263549276428" lon="10.84785370144467"><ele>99.0</ele><time>2026-04-04T15:43:51.999Z</time></trkpt><trkpt lat="45.43282527567479" lon="10.847858274551951"><ele>99.0</ele><time>2026-04-04T15:43:52.999Z</time></trkpt><trkpt lat="45.43302375095484" lon="10.847885224771327"><ele>99.0</ele><time>2026-04-04T15:43:53.999Z</time></trkpt><trkpt lat="45.43322126377818" lon="10.847942893356521"><ele>99.66666666666666</ele><time>2026-04-04T15:43:54.999Z</time></trkpt><trkpt lat="45.433419732552004" lon="10.848022134650229"><ele>100.33333333333333</ele><time>2026-04-04T15:43:55.999Z</time></trkpt><trkpt lat="45.43362297829768" lon="10.848120101335079"><ele>101.0</ele><time>2026-04-04T15:43:56.999Z</time></trkpt><trkpt lat="45.43382306168332" lon="10.848233604076043"><ele>101.0</ele><time>2026-04-04T15:43:57.999Z</time></trkpt><trkpt lat="45.4340247402833" lon="10.848353950174523"><ele>101.0</ele><time>2026-04-04T15:43:58.999Z</time></trkpt><trkpt lat="45.43423057805392" lon="10.8484705476493"><ele>101.0</ele><time>2026-04-04T15:43:59.999Z</time></trkpt><trkpt lat="45.43443994676694" lon="10.848583034758924"><ele>100.5</ele><time>2026-04-04T15:44:00.999Z</time></trkpt><trkpt lat="45.4346500731965" lon="10.84869565966004"><ele>100.0</ele><time>2026-04-04T15:44:01.999Z</time></trkpt><trkpt lat="45.434861677424095" lon="10.848814608666302"><ele>100.0</ele><time>2026-04-04T15:44:02.999Z</time></trkpt><trkpt lat="45.43507580481929" lon="10.848931761719314"><ele>100.0</ele><time>2026-04-04T15:44:03.999Z</time></trkpt><trkpt lat="45.43529166282671" lon="10.849043322673637"><ele>101.0</ele><time>2026-04-04T15:44:04.999Z</time></trkpt><trkpt lat="45.43550577121535" lon="10.849157600530118"><ele>102.0</ele><time>2026-04-04T15:44:05.999Z</time></trkpt><trkpt lat="45.435718122818194" lon="10.849272983802102"><ele>101.66666666666666</ele><time>2026-04-04T15:44:06.999Z</time></trkpt><trkpt lat="45.43592442494417" lon="10.84938643583451"><ele>101.33333333333333</ele><time>2026-04-04T15:44:07.999Z</time></trkpt><trkpt lat="45.43612736112351" lon="10.849499788615798"><ele>101.0</ele><time>2026-04-04T15:44:08.999Z</time></trkpt><trkpt lat="45.43632479458784" lon="10.849616530021168"><ele>101.0</ele><time>2026-04-04T15:44:09.999Z</time></trkpt><trkpt lat="45.436516144355224" lon="10.849734501622036"><ele>101.0</ele><time>2026-04-04T15:44:10.999Z</time></trkpt><trkpt lat="45.43669445288765" lon="10.849850098417303"><ele>101.0</ele><time>2026-04-04T15:44:11.999Z</time></trkpt><trkpt lat="45.436860471886845" lon="10.849964303645946"><ele>101.0</ele><time>2026-04-04T15:44:12.999Z</time></trkpt><trkpt lat="45.43701906230419" lon="10.8500841208388"><ele>101.0</ele><time>2026-04-04T15:44:13.999Z</time></trkpt><trkpt lat="45.43717494069142" lon="10.85021424594457"><ele>101.0</ele><time>2026-04-04T15:44:14.999Z</time></trkpt><trkpt lat="45.4373333046142" lon="10.85034965011859"><ele>101.33333333333333</ele><time>2026-04-04T15:44:15.999Z</time></trkpt><trkpt lat="45.43749120685694" lon="10.850482008818046"><ele>101.66666666666666</ele><time>2026-04-04T15:44:16.999Z</time></trkpt><trkpt lat="45.43764420217805" lon="10.850610985824135"><ele>102.0</ele><time>2026-04-04T15:44:17.999Z</time></trkpt><trkpt lat="45.43779235560425" lon="10.850736892739022"><ele>102.0</ele><time>2026-04-04T15:44:18.999Z</time></trkpt><trkpt lat="45.43793015541878" lon="10.850855152071517"><ele>102.0</ele><time>2026-04-04T15:44:19.999Z</time></trkpt><trkpt lat="45.43805829899251" lon="10.850963253612642"><ele>102.0</ele><time>2026-04-04T15:44:20.999Z</time></trkpt><trkpt lat="45.43818201710649" lon="10.851061631643915"><ele>101.0</ele><time>2026-04-04T15:44:21.999Z</time></trkpt><trkpt lat="45.4383023155446" lon="10.85115529766108"><ele>100.0</ele><time>2026-04-04T15:44:22.999Z</time></trkpt><trkpt lat="45.43842132050179" lon="10.851241750002917"><ele>99.0</ele><time>2026-04-04T15:44:23.999Z</time></trkpt><trkpt lat="45.43854022678329" lon="10.85131183037689"><ele>98.0</ele><time>2026-04-04T15:44:24.999Z</time></trkpt><trkpt lat="45.438662165393964" lon="10.851368978679899"><ele>98.0</ele><time>2026-04-04T15:44:25.999Z</time></trkpt><trkpt lat="45.43878105462284" lon="10.851409625093455"><ele>98.0</ele><time>2026-04-04T15:44:26.999Z</time></trkpt><trkpt lat="45.438866273967676" lon="10.851534881112354"><ele>98.0</ele><time>2026-04-04T15:44:27.999Z</time></trkpt><trkpt lat="45.438938990775135" lon="10.851656304454835"><ele>98.0</ele><time>2026-04-04T15:44:28.999Z</time></trkpt><trkpt lat="45.43899872366683" lon="10.851804402771648"><ele>98.25</ele><time>2026-04-04T15:44:29.999Z</time></trkpt><trkpt lat="45.43905155055475" lon="10.851977248350666"><ele>98.5</ele><time>2026-04-04T15:44:30.999Z</time></trkpt><trkpt lat="45.439105570941045" lon="10.852168225068173"><ele>98.75</ele><time>2026-04-04T15:44:31.999Z</time></trkpt><trkpt lat="45.43915908641892" lon="10.852377166150664"><ele>99.0</ele><time>2026-04-04T15:44:32.999Z</time></trkpt><trkpt lat="45.439214291008724" lon="10.852599841886263"><ele>99.66666666666666</ele><time>2026-04-04T15:44:33.999Z</time></trkpt><trkpt lat="45.43927417984297" lon="10.85282975488049"><ele>100.33333333333333</ele><time>2026-04-04T15:44:34.999Z</time></trkpt><trkpt lat="45.43933659825433" lon="10.85306920285076"><ele>101.0</ele><time>2026-04-04T15:44:35.999Z</time></trkpt><trkpt lat="45.43939722075342" lon="10.853305786195513"><ele>100.33333333333333</ele><time>2026-04-04T15:44:36.999Z</time></trkpt><trkpt lat="45.43945559767509" lon="10.853526662365375"><ele>99.66666666666666</ele><time>2026-04-04T15:44:37.999Z</time></trkpt><trkpt lat="45.43951285522337" lon="10.853738906944459"><ele>99.0</ele><time>2026-04-04T15:44:38.999Z</time></trkpt><trkpt lat="45.43956725993954" lon="10.853950848685107"><ele>99.0</ele><time>2026-04-04T15:44:39.999Z</time></trkpt><trkpt lat="45.43962054751417" lon="10.854163907003647"><ele>99.0</ele><time>2026-04-04T15:44:40.999Z</time></trkpt><trkpt lat="45.43967468704133" lon="10.854370415299652"><ele>99.0</ele><time>2026-04-04T15:44:41.999Z</time></trkpt><trkpt lat="45.43972563699847" lon="10.854573365434906"><ele>98.75</ele><time>2026-04-04T15:44:42.999Z</time></trkpt><trkpt lat="45.439771364301066" lon="10.854772409800342"><ele>98.5</ele><time>2026-04-04T15:44:43.999Z</time></trkpt><trkpt lat="45.43981136646573" lon="10.854972589827698"><ele>98.25</ele><time>2026-04-04T15:44:44.999Z</time></trkpt><trkpt lat="45.43984686743887" lon="10.85517428877162"><ele>98.0</ele><time>2026-04-04T15:44:45.999Z</time></trkpt><trkpt lat="45.43988236268623" lon="10.85537963098417"><ele>98.0</ele><time>2026-04-04T15:44:46.999Z</time></trkpt><trkpt lat="45.43991709932071" lon="10.855584637631344"><ele>98.0</ele><time>2026-04-04T15:44:47.999Z</time></trkpt><trkpt lat="45.43995093463527" lon="10.85578940539162"><ele>98.0</ele><time>2026-04-04T15:44:48.999Z</time></trkpt><trkpt lat="45.439984729356" lon="10.855993194449068"><ele>98.0</ele><time>2026-04-04T15:44:49.999Z</time></trkpt><trkpt lat="45.44001863827216" lon="10.856195137249316"><ele>98.0</ele><time>2026-04-04T15:44:50.999Z</time></trkpt><trkpt lat="45.4400534698472" lon="10.856396546778475"><ele>98.0</ele><time>2026-04-04T15:44:51.999Z</time></trkpt><trkpt lat="45.44008751165332" lon="10.856597276265237"><ele>98.0</ele><time>2026-04-04T15:44:52.999Z</time></trkpt><trkpt lat="45.440122786140364" lon="10.85680011876599"><ele>98.0</ele><time>2026-04-04T15:44:53.999Z</time></trkpt><trkpt lat="45.440154889850255" lon="10.857005229862"><ele>98.0</ele><time>2026-04-04T15:44:54.999Z</time></trkpt><trkpt lat="45.44018729593435" lon="10.857212592697719"><ele>98.0</ele><time>2026-04-04T15:44:55.999Z</time></trkpt><trkpt lat="45.44021951175815" lon="10.857423903790817"><ele>98.0</ele><time>2026-04-04T15:44:56.999Z</time></trkpt><trkpt lat="45.44025608973965" lon="10.857639656936888"><ele>98.33333333333333</ele><time>2026-04-04T15:44:57.999Z</time></trkpt><trkpt lat="45.440291595080026" lon="10.857857890196088"><ele>98.66666666666666</ele><time>2026-04-04T15:44:58.999Z</time></trkpt><trkpt lat="45.440320897343625" lon="10.858081644845619"><ele>99.0</ele><time>2026-04-04T15:44:59.999Z</time></trkpt><trkpt lat="45.440345437990295" lon="10.858312851414707"><ele>99.0</ele><time>2026-04-04T15:45:00.999Z</time></trkpt><trkpt lat="45.44036741661599" lon="10.858544944516584"><ele>99.0</ele><time>2026-04-04T15:45:01.999Z</time></trkpt><trkpt lat="45.440388403002196" lon="10.858774287182996"><ele>99.0</ele><time>2026-04-04T15:45:02.999Z</time></trkpt><trkpt lat="45.44041188453616" lon="10.85900044072286"><ele>99.0</ele><time>2026-04-04T15:45:03.999Z</time></trkpt><trkpt lat="45.44043558017919" lon="10.859222457401994"><ele>99.0</ele><time>2026-04-04T15:45:04.999Z</time></trkpt><trkpt lat="45.44045826380693" lon="10.859440044879493"><ele>99.0</ele><time>2026-04-04T15:45:05.999Z</time></trkpt><trkpt lat="45.4404799937838" lon="10.859652550945299"><ele>99.0</ele><time>2026-04-04T15:45:06.999Z</time></trkpt><trkpt lat="45.44050063863708" lon="10.85985931617258"><ele>99.0</ele><time>2026-04-04T15:45:07.999Z</time></trkpt><trkpt lat="45.44052105661922" lon="10.860061047699654"><ele>99.0</ele><time>2026-04-04T15:45:08.999Z</time></trkpt><trkpt lat="45.44054086283972" lon="10.860260331791"><ele>99.0</ele><time>2026-04-04T15:45:09.999Z</time></trkpt><trkpt lat="45.44055954823608" lon="10.860456946430963"><ele>98.75</ele><time>2026-04-04T15:45:10.999Z</time></trkpt><trkpt lat="45.44057898018141" lon="10.860650257744554"><ele>98.5</ele><time>2026-04-04T15:45:11.999Z</time></trkpt><trkpt lat="45.44059681284034" lon="10.860828194983323"><ele>98.25</ele><time>2026-04-04T15:45:12.999Z</time></trkpt><trkpt lat="45.44061377935957" lon="10.860992729565679"><ele>98.0</ele><time>2026-04-04T15:45:13.999Z</time></trkpt><trkpt lat="45.44063173573073" lon="10.861151593649303"><ele>98.0</ele><time>2026-04-04T15:45:14.999Z</time></trkpt><trkpt lat="45.44064906288395" lon="10.861302744223105"><ele>98.0</ele><time>2026-04-04T15:45:15.999Z</time></trkpt><trkpt lat="45.44065855366526" lon="10.861428053684598"><ele>98.0</ele><time>2026-04-04T15:45:16.999Z</time></trkpt><trkpt lat="45.440652158433686" lon="10.861537293754296"><ele>98.0</ele><time>2026-04-04T15:45:17.999Z</time></trkpt><trkpt lat="45.440654150285056" lon="10.8616945182998"><ele>98.0</ele><time>2026-04-04T15:45:19.999Z</time></trkpt><trkpt lat="45.44051402728501" lon="10.861766417665958"><ele>97.99999999999999</ele><time>2026-04-04T15:45:20.999Z</time></trkpt><trkpt lat="45.44043777990075" lon="10.861803181618354"><ele>98.0</ele><time>2026-04-04T15:45:21.999Z</time></trkpt><trkpt lat="45.44035446160709" lon="10.861831297420776"><ele>98.0</ele><time>2026-04-04T15:45:22.999Z</time></trkpt><trkpt lat="45.44026441956111" lon="10.86185575241753"><ele>98.0</ele><time>2026-04-04T15:45:23.999Z</time></trkpt><trkpt lat="45.4401699349747" lon="10.861880103211481"><ele>97.99999999999999</ele><time>2026-04-04T15:45:24.999Z</time></trkpt><trkpt lat="45.44007924933558" lon="10.861905437814494"><ele>98.0</ele><time>2026-04-04T15:45:25.999Z</time></trkpt><trkpt lat="45.43999128105391" lon="10.861931683708804"><ele>97.99999999999999</ele><time>2026-04-04T15:45:26.999Z</time></trkpt><trkpt lat="45.43990673096833" lon="10.861958140689826"><ele>98.0</ele><time>2026-04-04T15:45:27.999Z</time></trkpt><trkpt lat="45.43982626712477" lon="10.861983151662324"><ele>98.0</ele><time>2026-04-04T15:45:28.999Z</time></trkpt><trkpt lat="45.43975576651053" lon="10.862004217869274"><ele>98.0</ele><time>2026-04-04T15:45:29.999Z</time></trkpt><trkpt lat="45.43969177746514" lon="10.86202237362503"><ele>97.99999999999999</ele><time>2026-04-04T15:45:30.999Z</time></trkpt><trkpt lat="45.43962954874232" lon="10.862040301647038"><ele>98.0</ele><time>2026-04-04T15:45:31.999Z</time></trkpt><trkpt lat="45.4395256485848" lon="10.862067020213797"><ele>97.99999999999999</ele><time>2026-04-04T15:45:33.999Z</time></trkpt><trkpt lat="45.43948698321483" lon="10.862208513051039"><ele>98.0</ele><time>2026-04-04T15:45:37.999Z</time></trkpt><trkpt lat="45.439497234697065" lon="10.862306168628555"><ele>98.0</ele><time>2026-04-04T15:45:38.999Z</time></trkpt><trkpt lat="45.43951041354817" lon="10.8624040066851"><ele>98.0</ele><time>2026-04-04T15:45:39.999Z</time></trkpt><trkpt lat="45.43952092902085" lon="10.862498839837503"><ele>97.99999999999999</ele><time>2026-04-04T15:45:40.999Z</time></trkpt><trkpt lat="45.439536769607024" lon="10.862663575991826"><ele>98.0</ele><time>2026-04-04T15:45:42.999Z</time></trkpt><trkpt lat="45.43953905143317" lon="10.862788846858653"><ele>99.66666666666666</ele><time>2026-04-04T15:45:44.999Z</time></trkpt><trkpt lat="45.43968037798804" lon="10.862861768748802"><ele>101.33333333333334</ele><time>2026-04-04T15:45:46.999Z</time></trkpt><trkpt lat="45.43974524830658" lon="10.862902402617223"><ele>103.0</ele><time>2026-04-04T15:45:48.999Z</time></trkpt><trkpt lat="45.44003434900872" lon="10.862851504675804"><ele>103.0</ele><time>2026-04-04T15:55:33.001Z</time></trkpt><trkpt lat="45.44015245208305" lon="10.862825185754899"><ele>103.0</ele><time>2026-04-04T15:55:35.001Z</time></trkpt><trkpt lat="45.44027226604979" lon="10.862794688841705"><ele>103.0</ele><time>2026-04-04T15:55:37.001Z</time></trkpt><trkpt lat="45.44038556808011" lon="10.862771170046623"><ele>103.0</ele><time>2026-04-04T15:55:39.001Z</time></trkpt><trkpt lat="45.44049286333095" lon="10.862760112449715"><ele>102.0</ele><time>2026-04-04T15:55:41.001Z</time></trkpt><trkpt lat="45.440601865547904" lon="10.862775131767911"><ele>101.0</ele><time>2026-04-04T15:55:43.001Z</time></trkpt><trkpt lat="45.44066295285373" lon="10.862802796916817"><ele>100.0</ele><time>2026-04-04T15:55:44.001Z</time></trkpt><trkpt lat="45.44075441195174" lon="10.86281363940794"><ele>99.0</ele><time>2026-04-04T15:55:46.001Z</time></trkpt><trkpt lat="45.440827200614265" lon="10.863007146765973"><ele>98.0</ele><time>2026-04-04T15:55:50.001Z</time></trkpt><trkpt lat="45.44083591122018" lon="10.863134133505968"><ele>98.0</ele><time>2026-04-04T15:55:51.001Z</time></trkpt><trkpt lat="45.44085151331638" lon="10.863287343868063"><ele>98.0</ele><time>2026-04-04T15:55:52.001Z</time></trkpt><trkpt lat="45.44086618020315" lon="10.863443422591631"><ele>98.0</ele><time>2026-04-04T15:55:53.001Z</time></trkpt><trkpt lat="45.44087265500686" lon="10.863600113817338"><ele>98.0</ele><time>2026-04-04T15:55:54.001Z</time></trkpt><trkpt lat="45.44089018282421" lon="10.863745673882768"><ele>98.0</ele><time>2026-04-04T15:55:55.001Z</time></trkpt><trkpt lat="45.44091202206469" lon="10.863893035447933"><ele>98.0</ele><time>2026-04-04T15:55:56.001Z</time></trkpt><trkpt lat="45.44092797463637" lon="10.864029538310987"><ele>98.0</ele><time>2026-04-04T15:55:57.001Z</time></trkpt><trkpt lat="45.44094192357812" lon="10.8641609637809"><ele>98.0</ele><time>2026-04-04T15:55:58.001Z</time></trkpt><trkpt lat="45.44095464686768" lon="10.864292612412816"><ele>98.0</ele><time>2026-04-04T15:55:59Z</time></trkpt><trkpt lat="45.44096674005351" lon="10.8644220247369"><ele>98.0</ele><time>2026-04-04T15:56:00Z</time></trkpt><trkpt lat="45.44097722571749" lon="10.864541609739014"><ele>98.4</ele><time>2026-04-04T15:56:01Z</time></trkpt><trkpt lat="45.4409882440075" lon="10.864687615767199"><ele>98.80000000000001</ele><time>2026-04-04T15:56:03Z</time></trkpt><trkpt lat="45.44099586373832" lon="10.864793413384719"><ele>99.2</ele><time>2026-04-04T15:56:19.001Z</time></trkpt><trkpt lat="45.44099400738884" lon="10.864923971186553"><ele>99.6</ele><time>2026-04-04T15:56:21.001Z</time></trkpt><trkpt lat="45.44101185129054" lon="10.865039871018476"><ele>100.0</ele><time>2026-04-04T15:56:23.001Z</time></trkpt><trkpt lat="45.441032996208826" lon="10.865176985853557"><ele>100.0</ele><time>2026-04-04T15:56:25.001Z</time></trkpt><trkpt lat="45.44105507768418" lon="10.865297905658101"><ele>100.0</ele><time>2026-04-04T15:56:26.001Z</time></trkpt><trkpt lat="45.44105959840125" lon="10.865458970602168"><ele>100.0</ele><time>2026-04-04T15:56:27.001Z</time></trkpt><trkpt lat="45.44107642381429" lon="10.865606017726616"><ele>100.0</ele><time>2026-04-04T15:56:28.001Z</time></trkpt><trkpt lat="45.44110684581092" lon="10.865713284878343"><ele>100.0</ele><time>2026-04-04T15:56:29.001Z</time></trkpt><trkpt lat="45.44113000324576" lon="10.865864907290844"><ele>100.0</ele><time>2026-04-04T15:56:31.001Z</time></trkpt><trkpt lat="45.441138070650474" lon="10.866000437927394"><ele>100.0</ele><time>2026-04-04T15:56:34.001Z</time></trkpt><trkpt lat="45.44115279242524" lon="10.86614328401647"><ele>100.0</ele><time>2026-04-04T15:56:36.001Z</time></trkpt><trkpt lat="45.44122527454192" lon="10.866255230952348"><ele>100.0</ele><time>2026-04-04T15:56:38.001Z</time></trkpt><trkpt lat="45.44135281836155" lon="10.866246412954707"><ele>100.0</ele><time>2026-04-04T15:56:40.001Z</time></trkpt><trkpt lat="45.44142016755781" lon="10.866184910707979"><ele>99.6</ele><time>2026-04-04T15:56:41.001Z</time></trkpt><trkpt lat="45.44151690683917" lon="10.866181180943741"><ele>99.2</ele><time>2026-04-04T15:56:42.001Z</time></trkpt><trkpt lat="45.44161259604205" lon="10.866140943593122"><ele>98.80000000000001</ele><time>2026-04-04T15:56:43.001Z</time></trkpt><trkpt lat="45.44170801537818" lon="10.86609847733717"><ele>98.4</ele><time>2026-04-04T15:56:44.001Z</time></trkpt><trkpt lat="45.44180012691255" lon="10.866058718244808"><ele>98.0</ele><time>2026-04-04T15:56:45.001Z</time></trkpt><trkpt lat="45.44188173787746" lon="10.866020350238726"><ele>98.0</ele><time>2026-04-04T15:56:46.001Z</time></trkpt><trkpt lat="45.44197316334818" lon="10.865982058456396"><ele>98.0</ele><time>2026-04-04T15:56:47Z</time></trkpt><trkpt lat="45.442072990209354" lon="10.865937104343795"><ele>98.0</ele><time>2026-04-04T15:56:48Z</time></trkpt><trkpt lat="45.44218572463442" lon="10.865895322152769"><ele>98.0</ele><time>2026-04-04T15:56:49Z</time></trkpt><trkpt lat="45.442296172625824" lon="10.86585798556649"><ele>98.0</ele><time>2026-04-04T15:56:50Z</time></trkpt><trkpt lat="45.442401710074755" lon="10.865819826128906"><ele>98.2</ele><time>2026-04-04T15:56:51Z</time></trkpt><trkpt lat="45.44250000291196" lon="10.865783930342873"><ele>98.4</ele><time>2026-04-04T15:56:52Z</time></trkpt><trkpt lat="45.442598093565095" lon="10.865746341861094"><ele>98.60000000000001</ele><time>2026-04-04T15:56:53Z</time></trkpt><trkpt lat="45.44269893177448" lon="10.865708254597802"><ele>98.80000000000001</ele><time>2026-04-04T15:56:54Z</time></trkpt><trkpt lat="45.44280034255642" lon="10.865672264677896"><ele>99.0</ele><time>2026-04-04T15:56:55Z</time></trkpt><trkpt lat="45.44290300470468" lon="10.865634797537238"><ele>99.2</ele><time>2026-04-04T15:56:56Z</time></trkpt><trkpt lat="45.44300749181561" lon="10.865596077611576"><ele>99.4</ele><time>2026-04-04T15:56:57Z</time></trkpt><trkpt lat="45.443112971475756" lon="10.865561274777294"><ele>99.6</ele><time>2026-04-04T15:56:58Z</time></trkpt><trkpt lat="45.44321834742261" lon="10.865534099951162"><ele>99.8</ele><time>2026-04-04T15:56:59Z</time></trkpt><trkpt lat="45.44331851473942" lon="10.865502130946842"><ele>100.0</ele><time>2026-04-04T15:57:00Z</time></trkpt><trkpt lat="45.44340626678544" lon="10.865471402320154"><ele>100.0</ele><time>2026-04-04T15:57:01Z</time></trkpt><trkpt lat="45.44350558432508" lon="10.865436887725842"><ele>100.0</ele><time>2026-04-04T15:57:02Z</time></trkpt><trkpt lat="45.443619612238436" lon="10.865402250651943"><ele>100.0</ele><time>2026-04-04T15:57:03Z</time></trkpt><trkpt lat="45.44373940579429" lon="10.865360092955262"><ele>100.0</ele><time>2026-04-04T15:57:04Z</time></trkpt><trkpt lat="45.443840739078006" lon="10.865324241174473"><ele>100.0</ele><time>2026-04-04T15:57:05Z</time></trkpt><trkpt lat="45.44394244568878" lon="10.865289772347024"><ele>99.25</ele><time>2026-04-04T15:57:06Z</time></trkpt><trkpt lat="45.44404927759086" lon="10.86525532307368"><ele>98.5</ele><time>2026-04-04T15:57:07Z</time></trkpt><trkpt lat="45.444156211800305" lon="10.865223442188748"><ele>97.75</ele><time>2026-04-04T15:57:08Z</time></trkpt><trkpt lat="45.44426431335281" lon="10.865192697969471"><ele>97.0</ele><time>2026-04-04T15:57:09Z</time></trkpt><trkpt lat="45.44438485344804" lon="10.865153357189195"><ele>97.0</ele><time>2026-04-04T15:57:10Z</time></trkpt><trkpt lat="45.44452017751491" lon="10.865097080208535"><ele>97.0</ele><time>2026-04-04T15:57:11Z</time></trkpt><trkpt lat="45.44469575043868" lon="10.8650388985091"><ele>97.0</ele><time>2026-04-04T15:57:12Z</time></trkpt><trkpt lat="45.44488424709526" lon="10.864930846131"><ele>97.0</ele><time>2026-04-04T15:57:13Z</time></trkpt><trkpt lat="45.445048216401865" lon="10.864858283891612"><ele>97.0</ele><time>2026-04-04T15:57:14Z</time></trkpt><trkpt lat="45.44518245739858" lon="10.86478648092817"><ele>97.0</ele><time>2026-04-04T15:57:15Z</time></trkpt><trkpt lat="45.445297213931894" lon="10.86470757106442"><ele>97.0</ele><time>2026-04-04T15:57:16Z</time></trkpt><trkpt lat="45.44540562884376" lon="10.86462614462589"><ele>97.6</ele><time>2026-04-04T15:57:17Z</time></trkpt><trkpt lat="45.445510726401366" lon="10.864569323693354"><ele>98.19999999999999</ele><time>2026-04-04T15:57:18Z</time></trkpt><trkpt lat="45.44560766458905" lon="10.86452139433803"><ele>98.8</ele><time>2026-04-04T15:57:19Z</time></trkpt><trkpt lat="45.44569589361186" lon="10.864479085026979"><ele>99.4</ele><time>2026-04-04T15:57:20Z</time></trkpt><trkpt lat="45.445779698526714" lon="10.864457323538755"><ele>100.0</ele><time>2026-04-04T15:57:21Z</time></trkpt><trkpt lat="45.44585948185412" lon="10.8644646576216"><ele>100.0</ele><time>2026-04-04T15:57:22Z</time></trkpt><trkpt lat="45.445939554250394" lon="10.864504013977639"><ele>100.0</ele><time>2026-04-04T15:57:23Z</time></trkpt><trkpt lat="45.446017556148874" lon="10.864568129302933"><ele>100.0</ele><time>2026-04-04T15:57:24Z</time></trkpt><trkpt lat="45.44608697704573" lon="10.86465916386923"><ele>100.0</ele><time>2026-04-04T15:57:25Z</time></trkpt><trkpt lat="45.44614438334931" lon="10.864773598772858"><ele>100.0</ele><time>2026-04-04T15:57:26Z</time></trkpt><trkpt lat="45.446185019153916" lon="10.864911533670973"><ele>100.0</ele><time>2026-04-04T15:57:27Z</time></trkpt><trkpt lat="45.44621062336698" lon="10.865074949514966"><ele>100.0</ele><time>2026-04-04T15:57:28Z</time></trkpt><trkpt lat="45.44622606803355" lon="10.865266550277266"><ele>100.0</ele><time>2026-04-04T15:57:29Z</time></trkpt><trkpt lat="45.4462364050558" lon="10.865483108824794"><ele>100.0</ele><time>2026-04-04T15:57:30Z</time></trkpt><trkpt lat="45.446241470532314" lon="10.865718615819384"><ele>100.33333333333334</ele><time>2026-04-04T15:57:31Z</time></trkpt><trkpt lat="45.44624116711486" lon="10.865958605047256"><ele>100.66666666666666</ele><time>2026-04-04T15:57:32Z</time></trkpt><trkpt lat="45.446240194839426" lon="10.866191463254445"><ele>101.0</ele><time>2026-04-04T15:57:33Z</time></trkpt><trkpt lat="45.44624076139797" lon="10.866426919962857"><ele>101.0</ele><time>2026-04-04T15:57:34Z</time></trkpt><trkpt lat="45.44624378905535" lon="10.86666585839579"><ele>101.0</ele><time>2026-04-04T15:57:35Z</time></trkpt><trkpt lat="45.44624491107664" lon="10.866905425449591"><ele>101.0</ele><time>2026-04-04T15:57:36Z</time></trkpt><trkpt lat="45.44624699691126" lon="10.867143469066653"><ele>100.66666666666666</ele><time>2026-04-04T15:57:37Z</time></trkpt><trkpt lat="45.44624964496691" lon="10.867378443390578"><ele>100.33333333333334</ele><time>2026-04-04T15:57:38Z</time></trkpt><trkpt lat="45.44625193038612" lon="10.86760791855339"><ele>100.0</ele><time>2026-04-04T15:57:39Z</time></trkpt><trkpt lat="45.44625431777125" lon="10.867831884516773"><ele>100.25</ele><time>2026-04-04T15:57:40Z</time></trkpt><trkpt lat="45.44625621028589" lon="10.868050464643808"><ele>100.5</ele><time>2026-04-04T15:57:41Z</time></trkpt><trkpt lat="45.44625877040195" lon="10.868259187530546"><ele>100.75</ele><time>2026-04-04T15:57:42Z</time></trkpt><trkpt lat="45.446262387605245" lon="10.868463441016091"><ele>101.0</ele><time>2026-04-04T15:57:43Z</time></trkpt><trkpt lat="45.44626517380829" lon="10.868668827929874"><ele>101.0</ele><time>2026-04-04T15:57:44Z</time></trkpt><trkpt lat="45.44626682650664" lon="10.868883625796423"><ele>101.0</ele><time>2026-04-04T15:57:45Z</time></trkpt><trkpt lat="45.44626748126344" lon="10.869106288532578"><ele>101.0</ele><time>2026-04-04T15:57:46Z</time></trkpt><trkpt lat="45.446271791083404" lon="10.869333113261472"><ele>101.33333333333333</ele><time>2026-04-04T15:57:47Z</time></trkpt><trkpt lat="45.446274800245426" lon="10.869561722452024"><ele>101.66666666666666</ele><time>2026-04-04T15:57:48Z</time></trkpt><trkpt lat="45.44627564182087" lon="10.869790453446818"><ele>102.0</ele><time>2026-04-04T15:57:49Z</time></trkpt><trkpt lat="45.44627658569675" lon="10.870010604758694"><ele>103.25</ele><time>2026-04-04T15:57:50Z</time></trkpt><trkpt lat="45.446277958898655" lon="10.87022376525593"><ele>104.5</ele><time>2026-04-04T15:57:51Z</time></trkpt><trkpt lat="45.446279920909916" lon="10.870437854106468"><ele>105.75</ele><time>2026-04-04T15:57:52Z</time></trkpt><trkpt lat="45.44628062903224" lon="10.870649431306383"><ele>107.0</ele><time>2026-04-04T15:57:53Z</time></trkpt><trkpt lat="45.44628209372545" lon="10.870858059881314"><ele>106.5</ele><time>2026-04-04T15:57:54Z</time></trkpt><trkpt lat="45.446283131522144" lon="10.871066323493245"><ele>106.0</ele><time>2026-04-04T15:57:55Z</time></trkpt><trkpt lat="45.44628393565953" lon="10.871268473757326"><ele>105.5</ele><time>2026-04-04T15:57:56Z</time></trkpt><trkpt lat="45.446286544800266" lon="10.871464461222871"><ele>105.0</ele><time>2026-04-04T15:57:57Z</time></trkpt><trkpt lat="45.44628987855702" lon="10.871651243539658"><ele>104.75</ele><time>2026-04-04T15:57:58Z</time></trkpt><trkpt lat="45.44628950182271" lon="10.871829707233614"><ele>104.5</ele><time>2026-04-04T15:57:59Z</time></trkpt><trkpt lat="45.446291694547284" lon="10.872007744524213"><ele>104.25</ele><time>2026-04-04T15:58:00Z</time></trkpt><trkpt lat="45.446293234650796" lon="10.872189548374156"><ele>104.0</ele><time>2026-04-04T15:58:01Z</time></trkpt><trkpt lat="45.44629679436892" lon="10.872370899604832"><ele>104.0</ele><time>2026-04-04T15:58:02Z</time></trkpt><trkpt lat="45.446302627606" lon="10.87257357947763"><ele>104.0</ele><time>2026-04-04T15:58:03Z</time></trkpt><trkpt lat="45.44629082614069" lon="10.872819436952968"><ele>104.0</ele><time>2026-04-04T15:58:04Z</time></trkpt><trkpt lat="45.44629313840108" lon="10.873099372390175"><ele>104.33333333333333</ele><time>2026-04-04T15:58:05Z</time></trkpt><trkpt lat="45.44629562909866" lon="10.87340091077503"><ele>104.66666666666666</ele><time>2026-04-04T15:58:06Z</time></trkpt><trkpt lat="45.446297955812376" lon="10.873700412090884"><ele>105.0</ele><time>2026-04-04T15:58:07Z</time></trkpt><trkpt lat="45.44630002922713" lon="10.873971952604178"><ele>105.0</ele><time>2026-04-04T15:58:08Z</time></trkpt><trkpt lat="45.446318211800794" lon="10.874217696629088"><ele>105.0</ele><time>2026-04-04T15:58:09Z</time></trkpt><trkpt lat="45.44631987523749" lon="10.874444715442218"><ele>105.0</ele><time>2026-04-04T15:58:10Z</time></trkpt><trkpt lat="45.44630557033407" lon="10.874697632449566"><ele>104.0</ele><time>2026-04-04T15:58:10.999Z</time></trkpt><trkpt lat="45.446307756679985" lon="10.87498396267563"><ele>103.0</ele><time>2026-04-04T15:58:11.999Z</time></trkpt><trkpt lat="45.44631003466106" lon="10.875282293917467"><ele>102.0</ele><time>2026-04-04T15:58:12.999Z</time></trkpt><trkpt lat="45.44631223247313" lon="10.875570125905679"><ele>101.33333333333334</ele><time>2026-04-04T15:58:13.999Z</time></trkpt><trkpt lat="45.44631419259992" lon="10.87582682994967"><ele>100.66666666666667</ele><time>2026-04-04T15:58:14.999Z</time></trkpt><trkpt lat="45.446329396328416" lon="10.87606535383513"><ele>100.0</ele><time>2026-04-04T15:58:15.999Z</time></trkpt><trkpt lat="45.44632598948146" lon="10.876291990059025"><ele>100.0</ele><time>2026-04-04T15:58:16.999Z</time></trkpt><trkpt lat="45.44632122028016" lon="10.876513224635092"><ele>100.0</ele><time>2026-04-04T15:58:17.999Z</time></trkpt><trkpt lat="45.44631959735488" lon="10.876732787462288"><ele>100.0</ele><time>2026-04-04T15:58:18.999Z</time></trkpt><trkpt lat="45.44632157940655" lon="10.876946876839941"><ele>100.25</ele><time>2026-04-04T15:58:19.999Z</time></trkpt><trkpt lat="45.44632138156759" lon="10.877150687063986"><ele>100.5</ele><time>2026-04-04T15:58:20.999Z</time></trkpt><trkpt lat="45.44632168589682" lon="10.877345332965467"><ele>100.75</ele><time>2026-04-04T15:58:21.999Z</time></trkpt><trkpt lat="45.446323806824424" lon="10.877533763698345"><ele>101.0</ele><time>2026-04-04T15:58:22.999Z</time></trkpt><trkpt lat="45.44632696833398" lon="10.87772292564571"><ele>101.25</ele><time>2026-04-04T15:58:23.999Z</time></trkpt><trkpt lat="45.44632916051931" lon="10.877916399870676"><ele>101.5</ele><time>2026-04-04T15:58:24.999Z</time></trkpt><trkpt lat="45.44633121375659" lon="10.878115237747165"><ele>101.75</ele><time>2026-04-04T15:58:25.999Z</time></trkpt><trkpt lat="45.446332589045404" lon="10.878322550350912"><ele>102.0</ele><time>2026-04-04T15:58:26.999Z</time></trkpt><trkpt lat="45.446333282112604" lon="10.878534654812041"><ele>101.33333333333334</ele><time>2026-04-04T15:58:27.999Z</time></trkpt><trkpt lat="45.446335278146485" lon="10.878750376632512"><ele>100.66666666666667</ele><time>2026-04-04T15:58:28.999Z</time></trkpt><trkpt lat="45.446336721158424" lon="10.87896700676039"><ele>100.0</ele><time>2026-04-04T15:58:29.999Z</time></trkpt><trkpt lat="45.4463372400919" lon="10.879179982790731"><ele>100.0</ele><time>2026-04-04T15:58:30.999Z</time></trkpt><trkpt lat="45.44633756267747" lon="10.879388614635122"><ele>100.0</ele><time>2026-04-04T15:58:31.999Z</time></trkpt><trkpt lat="45.446339072712846" lon="10.879597392062337"><ele>100.0</ele><time>2026-04-04T15:58:32.999Z</time></trkpt><trkpt lat="45.44634176750349" lon="10.879806060470347"><ele>100.0</ele><time>2026-04-04T15:58:33.999Z</time></trkpt><trkpt lat="45.44634324770073" lon="10.880018308182427"><ele>100.33333333333334</ele><time>2026-04-04T15:58:34.999Z</time></trkpt><trkpt lat="45.44634472306477" lon="10.88023296295203"><ele>100.66666666666666</ele><time>2026-04-04T15:58:35.999Z</time></trkpt><trkpt lat="45.446348240240965" lon="10.880449426825125"><ele>101.0</ele><time>2026-04-04T15:58:36.999Z</time></trkpt><trkpt lat="45.44635243947414" lon="10.88066663211951"><ele>101.0</ele><time>2026-04-04T15:58:37.999Z</time></trkpt><trkpt lat="45.44635593469279" lon="10.880884451825692"><ele>101.0</ele><time>2026-04-04T15:58:38.999Z</time></trkpt><trkpt lat="45.44635685375094" lon="10.881101402379187"><ele>101.0</ele><time>2026-04-04T15:58:39.999Z</time></trkpt><trkpt lat="45.44635736942081" lon="10.881315375457612"><ele>100.5</ele><time>2026-04-04T15:58:40.999Z</time></trkpt><trkpt lat="45.44635672490121" lon="10.881521763070117"><ele>100.0</ele><time>2026-04-04T15:58:42Z</time></trkpt><trkpt lat="45.446356081990814" lon="10.881724228896365"><ele>99.5</ele><time>2026-04-04T15:58:43Z</time></trkpt><trkpt lat="45.4463553826976" lon="10.881920851276867"><ele>99.0</ele><time>2026-04-04T15:58:44Z</time></trkpt><trkpt lat="45.44635632845453" lon="10.882112129719404"><ele>99.0</ele><time>2026-04-04T15:58:45Z</time></trkpt><trkpt lat="45.44635849855997" lon="10.88229464671559"><ele>99.0</ele><time>2026-04-04T15:58:46Z</time></trkpt><trkpt lat="45.44635909579028" lon="10.88246470637438"><ele>99.0</ele><time>2026-04-04T15:58:47Z</time></trkpt><trkpt lat="45.44635874509921" lon="10.882622513927389"><ele>99.0</ele><time>2026-04-04T15:58:48Z</time></trkpt><trkpt lat="45.44635970006358" lon="10.88277065376021"><ele>99.2</ele><time>2026-04-04T15:58:49Z</time></trkpt><trkpt lat="45.44636147624297" lon="10.882913990949827"><ele>99.4</ele><time>2026-04-04T15:58:50Z</time></trkpt><trkpt lat="45.44636400815952" lon="10.883060761836349"><ele>99.6</ele><time>2026-04-04T15:58:51Z</time></trkpt><trkpt lat="45.446366300821886" lon="10.883210751613984"><ele>99.8</ele><time>2026-04-04T15:58:52Z</time></trkpt><trkpt lat="45.44636823952609" lon="10.883367937050268"><ele>100.0</ele><time>2026-04-04T15:58:53Z</time></trkpt><trkpt lat="45.446368779184176" lon="10.88353096176622"><ele>100.0</ele><time>2026-04-04T15:58:54Z</time></trkpt><trkpt lat="45.44636981876938" lon="10.883701851136255"><ele>100.0</ele><time>2026-04-04T15:58:55Z</time></trkpt><trkpt lat="45.44637090841894" lon="10.883879042483619"><ele>100.0</ele><time>2026-04-04T15:58:56Z</time></trkpt><trkpt lat="45.4463715572303" lon="10.884062448659824"><ele>100.0</ele><time>2026-04-04T15:58:57Z</time></trkpt><trkpt lat="45.44637333813058" lon="10.884252663695062"><ele>99.75</ele><time>2026-04-04T15:58:58Z</time></trkpt><trkpt lat="45.446373627340414" lon="10.884450047492694"><ele>99.5</ele><time>2026-04-04T15:58:59Z</time></trkpt><trkpt lat="45.446375058236164" lon="10.884652170934325"><ele>99.25</ele><time>2026-04-04T15:59:00Z</time></trkpt><trkpt lat="45.4463756000185" lon="10.884854115305178"><ele>99.0</ele><time>2026-04-04T15:59:01Z</time></trkpt><trkpt lat="45.446375807374956" lon="10.885057158253288"><ele>98.75</ele><time>2026-04-04T15:59:02Z</time></trkpt><trkpt lat="45.44637750877974" lon="10.885260918857693"><ele>98.5</ele><time>2026-04-04T15:59:03Z</time></trkpt><trkpt lat="45.446381271547466" lon="10.885465963500206"><ele>98.25</ele><time>2026-04-04T15:59:04Z</time></trkpt><trkpt lat="45.44638873570896" lon="10.88567013766011"><ele>98.0</ele><time>2026-04-04T15:59:05Z</time></trkpt><trkpt lat="45.44640170747546" lon="10.88587296909014"><ele>97.75</ele><time>2026-04-04T15:59:06Z</time></trkpt><trkpt lat="45.44641848423851" lon="10.886075766884243"><ele>97.5</ele><time>2026-04-04T15:59:07Z</time></trkpt><trkpt lat="45.44643565798336" lon="10.886280163511067"><ele>97.25</ele><time>2026-04-04T15:59:08Z</time></trkpt><trkpt lat="45.4464519902912" lon="10.88648630243959"><ele>97.0</ele><time>2026-04-04T15:59:09Z</time></trkpt><trkpt lat="45.44646446288957" lon="10.886680104649525"><ele>96.5</ele><time>2026-04-04T15:59:10Z</time></trkpt><trkpt lat="45.44647495095246" lon="10.886851973210659"><ele>96.0</ele><time>2026-04-04T15:59:11Z</time></trkpt><trkpt lat="45.44648794858595" lon="10.887030384839493"><ele>95.5</ele><time>2026-04-04T15:59:12Z</time></trkpt><trkpt lat="45.44650371060575" lon="10.88720785371547"><ele>95.0</ele><time>2026-04-04T15:59:13Z</time></trkpt><trkpt lat="45.44651893065495" lon="10.887392410274462"><ele>95.0</ele><time>2026-04-04T15:59:14Z</time></trkpt><trkpt lat="45.446527177542876" lon="10.887586317138918"><ele>95.0</ele><time>2026-04-04T15:59:15Z</time></trkpt><trkpt lat="45.44652941625975" lon="10.887787996069124"><ele>95.0</ele><time>2026-04-04T15:59:16Z</time></trkpt><trkpt lat="45.44654391265385" lon="10.887985090873201"><ele>95.0</ele><time>2026-04-04T15:59:17Z</time></trkpt><trkpt lat="45.446565046694545" lon="10.888170395764565"><ele>95.0</ele><time>2026-04-04T15:59:18Z</time></trkpt><trkpt lat="45.44658100330018" lon="10.88834622584099"><ele>95.0</ele><time>2026-04-04T15:59:19Z</time></trkpt><trkpt lat="45.44658978284276" lon="10.888506403909485"><ele>95.0</ele><time>2026-04-04T15:59:20Z</time></trkpt><trkpt lat="45.44659029753088" lon="10.888662258491538"><ele>95.0</ele><time>2026-04-04T15:59:20.999Z</time></trkpt><trkpt lat="45.44657567203598" lon="10.888810607975293"><ele>95.2</ele><time>2026-04-04T15:59:21.999Z</time></trkpt><trkpt lat="45.446581156681624" lon="10.888943266778067"><ele>95.4</ele><time>2026-04-04T15:59:22.999Z</time></trkpt><trkpt lat="45.446493544641335" lon="10.889063908838953"><ele>95.6</ele><time>2026-04-04T15:59:23.999Z</time></trkpt><trkpt lat="45.44643039538232" lon="10.889167424016783"><ele>95.8</ele><time>2026-04-04T15:59:24.999Z</time></trkpt><trkpt lat="45.44634850759823" lon="10.889273897455112"><ele>96.0</ele><time>2026-04-04T15:59:25.999Z</time></trkpt><trkpt lat="45.446249744044536" lon="10.889375946161707"><ele>95.5</ele><time>2026-04-04T15:59:26.999Z</time></trkpt><trkpt lat="45.44613465620109" lon="10.889482593867344"><ele>95.0</ele><time>2026-04-04T15:59:27.999Z</time></trkpt><trkpt lat="45.446016529512875" lon="10.88959670613323"><ele>94.5</ele><time>2026-04-04T15:59:28.999Z</time></trkpt><trkpt lat="45.44590604078284" lon="10.889714677425475"><ele>94.0</ele><time>2026-04-04T15:59:29.999Z</time></trkpt><trkpt lat="45.44579418580816" lon="10.889833322869066"><ele>94.0</ele><time>2026-04-04T15:59:30.999Z</time></trkpt><trkpt lat="45.44567976263784" lon="10.889953605339615"><ele>94.0</ele><time>2026-04-04T15:59:31.999Z</time></trkpt><trkpt lat="45.44555621720822" lon="10.890088949985103"><ele>94.0</ele><time>2026-04-04T15:59:32.999Z</time></trkpt><trkpt lat="45.4454337647925" lon="10.890243968152877"><ele>93.66666666666666</ele><time>2026-04-04T15:59:33.999Z</time></trkpt><trkpt lat="45.44531254537093" lon="10.890422866489796"><ele>93.33333333333333</ele><time>2026-04-04T15:59:34.999Z</time></trkpt><trkpt lat="45.44518919024558" lon="10.89061792145701"><ele>93.0</ele><time>2026-04-04T15:59:35.999Z</time></trkpt><trkpt lat="45.44505799013868" lon="10.890814786522283"><ele>93.0</ele><time>2026-04-04T15:59:36.999Z</time></trkpt><trkpt lat="45.44491920110543" lon="10.891004640783049"><ele>93.0</ele><time>2026-04-04T15:59:37.999Z</time></trkpt><trkpt lat="45.44478143927341" lon="10.891189941789632"><ele>93.0</ele><time>2026-04-04T15:59:38.999Z</time></trkpt><trkpt lat="45.444646951610274" lon="10.891372602657741"><ele>92.66666666666667</ele><time>2026-04-04T15:59:39.999Z</time></trkpt><trkpt lat="45.44451466547173" lon="10.891561168939969"><ele>92.33333333333334</ele><time>2026-04-04T15:59:40.999Z</time></trkpt><trkpt lat="45.44438147310362" lon="10.891748907023722"><ele>92.0</ele><time>2026-04-04T15:59:41.999Z</time></trkpt><trkpt lat="45.44424796489895" lon="10.891934090992883"><ele>92.0</ele><time>2026-04-04T15:59:42.999Z</time></trkpt><trkpt lat="45.4441122670676" lon="10.892120040464537"><ele>92.0</ele><time>2026-04-04T15:59:43.999Z</time></trkpt><trkpt lat="45.44397620889935" lon="10.892309099699393"><ele>92.0</ele><time>2026-04-04T15:59:44.999Z</time></trkpt><trkpt lat="45.44383824391511" lon="10.892500760133318"><ele>91.33333333333334</ele><time>2026-04-04T15:59:45.999Z</time></trkpt><trkpt lat="45.443699856683" lon="10.892693561517913"><ele>90.66666666666667</ele><time>2026-04-04T15:59:46.999Z</time></trkpt><trkpt lat="45.443560404102065" lon="10.89288479441596"><ele>90.0</ele><time>2026-04-04T15:59:47.999Z</time></trkpt><trkpt lat="45.443425834156734" lon="10.893071188087015"><ele>90.0</ele><time>2026-04-04T15:59:48.999Z</time></trkpt><trkpt lat="45.44330023179386" lon="10.893244781052497"><ele>90.0</ele><time>2026-04-04T15:59:49.999Z</time></trkpt><trkpt lat="45.44318346289926" lon="10.89341567769484"><ele>90.0</ele><time>2026-04-04T15:59:50.999Z</time></trkpt><trkpt lat="45.44306943277768" lon="10.89358314096256"><ele>90.0</ele><time>2026-04-04T15:59:51.999Z</time></trkpt><trkpt lat="45.442951586450974" lon="10.893765861188582"><ele>90.0</ele><time>2026-04-04T15:59:52.999Z</time></trkpt><trkpt lat="45.44282834254108" lon="10.893969109758823"><ele>90.0</ele><time>2026-04-04T15:59:53.999Z</time></trkpt><trkpt lat="45.44269435530903" lon="10.894185520444713"><ele>90.0</ele><time>2026-04-04T15:59:54.999Z</time></trkpt><trkpt lat="45.4425505409395" lon="10.894411319662025"><ele>90.0</ele><time>2026-04-04T15:59:55.999Z</time></trkpt><trkpt lat="45.442399097522994" lon="10.894657176732494"><ele>90.0</ele><time>2026-04-04T15:59:56.999Z</time></trkpt><trkpt lat="45.44224123648796" lon="10.894911927856585"><ele>90.5</ele><time>2026-04-04T15:59:57.999Z</time></trkpt><trkpt lat="45.44208134421545" lon="10.895155489134984"><ele>91.0</ele><time>2026-04-04T15:59:58.999Z</time></trkpt><trkpt lat="45.44192505299411" lon="10.895385009666171"><ele>91.0</ele><time>2026-04-04T15:59:59.999Z</time></trkpt><trkpt lat="45.44177572528261" lon="10.89560530233979"><ele>91.0</ele><time>2026-04-04T16:00:00.999Z</time></trkpt><trkpt lat="45.44163153825358" lon="10.895819428258447"><ele>91.0</ele><time>2026-04-04T16:00:01.999Z</time></trkpt><trkpt lat="45.44136451321545" lon="10.896217097524442"><ele>91.0</ele><time>2026-04-04T16:00:03.999Z</time></trkpt><trkpt lat="45.44123361820091" lon="10.89641045899982"><ele>91.0</ele><time>2026-04-04T16:00:04.999Z</time></trkpt><trkpt lat="45.44110281507079" lon="10.896602740600741"><ele>91.0</ele><time>2026-04-04T16:00:05.999Z</time></trkpt><trkpt lat="45.44096980014456" lon="10.896798502886075"><ele>90.33333333333333</ele><time>2026-04-04T16:00:06.999Z</time></trkpt><trkpt lat="45.440832775709985" lon="10.897000535676026"><ele>89.66666666666667</ele><time>2026-04-04T16:00:07.999Z</time></trkpt><trkpt lat="45.44069488940178" lon="10.897209347500755"><ele>89.0</ele><time>2026-04-04T16:00:08.999Z</time></trkpt><trkpt lat="45.44055307625989" lon="10.897424130804865"><ele>89.66666666666667</ele><time>2026-04-04T16:00:09.999Z</time></trkpt><trkpt lat="45.4404140658905" lon="10.897631923994282"><ele>90.33333333333333</ele><time>2026-04-04T16:00:10.999Z</time></trkpt><trkpt lat="45.44027690026948" lon="10.897832743520858"><ele>91.0</ele><time>2026-04-04T16:00:11.999Z</time></trkpt><trkpt lat="45.44013935016482" lon="10.89804176273042"><ele>91.0</ele><time>2026-04-04T16:00:12.999Z</time></trkpt><trkpt lat="45.43999820429954" lon="10.898252414217163"><ele>91.0</ele><time>2026-04-04T16:00:13.999Z</time></trkpt><trkpt lat="45.439853698570374" lon="10.898464525498719"><ele>91.0</ele><time>2026-04-04T16:00:14.999Z</time></trkpt><trkpt lat="45.439707373093434" lon="10.898680610080559"><ele>91.33333333333333</ele><time>2026-04-04T16:00:15.999Z</time></trkpt><trkpt lat="45.43955986838964" lon="10.898902424670034"><ele>91.66666666666667</ele><time>2026-04-04T16:00:16.998Z</time></trkpt><trkpt lat="45.43940926800311" lon="10.899126464792106"><ele>92.0</ele><time>2026-04-04T16:00:17.998Z</time></trkpt><trkpt lat="45.43926221423347" lon="10.89934871998608"><ele>91.66666666666667</ele><time>2026-04-04T16:00:18.998Z</time></trkpt><trkpt lat="45.43910896791644" lon="10.899574699786895"><ele>91.33333333333333</ele><time>2026-04-04T16:00:19.998Z</time></trkpt><trkpt lat="45.43895552943928" lon="10.899799552419202"><ele>91.0</ele><time>2026-04-04T16:00:20.998Z</time></trkpt><trkpt lat="45.438797993376504" lon="10.900027166855876"><ele>90.5</ele><time>2026-04-04T16:00:21.998Z</time></trkpt><trkpt lat="45.4386419931179" lon="10.900257675130106"><ele>90.0</ele><time>2026-04-04T16:00:22.998Z</time></trkpt><trkpt lat="45.43848555147323" lon="10.900490319186561"><ele>90.0</ele><time>2026-04-04T16:00:23.998Z</time></trkpt><trkpt lat="45.43833262001079" lon="10.900720421896956"><ele>90.0</ele><time>2026-04-04T16:00:24.998Z</time></trkpt><trkpt lat="45.43818025701077" lon="10.90093388885443"><ele>90.0</ele><time>2026-04-04T16:00:25.999Z</time></trkpt><trkpt lat="45.43802921063474" lon="10.901140226699967"><ele>90.33333333333333</ele><time>2026-04-04T16:00:26.999Z</time></trkpt><trkpt lat="45.43788958561608" lon="10.901336050700936"><ele>90.66666666666666</ele><time>2026-04-04T16:00:27.999Z</time></trkpt><trkpt lat="45.437753405107486" lon="10.901529635236617"><ele>91.0</ele><time>2026-04-04T16:00:28.999Z</time></trkpt><trkpt lat="45.43762571591964" lon="10.901714788375974"><ele>90.33333333333333</ele><time>2026-04-04T16:00:29.999Z</time></trkpt><trkpt lat="45.43749977248072" lon="10.901899285389801"><ele>89.66666666666667</ele><time>2026-04-04T16:00:30.999Z</time></trkpt><trkpt lat="45.43737293100969" lon="10.902088187629747"><ele>89.0</ele><time>2026-04-04T16:00:31.999Z</time></trkpt><trkpt lat="45.43724405757863" lon="10.90227731494172"><ele>89.0</ele><time>2026-04-04T16:00:32.999Z</time></trkpt><trkpt lat="45.43711478362073" lon="10.902466759544883"><ele>89.0</ele><time>2026-04-04T16:00:33.999Z</time></trkpt><trkpt lat="45.43698755880182" lon="10.902651966547326"><ele>89.0</ele><time>2026-04-04T16:00:34.999Z</time></trkpt><trkpt lat="45.4368689346361" lon="10.902825958017468"><ele>89.0</ele><time>2026-04-04T16:00:35.999Z</time></trkpt><trkpt lat="45.43675914769148" lon="10.902988581782889"><ele>89.0</ele><time>2026-04-04T16:00:36.999Z</time></trkpt><trkpt lat="45.436655461463374" lon="10.90314187587563"><ele>89.0</ele><time>2026-04-04T16:00:37.999Z</time></trkpt><trkpt lat="45.4365547857091" lon="10.903290006111128"><ele>89.0</ele><time>2026-04-04T16:00:38.999Z</time></trkpt><trkpt lat="45.43645813647897" lon="10.903431585558131"><ele>89.0</ele><time>2026-04-04T16:00:39.999Z</time></trkpt><trkpt lat="45.4363647234465" lon="10.903568666348443"><ele>89.0</ele><time>2026-04-04T16:00:40.999Z</time></trkpt><trkpt lat="45.43627299763262" lon="10.903706207499171"><ele>89.0</ele><time>2026-04-04T16:00:41.999Z</time></trkpt><trkpt lat="45.43618021660361" lon="10.903842528362947"><ele>89.0</ele><time>2026-04-04T16:00:42.999Z</time></trkpt><trkpt lat="45.43609061511411" lon="10.903971145588939"><ele>89.0</ele><time>2026-04-04T16:00:43.999Z</time></trkpt><trkpt lat="45.43600418048116" lon="10.904092405671188"><ele>89.0</ele><time>2026-04-04T16:00:44.999Z</time></trkpt><trkpt lat="45.435919825173215" lon="10.904208280795432"><ele>89.0</ele><time>2026-04-04T16:00:45.999Z</time></trkpt><trkpt lat="45.435838523815995" lon="10.904323069939872"><ele>89.0</ele><time>2026-04-04T16:00:46.999Z</time></trkpt><trkpt lat="45.43575830440401" lon="10.904438749095208"><ele>89.0</ele><time>2026-04-04T16:00:47.999Z</time></trkpt><trkpt lat="45.43567984856116" lon="10.904551474760641"><ele>89.0</ele><time>2026-04-04T16:00:48.999Z</time></trkpt><trkpt lat="45.43560099115949" lon="10.904666909512503"><ele>89.0</ele><time>2026-04-04T16:00:49.999Z</time></trkpt><trkpt lat="45.43552270609445" lon="10.904782168434178"><ele>89.25</ele><time>2026-04-04T16:00:50.999Z</time></trkpt><trkpt lat="45.435442072616574" lon="10.904898560862366"><ele>89.5</ele><time>2026-04-04T16:00:51.999Z</time></trkpt><trkpt lat="45.43535906390619" lon="10.905017811896284"><ele>89.75</ele><time>2026-04-04T16:00:52.999Z</time></trkpt><trkpt lat="45.435275642315474" lon="10.905140061089801"><ele>90.0</ele><time>2026-04-04T16:00:53.999Z</time></trkpt><trkpt lat="45.43519270513984" lon="10.90526247672538"><ele>89.5</ele><time>2026-04-04T16:00:54.999Z</time></trkpt><trkpt lat="45.43511007513199" lon="10.905377290667252"><ele>89.0</ele><time>2026-04-04T16:00:55.999Z</time></trkpt><trkpt lat="45.43502082244476" lon="10.905476331744877"><ele>88.5</ele><time>2026-04-04T16:00:56.999Z</time></trkpt><trkpt lat="45.43492001347797" lon="10.905559071102275"><ele>88.0</ele><time>2026-04-04T16:00:57.999Z</time></trkpt><trkpt lat="45.4348115890923" lon="10.905628810006341"><ele>88.0</ele><time>2026-04-04T16:00:58.999Z</time></trkpt><trkpt lat="45.43470282974454" lon="10.905687398657829"><ele>88.0</ele><time>2026-04-04T16:00:59.999Z</time></trkpt><trkpt lat="45.434594275764844" lon="10.90574048019699"><ele>88.0</ele><time>2026-04-04T16:01:00.999Z</time></trkpt><trkpt lat="45.434487395140984" lon="10.905793951217573"><ele>88.0</ele><time>2026-04-04T16:01:01.999Z</time></trkpt><trkpt lat="45.434377104162195" lon="10.905857739210246"><ele>88.5</ele><time>2026-04-04T16:01:02.999Z</time></trkpt><trkpt lat="45.434270924160316" lon="10.905925582457673"><ele>89.0</ele><time>2026-04-04T16:01:03.999Z</time></trkpt><trkpt lat="45.434165980180985" lon="10.906005887135834"><ele>89.5</ele><time>2026-04-04T16:01:04.999Z</time></trkpt><trkpt lat="45.43406087170045" lon="10.906097617456384"><ele>90.0</ele><time>2026-04-04T16:01:05.999Z</time></trkpt><trkpt lat="45.433957593791455" lon="10.906199966321365"><ele>90.0</ele><time>2026-04-04T16:01:06.999Z</time></trkpt><trkpt lat="45.433856183366636" lon="10.9063153193201"><ele>90.0</ele><time>2026-04-04T16:01:07.999Z</time></trkpt><trkpt lat="45.43376176041883" lon="10.906441872934797"><ele>90.0</ele><time>2026-04-04T16:01:08.999Z</time></trkpt><trkpt lat="45.4336779628295" lon="10.906580355373254"><ele>90.0</ele><time>2026-04-04T16:01:09.999Z</time></trkpt><trkpt lat="45.43359986066155" lon="10.906726496138415"><ele>89.25</ele><time>2026-04-04T16:01:10.999Z</time></trkpt><trkpt lat="45.43352695486565" lon="10.90688281940251"><ele>88.5</ele><time>2026-04-04T16:01:11.999Z</time></trkpt><trkpt lat="45.43345910696638" lon="10.907045969759396"><ele>87.75</ele><time>2026-04-04T16:01:12.999Z</time></trkpt><trkpt lat="45.43339387313076" lon="10.907207107410864"><ele>87.0</ele><time>2026-04-04T16:01:13.999Z</time></trkpt><trkpt lat="45.433328052297234" lon="10.907366105422152"><ele>87.0</ele><time>2026-04-04T16:01:14.999Z</time></trkpt><trkpt lat="45.4332625157253" lon="10.907521269063572"><ele>87.0</ele><time>2026-04-04T16:01:15.999Z</time></trkpt><trkpt lat="45.43319392006827" lon="10.907675413346336"><ele>87.0</ele><time>2026-04-04T16:01:16.999Z</time></trkpt><trkpt lat="45.43311869624852" lon="10.907824092875371"><ele>87.0</ele><time>2026-04-04T16:01:17.999Z</time></trkpt><trkpt lat="45.43303567046996" lon="10.907963491772353"><ele>87.0</ele><time>2026-04-04T16:01:18.999Z</time></trkpt><trkpt lat="45.4329464109427" lon="10.908098444174877"><ele>87.0</ele><time>2026-04-04T16:01:19.999Z</time></trkpt><trkpt lat="45.43284649752332" lon="10.908233445242942"><ele>87.0</ele><time>2026-04-04T16:01:20.999Z</time></trkpt><trkpt lat="45.43273934834913" lon="10.908365106324855"><ele>87.0</ele><time>2026-04-04T16:01:21.999Z</time></trkpt><trkpt lat="45.43262418216533" lon="10.908494063885207"><ele>87.0</ele><time>2026-04-04T16:01:22.999Z</time></trkpt><trkpt lat="45.43249924037718" lon="10.908617503440842"><ele>87.0</ele><time>2026-04-04T16:01:23.999Z</time></trkpt><trkpt lat="45.43236745068718" lon="10.908733047624018"><ele>87.0</ele><time>2026-04-04T16:01:24.999Z</time></trkpt><trkpt lat="45.432225945534924" lon="10.908845045274365"><ele>85.66666666666667</ele><time>2026-04-04T16:01:25.999Z</time></trkpt><trkpt lat="45.43207623532509" lon="10.908951278390886"><ele>84.33333333333334</ele><time>2026-04-04T16:01:26.999Z</time></trkpt><trkpt lat="45.43192433635996" lon="10.909056586960787"><ele>83.0</ele><time>2026-04-04T16:01:27.999Z</time></trkpt><trkpt lat="45.43177228778716" lon="10.909168603255868"><ele>83.0</ele><time>2026-04-04T16:01:28.999Z</time></trkpt><trkpt lat="45.431617226366356" lon="10.909283907411636"><ele>83.0</ele><time>2026-04-04T16:01:29.999Z</time></trkpt><trkpt lat="45.43145859547466" lon="10.909399584749721"><ele>83.0</ele><time>2026-04-04T16:01:30.999Z</time></trkpt><trkpt lat="45.43130204498915" lon="10.909514323010207"><ele>83.0</ele><time>2026-04-04T16:01:31.999Z</time></trkpt><trkpt lat="45.43114641140437" lon="10.90962724196604"><ele>83.0</ele><time>2026-04-04T16:01:32.999Z</time></trkpt><trkpt lat="45.43098619893083" lon="10.909742064451056"><ele>83.0</ele><time>2026-04-04T16:01:33.999Z</time></trkpt><trkpt lat="45.43081995099533" lon="10.909859909044513"><ele>83.0</ele><time>2026-04-04T16:01:34.999Z</time></trkpt><trkpt lat="45.43064389064834" lon="10.909983383371104"><ele>83.0</ele><time>2026-04-04T16:01:35.999Z</time></trkpt><trkpt lat="45.43046782157601" lon="10.91011211569724"><ele>83.0</ele><time>2026-04-04T16:01:36.999Z</time></trkpt><trkpt lat="45.43028992437414" lon="10.910255164238"><ele>82.33333333333334</ele><time>2026-04-04T16:01:37.999Z</time></trkpt><trkpt lat="45.43010883787238" lon="10.91038744035842"><ele>81.66666666666667</ele><time>2026-04-04T16:01:38.999Z</time></trkpt><trkpt lat="45.42992007391676" lon="10.910527626982889"><ele>81.0</ele><time>2026-04-04T16:01:39.999Z</time></trkpt><trkpt lat="45.42973181666177" lon="10.910674439466725"><ele>81.0</ele><time>2026-04-04T16:01:40.999Z</time></trkpt><trkpt lat="45.42954802023183" lon="10.910853154187707"><ele>81.0</ele><time>2026-04-04T16:01:41.999Z</time></trkpt><trkpt lat="45.42937323269888" lon="10.911065295793984"><ele>81.0</ele><time>2026-04-04T16:01:42.999Z</time></trkpt><trkpt lat="45.429218971476274" lon="10.911295444600864"><ele>81.0</ele><time>2026-04-04T16:01:43.999Z</time></trkpt><trkpt lat="45.42908086548193" lon="10.911546912540942"><ele>81.0</ele><time>2026-04-04T16:01:44.999Z</time></trkpt><trkpt lat="45.42896536188316" lon="10.911810595152234"><ele>80.66666666666667</ele><time>2026-04-04T16:01:45.999Z</time></trkpt><trkpt lat="45.42887016491741" lon="10.912085127225467"><ele>80.33333333333334</ele><time>2026-04-04T16:01:46.999Z</time></trkpt><trkpt lat="45.428789827407414" lon="10.912367726741083"><ele>80.0</ele><time>2026-04-04T16:01:47.999Z</time></trkpt><trkpt lat="45.42871592006325" lon="10.912652249623202"><ele>79.66666666666667</ele><time>2026-04-04T16:01:48.999Z</time></trkpt><trkpt lat="45.42864059505637" lon="10.912937920474993"><ele>79.33333333333333</ele><time>2026-04-04T16:01:49.999Z</time></trkpt><trkpt lat="45.42856236445021" lon="10.913210403931243"><ele>79.0</ele><time>2026-04-04T16:01:50.999Z</time></trkpt><trkpt lat="45.42848496751239" lon="10.913464211373817"><ele>78.66666666666666</ele><time>2026-04-04T16:01:51.999Z</time></trkpt><trkpt lat="45.42840571222331" lon="10.91368753042775"><ele>78.33333333333333</ele><time>2026-04-04T16:01:52.999Z</time></trkpt><trkpt lat="45.42831942861452" lon="10.91388657617952"><ele>78.0</ele><time>2026-04-04T16:01:53.999Z</time></trkpt><trkpt lat="45.42821821118464" lon="10.914056822488705"><ele>78.0</ele><time>2026-04-04T16:01:54.999Z</time></trkpt><trkpt lat="45.42810299429805" lon="10.914191451680622"><ele>78.0</ele><time>2026-04-04T16:01:55.999Z</time></trkpt><trkpt lat="45.42797502626721" lon="10.914288064616267"><ele>78.0</ele><time>2026-04-04T16:01:56.999Z</time></trkpt><trkpt lat="45.42783653503524" lon="10.914356325720588"><ele>78.0</ele><time>2026-04-04T16:01:57.999Z</time></trkpt><trkpt lat="45.427685966516286" lon="10.914416098641288"><ele>77.66666666666667</ele><time>2026-04-04T16:01:58.999Z</time></trkpt><trkpt lat="45.427528413168176" lon="10.914479210106935"><ele>77.33333333333334</ele><time>2026-04-04T16:01:59.999Z</time></trkpt><trkpt lat="45.427363077856796" lon="10.914543085436813"><ele>77.0</ele><time>2026-04-04T16:02:00.999Z</time></trkpt><trkpt lat="45.42718826840882" lon="10.914601940798205"><ele>77.0</ele><time>2026-04-04T16:02:01.999Z</time></trkpt><trkpt lat="45.427003955464436" lon="10.914657648113971"><ele>77.0</ele><time>2026-04-04T16:02:02.999Z</time></trkpt><trkpt lat="45.4267876156847" lon="10.914710266539409"><ele>77.0</ele><time>2026-04-04T16:02:03.999Z</time></trkpt><trkpt lat="45.42654606704074" lon="10.914749961287002"><ele>76.5</ele><time>2026-04-04T16:02:04.999Z</time></trkpt><trkpt lat="45.4262795998196" lon="10.914776801438986"><ele>76.0</ele><time>2026-04-04T16:02:05.999Z</time></trkpt><trkpt lat="45.42599577734157" lon="10.914783646188033"><ele>76.0</ele><time>2026-04-04T16:02:06.999Z</time></trkpt><trkpt lat="45.42568785729074" lon="10.91477836014607"><ele>76.0</ele><time>2026-04-04T16:02:07.999Z</time></trkpt><trkpt lat="45.42536822692016" lon="10.914772631307402"><ele>75.0</ele><time>2026-04-04T16:02:08.999Z</time></trkpt><trkpt lat="45.42503766448477" lon="10.91476692471604"><ele>74.0</ele><time>2026-04-04T16:02:09.999Z</time></trkpt><trkpt lat="45.42468773301574" lon="10.91476112144083"><ele>74.5</ele><time>2026-04-04T16:02:10.999Z</time></trkpt><trkpt lat="45.42432442227003" lon="10.914756624583791"><ele>75.0</ele><time>2026-04-04T16:02:11.999Z</time></trkpt><trkpt lat="45.42395012602942" lon="10.914750984810697"><ele>75.5</ele><time>2026-04-04T16:02:12.999Z</time></trkpt><trkpt lat="45.423569722147356" lon="10.914743824151271"><ele>76.0</ele><time>2026-04-04T16:02:13.999Z</time></trkpt><trkpt lat="45.42319443866088" lon="10.914736316069979"><ele>74.5</ele><time>2026-04-04T16:02:14.999Z</time></trkpt><trkpt lat="45.42281296750119" lon="10.914729368181993"><ele>73.0</ele><time>2026-04-04T16:02:15.999Z</time></trkpt><trkpt lat="45.42242909932255" lon="10.9147242401597"><ele>73.0</ele><time>2026-04-04T16:02:16.999Z</time></trkpt><trkpt lat="45.422046382974195" lon="10.914721177279379"><ele>73.0</ele><time>2026-04-04T16:02:17.999Z</time></trkpt><trkpt lat="45.421660648803034" lon="10.914715692334111"><ele>73.5</ele><time>2026-04-04T16:02:18.999Z</time></trkpt><trkpt lat="45.421276041849055" lon="10.914710023715287"><ele>74.0</ele><time>2026-04-04T16:02:19.999Z</time></trkpt><trkpt lat="45.42089189187926" lon="10.91470719240609"><ele>74.0</ele><time>2026-04-04T16:02:20.999Z</time></trkpt><trkpt lat="45.42050714834569" lon="10.914702044310635"><ele>74.0</ele><time>2026-04-04T16:02:21.999Z</time></trkpt><trkpt lat="45.42012381806685" lon="10.914693627911472"><ele>74.0</ele><time>2026-04-04T16:02:22.999Z</time></trkpt><trkpt lat="45.419741523492696" lon="10.914684225948816"><ele>74.0</ele><time>2026-04-04T16:02:23.999Z</time></trkpt><trkpt lat="45.41937093365103" lon="10.914676565883925"><ele>74.0</ele><time>2026-04-04T16:02:24.999Z</time></trkpt><trkpt lat="45.41902935872146" lon="10.914666678986304"><ele>74.0</ele><time>2026-04-04T16:02:25.999Z</time></trkpt><trkpt lat="45.41871287070375" lon="10.914658561567945"><ele>74.0</ele><time>2026-04-04T16:02:26.999Z</time></trkpt><trkpt lat="45.41841335172639" lon="10.914646166063967"><ele>74.0</ele><time>2026-04-04T16:02:27.999Z</time></trkpt><trkpt lat="45.41812379277452" lon="10.914623089711776"><ele>74.0</ele><time>2026-04-04T16:02:28.999Z</time></trkpt><trkpt lat="45.4178414916813" lon="10.91460439018019"><ele>74.0</ele><time>2026-04-04T16:02:29.999Z</time></trkpt><trkpt lat="45.41755482101218" lon="10.914595691758944"><ele>74.0</ele><time>2026-04-04T16:02:30.999Z</time></trkpt><trkpt lat="45.41726326108263" lon="10.9145983448371"><ele>74.0</ele><time>2026-04-04T16:02:31.999Z</time></trkpt><trkpt lat="45.416971087677254" lon="10.91461374604194"><ele>74.5</ele><time>2026-04-04T16:02:32.999Z</time></trkpt><trkpt lat="45.41667774852248" lon="10.914635657288787"><ele>75.0</ele><time>2026-04-04T16:02:33.999Z</time></trkpt><trkpt lat="45.41638886243061" lon="10.91466199952671"><ele>75.0</ele><time>2026-04-04T16:02:34.999Z</time></trkpt><trkpt lat="45.41610795323905" lon="10.914689826885668"><ele>75.0</ele><time>2026-04-04T16:02:35.999Z</time></trkpt><trkpt lat="45.41584651423196" lon="10.914719987853442"><ele>75.0</ele><time>2026-04-04T16:02:36.999Z</time></trkpt><trkpt lat="45.41559807466493" lon="10.914756972994786"><ele>75.0</ele><time>2026-04-04T16:02:37.999Z</time></trkpt><trkpt lat="45.41536703000349" lon="10.914798014789955"><ele>74.66666666666667</ele><time>2026-04-04T16:02:38.999Z</time></trkpt><trkpt lat="45.415141474524674" lon="10.91484704941354"><ele>74.33333333333334</ele><time>2026-04-04T16:02:39.999Z</time></trkpt><trkpt lat="45.41492473669892" lon="10.91489036637677"><ele>74.0</ele><time>2026-04-04T16:02:40.999Z</time></trkpt><trkpt lat="45.41471586234008" lon="10.914930937606629"><ele>72.66666666666667</ele><time>2026-04-04T16:02:41.999Z</time></trkpt><trkpt lat="45.41451411659034" lon="10.914971117452543"><ele>71.33333333333333</ele><time>2026-04-04T16:02:42.999Z</time></trkpt><trkpt lat="45.41431497719464" lon="10.915008999796584"><ele>70.0</ele><time>2026-04-04T16:02:43.999Z</time></trkpt><trkpt lat="45.414114664417255" lon="10.915043584480182"><ele>69.66666666666666</ele><time>2026-04-04T16:02:44.999Z</time></trkpt><trkpt lat="45.41391084094278" lon="10.915080909023926"><ele>69.33333333333333</ele><time>2026-04-04T16:02:45.999Z</time></trkpt><trkpt lat="45.413702606846805" lon="10.915121379554908"><ele>69.0</ele><time>2026-04-04T16:02:46.999Z</time></trkpt><trkpt lat="45.41349495137088" lon="10.915163228070869"><ele>68.66666666666667</ele><time>2026-04-04T16:02:47.999Z</time></trkpt><trkpt lat="45.41328997861766" lon="10.915200736872263"><ele>68.33333333333334</ele><time>2026-04-04T16:02:49Z</time></trkpt><trkpt lat="45.413094873412035" lon="10.91523647035939"><ele>68.0</ele><time>2026-04-04T16:02:50Z</time></trkpt><trkpt lat="45.412903717021244" lon="10.915271480906702"><ele>68.0</ele><time>2026-04-04T16:02:51Z</time></trkpt><trkpt lat="45.41271602106449" lon="10.915304535128806"><ele>68.0</ele><time>2026-04-04T16:02:52Z</time></trkpt><trkpt lat="45.412532767067596" lon="10.915338090071211"><ele>68.0</ele><time>2026-04-04T16:02:53Z</time></trkpt><trkpt lat="45.41235421447608" lon="10.915373534417984"><ele>68.0</ele><time>2026-04-04T16:02:54Z</time></trkpt><trkpt lat="45.41217556640877" lon="10.915414066751794"><ele>68.0</ele><time>2026-04-04T16:02:55Z</time></trkpt><trkpt lat="45.41199166964648" lon="10.9154657361752"><ele>68.0</ele><time>2026-04-04T16:02:56Z</time></trkpt><trkpt lat="45.41182829220531" lon="10.915518143005025"><ele>68.33333333333334</ele><time>2026-04-04T16:02:57Z</time></trkpt><trkpt lat="45.41167114676278" lon="10.91556973795381"><ele>68.66666666666667</ele><time>2026-04-04T16:02:58Z</time></trkpt><trkpt lat="45.41151169785671" lon="10.915635101147258"><ele>69.0</ele><time>2026-04-04T16:02:59Z</time></trkpt><trkpt lat="45.41134803210463" lon="10.91570774910459"><ele>68.66666666666667</ele><time>2026-04-04T16:03:00Z</time></trkpt><trkpt lat="45.41118087596337" lon="10.915788234003498"><ele>68.33333333333334</ele><time>2026-04-04T16:03:01Z</time></trkpt><trkpt lat="45.41101197014498" lon="10.915876197889725"><ele>68.0</ele><time>2026-04-04T16:03:02Z</time></trkpt><trkpt lat="45.41084358440169" lon="10.915974457507584"><ele>67.0</ele><time>2026-04-04T16:03:03Z</time></trkpt><trkpt lat="45.410680394693166" lon="10.916091180272208"><ele>66.0</ele><time>2026-04-04T16:03:04Z</time></trkpt><trkpt lat="45.4105178315154" lon="10.916210603630233"><ele>65.0</ele><time>2026-04-04T16:03:05Z</time></trkpt><trkpt lat="45.41035209065943" lon="10.916324714621059"><ele>67.0</ele><time>2026-04-04T16:03:06Z</time></trkpt><trkpt lat="45.41018492509126" lon="10.916440314597548"><ele>69.0</ele><time>2026-04-04T16:03:07Z</time></trkpt><trkpt lat="45.41002679424159" lon="10.916549549597123"><ele>71.0</ele><time>2026-04-04T16:03:08Z</time></trkpt><trkpt lat="45.40987346108535" lon="10.916658424238916"><ele>70.0</ele><time>2026-04-04T16:03:09Z</time></trkpt><trkpt lat="45.40972078180681" lon="10.916766718250232"><ele>69.0</ele><time>2026-04-04T16:03:10Z</time></trkpt><trkpt lat="45.409560031612635" lon="10.916872556285803"><ele>68.0</ele><time>2026-04-04T16:03:11Z</time></trkpt><trkpt lat="45.40939099456747" lon="10.916979735257216"><ele>68.0</ele><time>2026-04-04T16:03:12Z</time></trkpt><trkpt lat="45.4092145013796" lon="10.917095755853648"><ele>68.0</ele><time>2026-04-04T16:03:13Z</time></trkpt><trkpt lat="45.40903455059716" lon="10.917223336780003"><ele>68.0</ele><time>2026-04-04T16:03:14Z</time></trkpt><trkpt lat="45.40884956062455" lon="10.9173580129864"><ele>68.33333333333334</ele><time>2026-04-04T16:03:15Z</time></trkpt><trkpt lat="45.40865470347795" lon="10.917480165457984"><ele>68.66666666666667</ele><time>2026-04-04T16:03:16Z</time></trkpt><trkpt lat="45.408448393654105" lon="10.917577908764452"><ele>69.0</ele><time>2026-04-04T16:03:17Z</time></trkpt><trkpt lat="45.40822973361704" lon="10.917653428295736"><ele>67.0</ele><time>2026-04-04T16:03:18Z</time></trkpt><trkpt lat="45.408002934379695" lon="10.917705915563372"><ele>65.0</ele><time>2026-04-04T16:03:19Z</time></trkpt><trkpt lat="45.40777268197057" lon="10.917735373781186"><ele>65.0</ele><time>2026-04-04T16:03:20Z</time></trkpt><trkpt lat="45.40754215945293" lon="10.91774161409545"><ele>65.0</ele><time>2026-04-04T16:03:21Z</time></trkpt><trkpt lat="45.40730926508201" lon="10.917726062174182"><ele>67.0</ele><time>2026-04-04T16:03:22Z</time></trkpt><trkpt lat="45.40707520413546" lon="10.917685558393817"><ele>69.0</ele><time>2026-04-04T16:03:23Z</time></trkpt><trkpt lat="45.40684073936079" lon="10.917632521878307"><ele>69.0</ele><time>2026-04-04T16:03:24Z</time></trkpt><trkpt lat="45.40660176243301" lon="10.917575609798927"><ele>69.0</ele><time>2026-04-04T16:03:25Z</time></trkpt><trkpt lat="45.4063608690398" lon="10.917520574569867"><ele>66.0</ele><time>2026-04-04T16:03:26Z</time></trkpt><trkpt lat="45.40612485492182" lon="10.917454159479957"><ele>63.0</ele><time>2026-04-04T16:03:27Z</time></trkpt><trkpt lat="45.40589404323599" lon="10.9173444134585"><ele>63.0</ele><time>2026-04-04T16:03:28Z</time></trkpt><trkpt lat="45.40566132574451" lon="10.917242730676035"><ele>63.0</ele><time>2026-04-04T16:03:29Z</time></trkpt><trkpt lat="45.40543140413446" lon="10.91713206590023"><ele>64.0</ele><time>2026-04-04T16:03:30Z</time></trkpt><trkpt lat="45.405203042118764" lon="10.917008975743416"><ele>65.0</ele><time>2026-04-04T16:03:31Z</time></trkpt><trkpt lat="45.40496507311134" lon="10.916882032674234"><ele>65.0</ele><time>2026-04-04T16:03:32Z</time></trkpt><trkpt lat="45.40471883640844" lon="10.91674568247956"><ele>65.0</ele><time>2026-04-04T16:03:33Z</time></trkpt><trkpt lat="45.40449745846034" lon="10.916589231077543"><ele>64.5</ele><time>2026-04-04T16:03:34Z</time></trkpt><trkpt lat="45.404293593531314" lon="10.916405846634456"><ele>64.0</ele><time>2026-04-04T16:03:35Z</time></trkpt><trkpt lat="45.404069920464124" lon="10.91618584324184"><ele>64.5</ele><time>2026-04-04T16:03:36Z</time></trkpt><trkpt lat="45.40382975011098" lon="10.915941072050485"><ele>65.0</ele><time>2026-04-04T16:03:37Z</time></trkpt><trkpt lat="45.40357596350803" lon="10.91567722503213"><ele>65.0</ele><time>2026-04-04T16:03:38Z</time></trkpt><trkpt lat="45.4033200513306" lon="10.915401526452381"><ele>65.0</ele><time>2026-04-04T16:03:39Z</time></trkpt><trkpt lat="45.40307737888635" lon="10.915114803776271"><ele>63.5</ele><time>2026-04-04T16:03:40Z</time></trkpt><trkpt lat="45.40285139484269" lon="10.914819249131135"><ele>62.0</ele><time>2026-04-04T16:03:41Z</time></trkpt><trkpt lat="45.4026400085237" lon="10.914523751875699"><ele>61.5</ele><time>2026-04-04T16:03:42Z</time></trkpt><trkpt lat="45.4024483887897" lon="10.914231957128596"><ele>61.0</ele><time>2026-04-04T16:03:43Z</time></trkpt><trkpt lat="45.40227474979881" lon="10.913930570487768"><ele>62.0</ele><time>2026-04-04T16:03:44Z</time></trkpt><trkpt lat="45.40211198414885" lon="10.913621376956153"><ele>63.0</ele><time>2026-04-04T16:03:45Z</time></trkpt><trkpt lat="45.401954688680945" lon="10.91330625894869"><ele>63.5</ele><time>2026-04-04T16:03:46Z</time></trkpt><trkpt lat="45.40180398180077" lon="10.912983740392708"><ele>64.0</ele><time>2026-04-04T16:03:47Z</time></trkpt><trkpt lat="45.40166512941362" lon="10.912650603802705"><ele>63.5</ele><time>2026-04-04T16:03:48Z</time></trkpt><trkpt lat="45.401534753177174" lon="10.91230849434071"><ele>63.0</ele><time>2026-04-04T16:03:49Z</time></trkpt><trkpt lat="45.40141206777945" lon="10.911958250256928"><ele>63.5</ele><time>2026-04-04T16:03:50Z</time></trkpt><trkpt lat="45.40129896696989" lon="10.91160389106637"><ele>64.0</ele><time>2026-04-04T16:03:51Z</time></trkpt><trkpt lat="45.40119392723405" lon="10.911244058206231"><ele>64.0</ele><time>2026-04-04T16:03:52Z</time></trkpt><trkpt lat="45.401098551131795" lon="10.91087692400454"><ele>64.0</ele><time>2026-04-04T16:03:53Z</time></trkpt><trkpt lat="45.40101090178252" lon="10.910509192122138"><ele>64.0</ele><time>2026-04-04T16:03:54Z</time></trkpt><trkpt lat="45.400933350770494" lon="10.910132969573462"><ele>64.0</ele><time>2026-04-04T16:03:55Z</time></trkpt><trkpt lat="45.40087894490873" lon="10.909737309032417"><ele>63.5</ele><time>2026-04-04T16:03:56Z</time></trkpt><trkpt lat="45.400828537492956" lon="10.909349892806317"><ele>63.0</ele><time>2026-04-04T16:03:57Z</time></trkpt><trkpt lat="45.40078368851784" lon="10.908961680169432"><ele>62.5</ele><time>2026-04-04T16:03:58Z</time></trkpt><trkpt lat="45.400740678066164" lon="10.908574182467476"><ele>62.0</ele><time>2026-04-04T16:03:59Z</time></trkpt><trkpt lat="45.400697623532594" lon="10.908196034748567"><ele>63.0</ele><time>2026-04-04T16:04:00Z</time></trkpt><trkpt lat="45.40064483452706" lon="10.907836468721245"><ele>64.0</ele><time>2026-04-04T16:04:01Z</time></trkpt><trkpt lat="45.400597132655726" lon="10.90748936231454"><ele>63.5</ele><time>2026-04-04T16:04:02Z</time></trkpt><trkpt lat="45.40054016520753" lon="10.907141921694878"><ele>63.0</ele><time>2026-04-04T16:04:03Z</time></trkpt><trkpt lat="45.400475032607126" lon="10.90680094315975"><ele>62.0</ele><time>2026-04-04T16:04:04Z</time></trkpt><trkpt lat="45.40031820639931" lon="10.906493311782585"><ele>61.0</ele><time>2026-04-04T16:04:05Z</time></trkpt><trkpt lat="45.40020763578128" lon="10.90616566293442"><ele>62.0</ele><time>2026-04-04T16:04:06Z</time></trkpt><trkpt lat="45.40008774586462" lon="10.905842550187696"><ele>63.0</ele><time>2026-04-04T16:04:07Z</time></trkpt><trkpt lat="45.399958453627754" lon="10.905529663871002"><ele>63.0</ele><time>2026-04-04T16:04:08Z</time></trkpt><trkpt lat="45.39981595620762" lon="10.905226291041492"><ele>63.0</ele><time>2026-04-04T16:04:09Z</time></trkpt><trkpt lat="45.399662835521056" lon="10.90493537807052"><ele>64.0</ele><time>2026-04-04T16:04:10Z</time></trkpt><trkpt lat="45.39949951278085" lon="10.904655978213079"><ele>65.0</ele><time>2026-04-04T16:04:11Z</time></trkpt><trkpt lat="45.399329900805014" lon="10.90438312499407"><ele>65.5</ele><time>2026-04-04T16:04:12Z</time></trkpt><trkpt lat="45.39915735008378" lon="10.904114923342378"><ele>66.0</ele><time>2026-04-04T16:04:13Z</time></trkpt><trkpt lat="45.39896051630981" lon="10.903885898907076"><ele>65.5</ele><time>2026-04-04T16:04:14Z</time></trkpt><trkpt lat="45.398766164415" lon="10.903647727883296"><ele>65.0</ele><time>2026-04-04T16:04:15Z</time></trkpt><trkpt lat="45.3985638125873" lon="10.903423880286047"><ele>64.5</ele><time>2026-04-04T16:04:16Z</time></trkpt><trkpt lat="45.39835177526643" lon="10.903215814533876"><ele>64.0</ele><time>2026-04-04T16:04:17Z</time></trkpt><trkpt lat="45.398131747172044" lon="10.903020809578697"><ele>65.0</ele><time>2026-04-04T16:04:18Z</time></trkpt><trkpt lat="45.397904250508496" lon="10.902839232712079"><ele>66.0</ele><time>2026-04-04T16:04:19Z</time></trkpt><trkpt lat="45.397678341684504" lon="10.902671586954416"><ele>66.5</ele><time>2026-04-04T16:04:20Z</time></trkpt><trkpt lat="45.397441516513275" lon="10.90252192079255"><ele>67.0</ele><time>2026-04-04T16:04:21Z</time></trkpt><trkpt lat="45.39720076750216" lon="10.902392947139736"><ele>66.5</ele><time>2026-04-04T16:04:22Z</time></trkpt><trkpt lat="45.396957580358205" lon="10.902280764463683"><ele>66.0</ele><time>2026-04-04T16:04:23Z</time></trkpt><trkpt lat="45.396709709656236" lon="10.902180569238435"><ele>66.0</ele><time>2026-04-04T16:04:24Z</time></trkpt><trkpt lat="45.396460028888846" lon="10.902092583482538"><ele>66.0</ele><time>2026-04-04T16:04:25Z</time></trkpt><trkpt lat="45.396207301596" lon="10.90202158860839"><ele>66.0</ele><time>2026-04-04T16:04:26Z</time></trkpt><trkpt lat="45.39595119967761" lon="10.901969324337372"><ele>66.0</ele><time>2026-04-04T16:04:27Z</time></trkpt><trkpt lat="45.39569297283944" lon="10.901933757916353"><ele>65.0</ele><time>2026-04-04T16:04:28Z</time></trkpt><trkpt lat="45.39543354635715" lon="10.901921588987861"><ele>64.0</ele><time>2026-04-04T16:04:28.999Z</time></trkpt><trkpt lat="45.39517274877828" lon="10.901927157782552"><ele>64.0</ele><time>2026-04-04T16:04:29.999Z</time></trkpt><trkpt lat="45.39491241392381" lon="10.901944945828866"><ele>64.0</ele><time>2026-04-04T16:04:30.999Z</time></trkpt><trkpt lat="45.3946512447215" lon="10.901967213748904"><ele>64.0</ele><time>2026-04-04T16:04:31.999Z</time></trkpt><trkpt lat="45.394387970290566" lon="10.901989011571414"><ele>64.0</ele><time>2026-04-04T16:04:32.999Z</time></trkpt><trkpt lat="45.39412455727107" lon="10.902007846762336"><ele>64.0</ele><time>2026-04-04T16:04:33.999Z</time></trkpt><trkpt lat="45.39385950165121" lon="10.902022891436179"><ele>64.0</ele><time>2026-04-04T16:04:34.999Z</time></trkpt><trkpt lat="45.393594298266635" lon="10.902040118371385"><ele>65.5</ele><time>2026-04-04T16:04:35.999Z</time></trkpt><trkpt lat="45.39332926039" lon="10.902061482158487"><ele>67.0</ele><time>2026-04-04T16:04:36.999Z</time></trkpt><trkpt lat="45.39306398069753" lon="10.902081727549948"><ele>65.5</ele><time>2026-04-04T16:04:37.999Z</time></trkpt><trkpt lat="45.39279742745345" lon="10.902101560293659"><ele>64.0</ele><time>2026-04-04T16:04:39Z</time></trkpt><trkpt lat="45.39253216687988" lon="10.90212202611277"><ele>64.0</ele><time>2026-04-04T16:04:40Z</time></trkpt><trkpt lat="45.392269201294276" lon="10.90213889488557"><ele>64.0</ele><time>2026-04-04T16:04:41Z</time></trkpt><trkpt lat="45.39201488794377" lon="10.902153887848545"><ele>63.0</ele><time>2026-04-04T16:04:42Z</time></trkpt><trkpt lat="45.39177832710206" lon="10.90216522008707"><ele>62.0</ele><time>2026-04-04T16:04:43Z</time></trkpt><trkpt lat="45.391556788629444" lon="10.90217493550747"><ele>62.0</ele><time>2026-04-04T16:04:44Z</time></trkpt><trkpt lat="45.391348626746336" lon="10.902176960525983"><ele>62.0</ele><time>2026-04-04T16:04:45Z</time></trkpt><trkpt lat="45.39115592074142" lon="10.902140380025713"><ele>62.0</ele><time>2026-04-04T16:04:46Z</time></trkpt><trkpt lat="45.39097805149661" lon="10.902139353585698"><ele>62.25</ele><time>2026-04-04T16:04:47Z</time></trkpt><trkpt lat="45.390822225353" lon="10.902109396889946"><ele>62.5</ele><time>2026-04-04T16:04:48Z</time></trkpt><trkpt lat="45.390681658284" lon="10.902075513927358"><ele>62.75</ele><time>2026-04-04T16:04:49Z</time></trkpt><trkpt lat="45.39054906243432" lon="10.90204344808562"><ele>63.0</ele><time>2026-04-04T16:04:50Z</time></trkpt><trkpt lat="45.39042842027189" lon="10.90201466064347"><ele>63.2</ele><time>2026-04-04T16:04:51Z</time></trkpt><trkpt lat="45.390351947185074" lon="10.901983666653557"><ele>63.4</ele><time>2026-04-04T16:04:52Z</time></trkpt><trkpt lat="45.39028557387428" lon="10.90195047099867"><ele>63.60000000000001</ele><time>2026-04-04T16:04:53Z</time></trkpt><trkpt lat="45.390206088697816" lon="10.90187398219912"><ele>63.800000000000004</ele><time>2026-04-04T16:04:55Z</time></trkpt><trkpt lat="45.390142098237064" lon="10.901776664390923"><ele>64.0</ele><time>2026-04-04T16:04:58Z</time></trkpt><trkpt lat="45.390082684479594" lon="10.901591162747396"><ele>63.6</ele><time>2026-04-04T16:05:00Z</time></trkpt><trkpt lat="45.390044275900706" lon="10.90146868961459"><ele>63.2</ele><time>2026-04-04T16:05:01Z</time></trkpt><trkpt lat="45.38997656673535" lon="10.901373002390827"><ele>62.800000000000004</ele><time>2026-04-04T16:05:02Z</time></trkpt><trkpt lat="45.38989546549908" lon="10.901295294475617"><ele>62.400000000000006</ele><time>2026-04-04T16:05:03Z</time></trkpt><trkpt lat="45.3898024256992" lon="10.901240003417836"><ele>62.0</ele><time>2026-04-04T16:05:04Z</time></trkpt><trkpt lat="45.38969914014824" lon="10.901214872550542"><ele>61.6</ele><time>2026-04-04T16:05:05Z</time></trkpt><trkpt lat="45.38959976976605" lon="10.90123132250547"><ele>61.2</ele><time>2026-04-04T16:05:06Z</time></trkpt><trkpt lat="45.38950585244747" lon="10.901271860586554"><ele>60.8</ele><time>2026-04-04T16:05:07Z</time></trkpt><trkpt lat="45.3894235536052" lon="10.901357643886499"><ele>60.4</ele><time>2026-04-04T16:05:08Z</time></trkpt><trkpt lat="45.38935496927152" lon="10.901472611192894"><ele>60.0</ele><time>2026-04-04T16:05:09Z</time></trkpt><trkpt lat="45.38928848565252" lon="10.901609617532692"><ele>60.0</ele><time>2026-04-04T16:05:10Z</time></trkpt><trkpt lat="45.38921694893855" lon="10.90171166095512"><ele>60.0</ele><time>2026-04-04T16:05:11Z</time></trkpt><trkpt lat="45.38913864336467" lon="10.901769864339816"><ele>60.0</ele><time>2026-04-04T16:05:12Z</time></trkpt><trkpt lat="45.38904642320244" lon="10.901794021745419"><ele>60.0</ele><time>2026-04-04T16:05:13Z</time></trkpt><trkpt lat="45.38892389118621" lon="10.901798254264662"><ele>60.0</ele><time>2026-04-04T16:05:14Z</time></trkpt><trkpt lat="45.38878338391697" lon="10.901792811973483"><ele>59.0</ele><time>2026-04-04T16:05:15Z</time></trkpt><trkpt lat="45.388627367145084" lon="10.901780835148577"><ele>58.0</ele><time>2026-04-04T16:05:16Z</time></trkpt><trkpt lat="45.38846813732524" lon="10.901760645367071"><ele>57.0</ele><time>2026-04-04T16:05:17Z</time></trkpt><trkpt lat="45.388296918751415" lon="10.901742824952057"><ele>57.0</ele><time>2026-04-04T16:05:18Z</time></trkpt><trkpt lat="45.388116278276684" lon="10.90172126552696"><ele>57.0</ele><time>2026-04-04T16:05:19Z</time></trkpt><trkpt lat="45.38792759412419" lon="10.901695863108282"><ele>57.0</ele><time>2026-04-04T16:05:20Z</time></trkpt><trkpt lat="45.38773115674859" lon="10.901666428793183"><ele>57.33333333333333</ele><time>2026-04-04T16:05:21Z</time></trkpt><trkpt lat="45.38752806266806" lon="10.901630748301802"><ele>57.666666666666664</ele><time>2026-04-04T16:05:22Z</time></trkpt><trkpt lat="45.38731656762909" lon="10.901586759409444"><ele>58.0</ele><time>2026-04-04T16:05:23Z</time></trkpt><trkpt lat="45.38710346685803" lon="10.901540150596624"><ele>58.0</ele><time>2026-04-04T16:05:24Z</time></trkpt><trkpt lat="45.38688085686219" lon="10.901490372978127"><ele>58.0</ele><time>2026-04-04T16:05:25Z</time></trkpt><trkpt lat="45.386652688164055" lon="10.901435017175324"><ele>58.0</ele><time>2026-04-04T16:05:26Z</time></trkpt><trkpt lat="45.3864184203543" lon="10.901375433572868"><ele>58.0</ele><time>2026-04-04T16:05:27Z</time></trkpt><trkpt lat="45.38617779931356" lon="10.901315287949128"><ele>57.5</ele><time>2026-04-04T16:05:28Z</time></trkpt><trkpt lat="45.38593175186881" lon="10.901253333280446"><ele>57.0</ele><time>2026-04-04T16:05:29Z</time></trkpt><trkpt lat="45.38568049736071" lon="10.901184486750466"><ele>58.0</ele><time>2026-04-04T16:05:30Z</time></trkpt><trkpt lat="45.38542382483468" lon="10.901113441000907"><ele>59.0</ele><time>2026-04-04T16:05:31Z</time></trkpt><trkpt lat="45.385162160565116" lon="10.901043336617818"><ele>59.0</ele><time>2026-04-04T16:05:32Z</time></trkpt><trkpt lat="45.38489600955689" lon="10.900971761777216"><ele>59.0</ele><time>2026-04-04T16:05:33Z</time></trkpt><trkpt lat="45.38462516043862" lon="10.900899565457332"><ele>59.0</ele><time>2026-04-04T16:05:34Z</time></trkpt><trkpt lat="45.38435135187509" lon="10.90083280681306"><ele>59.0</ele><time>2026-04-04T16:05:35Z</time></trkpt><trkpt lat="45.38407362429621" lon="10.900763076072577"><ele>59.0</ele><time>2026-04-04T16:05:36Z</time></trkpt><trkpt lat="45.38379747236622" lon="10.900691653182287"><ele>59.0</ele><time>2026-04-04T16:05:37Z</time></trkpt><trkpt lat="45.38351697561175" lon="10.900621638924324"><ele>59.0</ele><time>2026-04-04T16:05:38Z</time></trkpt><trkpt lat="45.383235147285006" lon="10.900551052764534"><ele>59.0</ele><time>2026-04-04T16:05:39Z</time></trkpt><trkpt lat="45.38295205334935" lon="10.90047915439792"><ele>58.5</ele><time>2026-04-04T16:05:40Z</time></trkpt><trkpt lat="45.38266604519199" lon="10.900408796814817"><ele>58.0</ele><time>2026-04-04T16:05:41Z</time></trkpt><trkpt lat="45.38237932516815" lon="10.90033996695998"><ele>58.5</ele><time>2026-04-04T16:05:42Z</time></trkpt><trkpt lat="45.382091301405154" lon="10.900269726371588"><ele>59.0</ele><time>2026-04-04T16:05:43Z</time></trkpt><trkpt lat="45.38180233934142" lon="10.900188283398434"><ele>59.0</ele><time>2026-04-04T16:05:44Z</time></trkpt><trkpt lat="45.3815145885306" lon="10.900103472296252"><ele>59.0</ele><time>2026-04-04T16:05:45Z</time></trkpt><trkpt lat="45.38122423957664" lon="10.900022570704284"><ele>57.5</ele><time>2026-04-04T16:05:46Z</time></trkpt><trkpt lat="45.380930274313386" lon="10.899946120348227"><ele>56.0</ele><time>2026-04-04T16:05:47Z</time></trkpt><trkpt lat="45.380635397817116" lon="10.899871513697619"><ele>55.5</ele><time>2026-04-04T16:05:48Z</time></trkpt><trkpt lat="45.38034028480328" lon="10.899797817786915"><ele>55.0</ele><time>2026-04-04T16:05:49Z</time></trkpt><trkpt lat="45.38004507693335" lon="10.899724873151243"><ele>55.0</ele><time>2026-04-04T16:05:50Z</time></trkpt><trkpt lat="45.37975082359524" lon="10.899651582641665"><ele>55.0</ele><time>2026-04-04T16:05:51Z</time></trkpt><trkpt lat="45.379455843838166" lon="10.899574847067573"><ele>54.5</ele><time>2026-04-04T16:05:52Z</time></trkpt><trkpt lat="45.379163611028716" lon="10.89949674999427"><ele>54.0</ele><time>2026-04-04T16:05:53Z</time></trkpt><trkpt lat="45.3788745087485" lon="10.89940871337983"><ele>54.0</ele><time>2026-04-04T16:05:54Z</time></trkpt><trkpt lat="45.378587815135255" lon="10.899303916601767"><ele>54.0</ele><time>2026-04-04T16:05:55Z</time></trkpt><trkpt lat="45.378310376268125" lon="10.899158825389353"><ele>54.0</ele><time>2026-04-04T16:05:56Z</time></trkpt><trkpt lat="45.378033225042536" lon="10.899013447888475"><ele>54.0</ele><time>2026-04-04T16:05:57Z</time></trkpt><trkpt lat="45.377759851712085" lon="10.898859093655249"><ele>54.5</ele><time>2026-04-04T16:05:58Z</time></trkpt><trkpt lat="45.377485248898125" lon="10.898707098203632"><ele>55.0</ele><time>2026-04-04T16:05:59Z</time></trkpt><trkpt lat="45.37722394538288" lon="10.898512233220703"><ele>54.0</ele><time>2026-04-04T16:06:00Z</time></trkpt><trkpt lat="45.37696504456593" lon="10.89830514308808"><ele>53.0</ele><time>2026-04-04T16:06:01Z</time></trkpt><trkpt lat="45.37671855764884" lon="10.898084410854844"><ele>53.0</ele><time>2026-04-04T16:06:02Z</time></trkpt><trkpt lat="45.37647667451056" lon="10.89784772870986"><ele>53.0</ele><time>2026-04-04T16:06:03Z</time></trkpt><trkpt lat="45.37624230019426" lon="10.897596790532122"><ele>54.5</ele><time>2026-04-04T16:06:04Z</time></trkpt><trkpt lat="45.376014459558334" lon="10.897333400694109"><ele>56.0</ele><time>2026-04-04T16:06:05Z</time></trkpt><trkpt lat="45.375796971166665" lon="10.89705676619342"><ele>56.0</ele><time>2026-04-04T16:06:06Z</time></trkpt><trkpt lat="45.37558866178763" lon="10.896763720519417"><ele>56.0</ele><time>2026-04-04T16:06:07Z</time></trkpt><trkpt lat="45.375390218152425" lon="10.896457520733515"><ele>55.5</ele><time>2026-04-04T16:06:08Z</time></trkpt><trkpt lat="45.37520057189203" lon="10.896140877598235"><ele>55.0</ele><time>2026-04-04T16:06:09Z</time></trkpt><trkpt lat="45.37501734226962" lon="10.895814473877888"><ele>54.5</ele><time>2026-04-04T16:06:10Z</time></trkpt><trkpt lat="45.37483563335113" lon="10.895484442643813"><ele>54.0</ele><time>2026-04-04T16:06:11Z</time></trkpt><trkpt lat="45.37465260789394" lon="10.895153497535047"><ele>52.5</ele><time>2026-04-04T16:06:12Z</time></trkpt><trkpt lat="45.37446687451441" lon="10.894825830922954"><ele>51.0</ele><time>2026-04-04T16:06:13Z</time></trkpt><trkpt lat="45.37427848488277" lon="10.894502648850574"><ele>51.0</ele><time>2026-04-04T16:06:14Z</time></trkpt><trkpt lat="45.37408708511236" lon="10.89418121027572"><ele>51.0</ele><time>2026-04-04T16:06:15Z</time></trkpt><trkpt lat="45.37389463950402" lon="10.89386268248338"><ele>52.5</ele><time>2026-04-04T16:06:16Z</time></trkpt><trkpt lat="45.37369741597473" lon="10.8935530792624"><ele>54.0</ele><time>2026-04-04T16:06:17Z</time></trkpt><trkpt lat="45.37349011412221" lon="10.893260466164389"><ele>54.0</ele><time>2026-04-04T16:06:18Z</time></trkpt><trkpt lat="45.37327048999675" lon="10.892983342258196"><ele>54.0</ele><time>2026-04-04T16:06:19Z</time></trkpt><trkpt lat="45.37304210092136" lon="10.892721933957489"><ele>53.5</ele><time>2026-04-04T16:06:20Z</time></trkpt><trkpt lat="45.372816138619015" lon="10.892454927009064"><ele>53.0</ele><time>2026-04-04T16:06:21Z</time></trkpt><trkpt lat="45.37256537922552" lon="10.892239840230857"><ele>53.0</ele><time>2026-04-04T16:06:22Z</time></trkpt><trkpt lat="45.372317069478164" lon="10.892014937647515"><ele>53.0</ele><time>2026-04-04T16:06:23Z</time></trkpt><trkpt lat="45.3720608892839" lon="10.891805991334493"><ele>53.5</ele><time>2026-04-04T16:06:24Z</time></trkpt><trkpt lat="45.37179907923876" lon="10.891613728885186"><ele>54.0</ele><time>2026-04-04T16:06:25Z</time></trkpt><trkpt lat="45.37153122151123" lon="10.891435754037591"><ele>54.0</ele><time>2026-04-04T16:06:26Z</time></trkpt><trkpt lat="45.371258216322154" lon="10.891273871345721"><ele>54.0</ele><time>2026-04-04T16:06:27Z</time></trkpt><trkpt lat="45.37097806904402" lon="10.891126792077447"><ele>54.0</ele><time>2026-04-04T16:06:28Z</time></trkpt><trkpt lat="45.370694667319185" lon="10.890993449069065"><ele>54.0</ele><time>2026-04-04T16:06:29Z</time></trkpt><trkpt lat="45.37040686736356" lon="10.8908653012969"><ele>54.0</ele><time>2026-04-04T16:06:30Z</time></trkpt><trkpt lat="45.37012084992743" lon="10.890733201111852"><ele>54.0</ele><time>2026-04-04T16:06:31Z</time></trkpt><trkpt lat="45.3698344622325" lon="10.890596763231464"><ele>53.0</ele><time>2026-04-04T16:06:32Z</time></trkpt><trkpt lat="45.369548816398954" lon="10.89046229081499"><ele>52.0</ele><time>2026-04-04T16:06:33Z</time></trkpt><trkpt lat="45.369263168562064" lon="10.89033088946031"><ele>52.0</ele><time>2026-04-04T16:06:34Z</time></trkpt><trkpt lat="45.3689800963923" lon="10.890201416805496"><ele>52.0</ele><time>2026-04-04T16:06:35Z</time></trkpt><trkpt lat="45.3687045993229" lon="10.890070091746011"><ele>51.0</ele><time>2026-04-04T16:06:36Z</time></trkpt><trkpt lat="45.36843592916439" lon="10.889940064200038"><ele>50.0</ele><time>2026-04-04T16:06:37Z</time></trkpt><trkpt lat="45.36818020537231" lon="10.88982178497097"><ele>51.0</ele><time>2026-04-04T16:06:38Z</time></trkpt><trkpt lat="45.36793438766826" lon="10.889705503985702"><ele>52.0</ele><time>2026-04-04T16:06:39Z</time></trkpt><trkpt lat="45.36770157599801" lon="10.88959450530049"><ele>52.0</ele><time>2026-04-04T16:06:40Z</time></trkpt><trkpt lat="45.36748184548883" lon="10.889486690200787"><ele>52.0</ele><time>2026-04-04T16:06:41Z</time></trkpt><trkpt lat="45.3672712151993" lon="10.889381966960851"><ele>51.666666666666664</ele><time>2026-04-04T16:06:42Z</time></trkpt><trkpt lat="45.367076981782745" lon="10.889270737557878"><ele>51.33333333333333</ele><time>2026-04-04T16:06:43Z</time></trkpt><trkpt lat="45.36688494479563" lon="10.88915872831145"><ele>51.0</ele><time>2026-04-04T16:06:44Z</time></trkpt><trkpt lat="45.36669321344954" lon="10.889041426684589"><ele>51.0</ele><time>2026-04-04T16:06:45Z</time></trkpt><trkpt lat="45.366501291950435" lon="10.888913428464178"><ele>51.0</ele><time>2026-04-04T16:06:46Z</time></trkpt><trkpt lat="45.36631369787532" lon="10.888777688900577"><ele>51.0</ele><time>2026-04-04T16:06:47Z</time></trkpt><trkpt lat="45.366126515054695" lon="10.888633333564055"><ele>50.66666666666667</ele><time>2026-04-04T16:06:48Z</time></trkpt><trkpt lat="45.3659632169398" lon="10.8884789029532"><ele>50.333333333333336</ele><time>2026-04-04T16:06:49Z</time></trkpt><trkpt lat="45.36580223514475" lon="10.888329564229824"><ele>50.0</ele><time>2026-04-04T16:06:50Z</time></trkpt><trkpt lat="45.36564779763096" lon="10.88817747539174"><ele>49.66666666666667</ele><time>2026-04-04T16:06:51Z</time></trkpt><trkpt lat="45.36549845029671" lon="10.888024267595272"><ele>49.33333333333333</ele><time>2026-04-04T16:06:52Z</time></trkpt><trkpt lat="45.365350792751144" lon="10.887861829004578"><ele>49.0</ele><time>2026-04-04T16:06:53Z</time></trkpt><trkpt lat="45.365206578223834" lon="10.887699198592802"><ele>49.0</ele><time>2026-04-04T16:06:54Z</time></trkpt><trkpt lat="45.365067541767885" lon="10.887533393008031"><ele>49.0</ele><time>2026-04-04T16:06:55Z</time></trkpt><trkpt lat="45.364935715544995" lon="10.887363862950764"><ele>49.0</ele><time>2026-04-04T16:06:56Z</time></trkpt><trkpt lat="45.36481465428584" lon="10.887199127923965"><ele>49.0</ele><time>2026-04-04T16:06:57Z</time></trkpt><trkpt lat="45.36469747491767" lon="10.887032159925777"><ele>49.0</ele><time>2026-04-04T16:06:58Z</time></trkpt><trkpt lat="45.36458558398407" lon="10.886865463687888"><ele>49.0</ele><time>2026-04-04T16:06:59Z</time></trkpt><trkpt lat="45.36447458192495" lon="10.88669273842212"><ele>49.33333333333333</ele><time>2026-04-04T16:07:00Z</time></trkpt><trkpt lat="45.36436539990891" lon="10.886515453670434"><ele>49.66666666666667</ele><time>2026-04-04T16:07:01Z</time></trkpt><trkpt lat="45.364257046858974" lon="10.886334760950962"><ele>50.0</ele><time>2026-04-04T16:07:02Z</time></trkpt><trkpt lat="45.364141776573675" lon="10.886163109639718"><ele>50.0</ele><time>2026-04-04T16:07:03Z</time></trkpt><trkpt lat="45.36403655064025" lon="10.885981987223513"><ele>50.0</ele><time>2026-04-04T16:07:04Z</time></trkpt><trkpt lat="45.36393272790141" lon="10.885800260659728"><ele>50.0</ele><time>2026-04-04T16:07:05Z</time></trkpt><trkpt lat="45.36383190909576" lon="10.88562483570864"><ele>48.66666666666667</ele><time>2026-04-04T16:07:06Z</time></trkpt><trkpt lat="45.363731434192395" lon="10.885450946634538"><ele>47.333333333333336</ele><time>2026-04-04T16:07:07Z</time></trkpt><trkpt lat="45.36362931375097" lon="10.885279823264112"><ele>46.0</ele><time>2026-04-04T16:07:08Z</time></trkpt><trkpt lat="45.36352796973742" lon="10.885114254882396"><ele>46.75</ele><time>2026-04-04T16:07:09Z</time></trkpt><trkpt lat="45.36343575668979" lon="10.884959285759804"><ele>47.5</ele><time>2026-04-04T16:07:10Z</time></trkpt><trkpt lat="45.363360314845785" lon="10.88482171502026"><ele>48.25</ele><time>2026-04-04T16:07:11Z</time></trkpt><trkpt lat="45.363290461359036" lon="10.884684757211925"><ele>49.0</ele><time>2026-04-04T16:07:12Z</time></trkpt><trkpt lat="45.36322824808194" lon="10.884555969365499"><ele>49.0</ele><time>2026-04-04T16:07:13Z</time></trkpt><trkpt lat="45.363177591806206" lon="10.884430073090847"><ele>49.0</ele><time>2026-04-04T16:07:14Z</time></trkpt><trkpt lat="45.36314986510962" lon="10.884300334379764"><ele>49.0</ele><time>2026-04-04T16:07:15Z</time></trkpt><trkpt lat="45.363141461976866" lon="10.884156466376197"><ele>49.0</ele><time>2026-04-04T16:07:16Z</time></trkpt><trkpt lat="45.363138883207895" lon="10.884007460743645"><ele>49.0</ele><time>2026-04-04T16:07:17Z</time></trkpt><trkpt lat="45.3631285356418" lon="10.883858652624083"><ele>49.0</ele><time>2026-04-04T16:07:18Z</time></trkpt><trkpt lat="45.36309300384075" lon="10.883725730144548"><ele>49.0</ele><time>2026-04-04T16:07:19Z</time></trkpt><trkpt lat="45.363032300901054" lon="10.883624698385875"><ele>49.0</ele><time>2026-04-04T16:07:20Z</time></trkpt><trkpt lat="45.36294853271666" lon="10.883554285268099"><ele>49.0</ele><time>2026-04-04T16:07:21Z</time></trkpt><trkpt lat="45.36285791779127" lon="10.883495168161968"><ele>49.0</ele><time>2026-04-04T16:07:22Z</time></trkpt><trkpt lat="45.36275948266929" lon="10.883477276478766"><ele>48.75</ele><time>2026-04-04T16:07:23Z</time></trkpt><trkpt lat="45.36266145547229" lon="10.883596286685707"><ele>48.5</ele><time>2026-04-04T16:07:24Z</time></trkpt><trkpt lat="45.362578495705066" lon="10.883687014758205"><ele>48.25</ele><time>2026-04-04T16:07:25Z</time></trkpt><trkpt lat="45.36249341540286" lon="10.883791617803993"><ele>48.0</ele><time>2026-04-04T16:07:26Z</time></trkpt><trkpt lat="45.362388624827695" lon="10.883872977606108"><ele>48.0</ele><time>2026-04-04T16:07:27Z</time></trkpt><trkpt lat="45.36227084795838" lon="10.88394223493924"><ele>48.0</ele><time>2026-04-04T16:07:28Z</time></trkpt><trkpt lat="45.362120731428696" lon="10.883884681268421"><ele>48.0</ele><time>2026-04-04T16:07:29Z</time></trkpt><trkpt lat="45.361977464233064" lon="10.88389539270846"><ele>48.0</ele><time>2026-04-04T16:07:30Z</time></trkpt><trkpt lat="45.361818166150336" lon="10.883928216176189"><ele>48.0</ele><time>2026-04-04T16:07:31Z</time></trkpt><trkpt lat="45.36163531491955" lon="10.883991473312852"><ele>48.0</ele><time>2026-04-04T16:07:32Z</time></trkpt><trkpt lat="45.361437260216135" lon="10.884068942347529"><ele>48.0</ele><time>2026-04-04T16:07:33Z</time></trkpt><trkpt lat="45.36122087040234" lon="10.884146280538744"><ele>48.0</ele><time>2026-04-04T16:07:34Z</time></trkpt><trkpt lat="45.360997960495986" lon="10.884259162169753"><ele>48.0</ele><time>2026-04-04T16:07:35Z</time></trkpt><trkpt lat="45.3607686712439" lon="10.884341553898576"><ele>47.0</ele><time>2026-04-04T16:07:36Z</time></trkpt><trkpt lat="45.36054515688885" lon="10.884435379014809"><ele>46.0</ele><time>2026-04-04T16:07:37Z</time></trkpt><trkpt lat="45.360325968647196" lon="10.884504631280391"><ele>46.0</ele><time>2026-04-04T16:07:38Z</time></trkpt><trkpt lat="45.36012119084683" lon="10.884589140685804"><ele>46.0</ele><time>2026-04-04T16:07:39Z</time></trkpt><trkpt lat="45.35993136352461" lon="10.884708499574181"><ele>46.0</ele><time>2026-04-04T16:07:40Z</time></trkpt><trkpt lat="45.35974379612571" lon="10.884830694227098"><ele>45.66666666666667</ele><time>2026-04-04T16:07:41Z</time></trkpt><trkpt lat="45.359561063757795" lon="10.884971849740092"><ele>45.333333333333336</ele><time>2026-04-04T16:07:42Z</time></trkpt><trkpt lat="45.35937067073468" lon="10.88506811624344"><ele>45.0</ele><time>2026-04-04T16:07:43Z</time></trkpt><trkpt lat="45.35918822791831" lon="10.88515919966594"><ele>44.666666666666664</ele><time>2026-04-04T16:07:44Z</time></trkpt><trkpt lat="45.35900296334016" lon="10.885233342007584"><ele>44.33333333333333</ele><time>2026-04-04T16:07:45Z</time></trkpt><trkpt lat="45.35881263499734" lon="10.885280203171872"><ele>44.0</ele><time>2026-04-04T16:07:46Z</time></trkpt><trkpt lat="45.35861928681754" lon="10.885307690555104"><ele>45.0</ele><time>2026-04-04T16:07:47Z</time></trkpt><trkpt lat="45.35842433781204" lon="10.885313685356996"><ele>46.0</ele><time>2026-04-04T16:07:48Z</time></trkpt><trkpt lat="45.358226150535494" lon="10.885305978159128"><ele>47.0</ele><time>2026-04-04T16:07:49Z</time></trkpt><trkpt lat="45.358026619702095" lon="10.88529414081041"><ele>47.0</ele><time>2026-04-04T16:07:50Z</time></trkpt><trkpt lat="45.35782500840992" lon="10.885276414591067"><ele>47.0</ele><time>2026-04-04T16:07:51Z</time></trkpt><trkpt lat="45.35762209231231" lon="10.885251577255667"><ele>47.0</ele><time>2026-04-04T16:07:52Z</time></trkpt><trkpt lat="45.357421220974516" lon="10.885226948694221"><ele>47.0</ele><time>2026-04-04T16:07:53Z</time></trkpt><trkpt lat="45.35722257596869" lon="10.885205512910849"><ele>47.0</ele><time>2026-04-04T16:07:54Z</time></trkpt><trkpt lat="45.357032594130324" lon="10.885186160198508"><ele>47.0</ele><time>2026-04-04T16:07:55.001Z</time></trkpt><trkpt lat="45.35685148694609" lon="10.885165657697296"><ele>47.0</ele><time>2026-04-04T16:07:56.001Z</time></trkpt><trkpt lat="45.35667690436421" lon="10.885157883830823"><ele>47.0</ele><time>2026-04-04T16:07:57.001Z</time></trkpt><trkpt lat="45.35651589910287" lon="10.885117021518928"><ele>47.0</ele><time>2026-04-04T16:07:58.001Z</time></trkpt><trkpt lat="45.356370942704274" lon="10.88510392887639"><ele>47.0</ele><time>2026-04-04T16:07:59.001Z</time></trkpt><trkpt lat="45.356254441499374" lon="10.885095890275734"><ele>47.0</ele><time>2026-04-04T16:08:00.001Z</time></trkpt><trkpt lat="45.35616945033252" lon="10.885112811888737"><ele>47.0</ele><time>2026-04-04T16:08:01.001Z</time></trkpt><trkpt lat="45.35606117146455" lon="10.88508600696915"><ele>47.0</ele><time>2026-04-04T16:08:03.001Z</time></trkpt><trkpt lat="45.35598473431598" lon="10.88491986683522"><ele>47.0</ele><time>2026-04-04T16:08:05.001Z</time></trkpt><trkpt lat="45.35592615078676" lon="10.88479272298367"><ele>47.0</ele><time>2026-04-04T16:08:06.001Z</time></trkpt><trkpt lat="45.35584319927833" lon="10.884656253936432"><ele>47.0</ele><time>2026-04-04T16:08:07.001Z</time></trkpt><trkpt lat="45.3557556334158" lon="10.884494535018133"><ele>47.0</ele><time>2026-04-04T16:08:08.001Z</time></trkpt><trkpt lat="45.355672065624745" lon="10.88432651691869"><ele>47.0</ele><time>2026-04-04T16:08:09.001Z</time></trkpt><trkpt lat="45.35556452765217" lon="10.884192090365662"><ele>47.0</ele><time>2026-04-04T16:08:10.001Z</time></trkpt><trkpt lat="45.35543363851562" lon="10.884086746544039"><ele>47.0</ele><time>2026-04-04T16:08:11.001Z</time></trkpt><trkpt lat="45.355288526051005" lon="10.88402856178155"><ele>47.0</ele><time>2026-04-04T16:08:12.001Z</time></trkpt><trkpt lat="45.355138461962646" lon="10.883971664000127"><ele>47.0</ele><time>2026-04-04T16:08:13.001Z</time></trkpt><trkpt lat="45.35497813813589" lon="10.883928551370182"><ele>47.0</ele><time>2026-04-04T16:08:14.001Z</time></trkpt><trkpt lat="45.35481668552604" lon="10.88385690634358"><ele>47.0</ele><time>2026-04-04T16:08:15.001Z</time></trkpt><trkpt lat="45.35465239734884" lon="10.883790116932433"><ele>46.666666666666664</ele><time>2026-04-04T16:08:16.001Z</time></trkpt><trkpt lat="45.35448600955586" lon="10.883714307114916"><ele>46.333333333333336</ele><time>2026-04-04T16:08:17.001Z</time></trkpt><trkpt lat="45.35432016830405" lon="10.883635006649408"><ele>46.0</ele><time>2026-04-04T16:08:18.001Z</time></trkpt><trkpt lat="45.35415447761778" lon="10.883553932280506"><ele>46.0</ele><time>2026-04-04T16:08:19.001Z</time></trkpt><trkpt lat="45.35399559095267" lon="10.883476187183408"><ele>46.0</ele><time>2026-04-04T16:08:20.001Z</time></trkpt><trkpt lat="45.35384670751378" lon="10.883403489501127"><ele>46.0</ele><time>2026-04-04T16:08:21.001Z</time></trkpt><trkpt lat="45.353706518487144" lon="10.883338405512275"><ele>46.199999999999996</ele><time>2026-04-04T16:08:22.001Z</time></trkpt><trkpt lat="45.353578856672485" lon="10.883279137409147"><ele>46.4</ele><time>2026-04-04T16:08:23.001Z</time></trkpt><trkpt lat="45.353465366655136" lon="10.883226448598496"><ele>46.6</ele><time>2026-04-04T16:08:24.001Z</time></trkpt><trkpt lat="45.35337018854575" lon="10.883180439681958"><ele>46.8</ele><time>2026-04-04T16:08:25.001Z</time></trkpt><trkpt lat="45.353293149580814" lon="10.883142961180463"><ele>47.0</ele><time>2026-04-04T16:08:26.001Z</time></trkpt><trkpt lat="45.35322570921392" lon="10.883110152357634"><ele>47.0</ele><time>2026-04-04T16:08:27.001Z</time></trkpt><trkpt lat="45.353150448400065" lon="10.883072238818214"><ele>47.0</ele><time>2026-04-04T16:08:28.001Z</time></trkpt><trkpt lat="45.35305651609554" lon="10.883026440854856"><ele>47.0</ele><time>2026-04-04T16:08:29.001Z</time></trkpt><trkpt lat="45.35294908245644" lon="10.882974053944906"><ele>47.0</ele><time>2026-04-04T16:08:30.001Z</time></trkpt><trkpt lat="45.35283100018978" lon="10.882912686283657"><ele>47.0</ele><time>2026-04-04T16:08:31.001Z</time></trkpt><trkpt lat="45.35269960163675" lon="10.882844532082098"><ele>47.0</ele><time>2026-04-04T16:08:32.001Z</time></trkpt><trkpt lat="45.35256061146313" lon="10.882772661745014"><ele>47.0</ele><time>2026-04-04T16:08:33.001Z</time></trkpt><trkpt lat="45.35242472659274" lon="10.882705286212522"><ele>47.0</ele><time>2026-04-04T16:08:34.001Z</time></trkpt><trkpt lat="45.352289590559714" lon="10.882638059548283"><ele>47.0</ele><time>2026-04-04T16:08:35.001Z</time></trkpt><trkpt lat="45.35215763117996" lon="10.882571608001061"><ele>47.0</ele><time>2026-04-04T16:08:36.001Z</time></trkpt><trkpt lat="45.35203003969392" lon="10.882508610732327"><ele>47.0</ele><time>2026-04-04T16:08:37.001Z</time></trkpt><trkpt lat="45.35190679720278" lon="10.88245689030846"><ele>47.0</ele><time>2026-04-04T16:08:38.001Z</time></trkpt><trkpt lat="45.351788818242525" lon="10.882418013020414"><ele>47.0</ele><time>2026-04-04T16:08:39.001Z</time></trkpt><trkpt lat="45.35166297235207" lon="10.88242986153638"><ele>47.0</ele><time>2026-04-04T16:08:40Z</time></trkpt><trkpt lat="45.35153896058267" lon="10.882431788097184"><ele>47.0</ele><time>2026-04-04T16:08:41Z</time></trkpt><trkpt lat="45.35142046429106" lon="10.882411686272592"><ele>47.0</ele><time>2026-04-04T16:08:42Z</time></trkpt><trkpt lat="45.35130474469019" lon="10.882413490700438"><ele>47.0</ele><time>2026-04-04T16:08:43Z</time></trkpt><trkpt lat="45.3511863942383" lon="10.882416083305918"><ele>47.25</ele><time>2026-04-04T16:08:44Z</time></trkpt><trkpt lat="45.351057357943965" lon="10.882418909998494"><ele>47.5</ele><time>2026-04-04T16:08:45Z</time></trkpt><trkpt lat="45.35092318986451" lon="10.882421849102274"><ele>47.75</ele><time>2026-04-04T16:08:46Z</time></trkpt><trkpt lat="45.3507832093792" lon="10.88242491553938"><ele>48.0</ele><time>2026-04-04T16:08:47Z</time></trkpt><trkpt lat="45.35064386657755" lon="10.882426972333864"><ele>47.75</ele><time>2026-04-04T16:08:48Z</time></trkpt><trkpt lat="45.35050721295712" lon="10.882426144309337"><ele>47.5</ele><time>2026-04-04T16:08:49Z</time></trkpt><trkpt lat="45.35037342804223" lon="10.882414900651083"><ele>47.25</ele><time>2026-04-04T16:08:50Z</time></trkpt><trkpt lat="45.35024318878021" lon="10.88239100032317"><ele>47.0</ele><time>2026-04-04T16:08:51Z</time></trkpt><trkpt lat="45.35011406389068" lon="10.882358935410515"><ele>47.0</ele><time>2026-04-04T16:08:52Z</time></trkpt><trkpt lat="45.34998553687822" lon="10.88234358161016"><ele>47.0</ele><time>2026-04-04T16:08:53Z</time></trkpt><trkpt lat="45.34986812114132" lon="10.882281170967147"><ele>47.0</ele><time>2026-04-04T16:08:54Z</time></trkpt><trkpt lat="45.349756321992544" lon="10.882238725018615"><ele>47.0</ele><time>2026-04-04T16:08:55Z</time></trkpt><trkpt lat="45.34965028057495" lon="10.88219947397142"><ele>46.83333333333333</ele><time>2026-04-04T16:08:56Z</time></trkpt><trkpt lat="45.349548304494796" lon="10.882161715455602"><ele>46.666666666666664</ele><time>2026-04-04T16:08:57Z</time></trkpt><trkpt lat="45.349448531348166" lon="10.88214755074921"><ele>46.5</ele><time>2026-04-04T16:08:58Z</time></trkpt><trkpt lat="45.34938126728322" lon="10.88211625167149"><ele>46.333333333333336</ele><time>2026-04-04T16:08:59Z</time></trkpt><trkpt lat="45.349309360924636" lon="10.882056246153587"><ele>46.16666666666667</ele><time>2026-04-04T16:09:02.001Z</time></trkpt><trkpt lat="45.34923796660339" lon="10.882014421742005"><ele>46.0</ele><time>2026-04-04T16:09:04.001Z</time></trkpt><trkpt lat="45.34915347613179" lon="10.881959791145134"><ele>46.0</ele><time>2026-04-04T16:09:06.001Z</time></trkpt><trkpt lat="45.34906861933493" lon="10.881902240797643"><ele>46.0</ele><time>2026-04-04T16:09:08.001Z</time></trkpt><trkpt lat="45.348994582549075" lon="10.881822336817777"><ele>46.0</ele><time>2026-04-04T16:09:10.001Z</time></trkpt><trkpt lat="45.34892338438143" lon="10.881745575168551"><ele>46.0</ele><time>2026-04-04T16:09:12.001Z</time></trkpt><trkpt lat="45.348861087142886" lon="10.881677137301851"><ele>46.0</ele><time>2026-04-04T16:09:14.001Z</time></trkpt><trkpt lat="45.34879776502052" lon="10.881605512705548"><ele>46.0</ele><time>2026-04-04T16:09:16.001Z</time></trkpt><trkpt lat="45.34874120745283" lon="10.88154028335563"><ele>45.833333333333336</ele><time>2026-04-04T16:09:18.001Z</time></trkpt><trkpt lat="45.348690185055055" lon="10.881453612394559"><ele>45.66666666666667</ele><time>2026-04-04T16:09:20.001Z</time></trkpt><trkpt lat="45.34862031432531" lon="10.881400199103712"><ele>45.5</ele><time>2026-04-04T16:09:22.001Z</time></trkpt><trkpt lat="45.348562811618194" lon="10.881334012267274"><ele>45.333333333333336</ele><time>2026-04-04T16:09:24.001Z</time></trkpt><trkpt lat="45.3485118553163" lon="10.881266758130762"><ele>45.166666666666664</ele><time>2026-04-04T16:09:26.001Z</time></trkpt><trkpt lat="45.348453433909974" lon="10.881163351034468"><ele>45.0</ele><time>2026-04-04T16:09:29.001Z</time></trkpt><trkpt lat="45.34842438230131" lon="10.881060995214655"><ele>45.0</ele><time>2026-04-04T16:09:31.001Z</time></trkpt><trkpt lat="45.34837717317554" lon="10.880930741567443"><ele>45.0</ele><time>2026-04-04T16:09:33.001Z</time></trkpt><trkpt lat="45.34826502584369" lon="10.880897012963729"><ele>45.0</ele><time>2026-04-04T16:09:35.001Z</time></trkpt><trkpt lat="45.34819615559099" lon="10.880924422857008"><ele>45.0</ele><time>2026-04-04T16:09:36.001Z</time></trkpt><trkpt lat="45.348114450263374" lon="10.880958547883056"><ele>45.0</ele><time>2026-04-04T16:09:37.001Z</time></trkpt><trkpt lat="45.34802206271049" lon="10.880987663970837"><ele>45.6</ele><time>2026-04-04T16:09:38.001Z</time></trkpt><trkpt lat="45.347928336864776" lon="10.881012184728219"><ele>46.2</ele><time>2026-04-04T16:09:39.001Z</time></trkpt><trkpt lat="45.347835889994116" lon="10.881011925297202"><ele>46.8</ele><time>2026-04-04T16:09:40.001Z</time></trkpt><trkpt lat="45.34774634874183" lon="10.881020766687767"><ele>47.4</ele><time>2026-04-04T16:09:41.001Z</time></trkpt><trkpt lat="45.34765701715458" lon="10.881022971399334"><ele>48.0</ele><time>2026-04-04T16:09:42.001Z</time></trkpt><trkpt lat="45.347567203399265" lon="10.881020363233674"><ele>48.0</ele><time>2026-04-04T16:09:43.001Z</time></trkpt><trkpt lat="45.34747775655802" lon="10.881011928381598"><ele>48.0</ele><time>2026-04-04T16:09:44.001Z</time></trkpt><trkpt lat="45.347390149384594" lon="10.881001628619197"><ele>48.0</ele><time>2026-04-04T16:09:45.001Z</time></trkpt><trkpt lat="45.347303579921444" lon="10.88098922586952"><ele>48.0</ele><time>2026-04-04T16:09:46.001Z</time></trkpt><trkpt lat="45.34721860383184" lon="10.880997690456944"><ele>48.0</ele><time>2026-04-04T16:09:47Z</time></trkpt><trkpt lat="45.34713395292026" lon="10.880983980577623"><ele>48.0</ele><time>2026-04-04T16:09:48Z</time></trkpt><trkpt lat="45.34704896600528" lon="10.880949521768223"><ele>48.333333333333336</ele><time>2026-04-04T16:09:49Z</time></trkpt><trkpt lat="45.34696259981322" lon="10.880942282865007"><ele>48.66666666666667</ele><time>2026-04-04T16:09:50Z</time></trkpt><trkpt lat="45.3468746768948" lon="10.880952496343616"><ele>49.0</ele><time>2026-04-04T16:09:51Z</time></trkpt><trkpt lat="45.34679083650504" lon="10.880998411526834"><ele>49.333333333333336</ele><time>2026-04-04T16:09:52Z</time></trkpt><trkpt lat="45.3467037872964" lon="10.881031726496401"><ele>49.66666666666667</ele><time>2026-04-04T16:09:53Z</time></trkpt><trkpt lat="45.34662642098969" lon="10.881068964192881"><ele>50.0</ele><time>2026-04-04T16:09:54Z</time></trkpt><trkpt lat="45.34656098038039" lon="10.88110614070044"><ele>50.00000000000001</ele><time>2026-04-04T16:09:55Z</time></trkpt><trkpt lat="45.34649545291766" lon="10.881140067815412"><ele>50.0</ele><time>2026-04-04T16:09:56Z</time></trkpt><trkpt lat="45.346428285442286" lon="10.881151754433766"><ele>50.0</ele><time>2026-04-04T16:09:57Z</time></trkpt><trkpt lat="45.346347228891005" lon="10.881206408212915"><ele>50.0</ele><time>2026-04-04T16:09:59Z</time></trkpt><trkpt lat="45.34627594810447" lon="10.881254470491264"><ele>50.00000000000001</ele><time>2026-04-04T16:10:01Z</time></trkpt><trkpt lat="45.34617528925889" lon="10.881322341014288"><ele>50.0</ele><time>2026-04-04T16:10:03Z</time></trkpt><trkpt lat="45.34611528364463" lon="10.881362608567601"><ele>49.16666666666667</ele><time>2026-04-04T16:10:04Z</time></trkpt><trkpt lat="45.34605051979131" lon="10.881404855305568"><ele>48.333333333333336</ele><time>2026-04-04T16:10:05Z</time></trkpt><trkpt lat="45.3459709858833" lon="10.881453636123565"><ele>47.5</ele><time>2026-04-04T16:10:06Z</time></trkpt><trkpt lat="45.34588661722394" lon="10.881505381973875"><ele>46.66666666666667</ele><time>2026-04-04T16:10:07Z</time></trkpt><trkpt lat="45.345796207198" lon="10.881555794226305"><ele>45.833333333333336</ele><time>2026-04-04T16:10:08Z</time></trkpt><trkpt lat="45.34570246359325" lon="10.881606563946438"><ele>45.0</ele><time>2026-04-04T16:10:09Z</time></trkpt><trkpt lat="45.34560189386029" lon="10.88166028778844"><ele>44.8</ele><time>2026-04-04T16:10:10Z</time></trkpt><trkpt lat="45.345497786387746" lon="10.881712676483057"><ele>44.6</ele><time>2026-04-04T16:10:11Z</time></trkpt><trkpt lat="45.345392182687036" lon="10.881765305184816"><ele>44.400000000000006</ele><time>2026-04-04T16:10:12Z</time></trkpt><trkpt lat="45.34528802147753" lon="10.881816953294829"><ele>44.2</ele><time>2026-04-04T16:10:13Z</time></trkpt><trkpt lat="45.34518713531625" lon="10.881866977483439"><ele>44.0</ele><time>2026-04-04T16:10:14Z</time></trkpt><trkpt lat="45.34508940754324" lon="10.881915435588443"><ele>44.0</ele><time>2026-04-04T16:10:15Z</time></trkpt><trkpt lat="45.344998723964096" lon="10.881961046840564"><ele>44.0</ele><time>2026-04-04T16:10:16Z</time></trkpt><trkpt lat="45.344914226955574" lon="10.882003827286486"><ele>44.0</ele><time>2026-04-04T16:10:17Z</time></trkpt><trkpt lat="45.34481886965755" lon="10.882056817793258"><ele>44.0</ele><time>2026-04-04T16:10:18Z</time></trkpt><trkpt lat="45.344703805285164" lon="10.882126409226474"><ele>44.0</ele><time>2026-04-04T16:10:19Z</time></trkpt><trkpt lat="45.34456689614585" lon="10.882215350995205"><ele>44.25</ele><time>2026-04-04T16:10:20Z</time></trkpt><trkpt lat="45.34443017381435" lon="10.882310218867511"><ele>44.5</ele><time>2026-04-04T16:10:21Z</time></trkpt><trkpt lat="45.344305171587926" lon="10.882427351174966"><ele>44.75</ele><time>2026-04-04T16:10:22Z</time></trkpt><trkpt lat="45.34420888438793" lon="10.882584689740185"><ele>45.0</ele><time>2026-04-04T16:10:23Z</time></trkpt><trkpt lat="45.344109826311836" lon="10.882739946192999"><ele>45.0</ele><time>2026-04-04T16:10:24Z</time></trkpt><trkpt lat="45.34402005708191" lon="10.8829206221396"><ele>45.0</ele><time>2026-04-04T16:10:25Z</time></trkpt><trkpt lat="45.34391174471649" lon="10.883089390996348"><ele>45.0</ele><time>2026-04-04T16:10:26Z</time></trkpt><trkpt lat="45.34380929318653" lon="10.88328399737728"><ele>45.0</ele><time>2026-04-04T16:10:27Z</time></trkpt><trkpt lat="45.34369939972229" lon="10.88347346777053"><ele>45.0</ele><time>2026-04-04T16:10:28Z</time></trkpt><trkpt lat="45.343582623080344" lon="10.883649571394287"><ele>45.0</ele><time>2026-04-04T16:10:29Z</time></trkpt><trkpt lat="45.34345674251492" lon="10.883809981514563"><ele>45.0</ele><time>2026-04-04T16:10:30Z</time></trkpt><trkpt lat="45.34333248852977" lon="10.883960288910933"><ele>45.0</ele><time>2026-04-04T16:10:31Z</time></trkpt><trkpt lat="45.34321473876844" lon="10.884090452106587"><ele>45.0</ele><time>2026-04-04T16:10:32Z</time></trkpt><trkpt lat="45.34310440912045" lon="10.884177012103745"><ele>45.0</ele><time>2026-04-04T16:10:33Z</time></trkpt><trkpt lat="45.34299315744072" lon="10.88424098741752"><ele>44.25</ele><time>2026-04-04T16:10:34Z</time></trkpt><trkpt lat="45.3428705282437" lon="10.884276054831792"><ele>43.5</ele><time>2026-04-04T16:10:35Z</time></trkpt><trkpt lat="45.34273847695129" lon="10.884308592154841"><ele>42.75</ele><time>2026-04-04T16:10:36Z</time></trkpt><trkpt lat="45.34262604706766" lon="10.884331706831142"><ele>42.0</ele><time>2026-04-04T16:10:37Z</time></trkpt><trkpt lat="45.3425341732179" lon="10.88435141102009"><ele>42.0</ele><time>2026-04-04T16:10:38Z</time></trkpt><trkpt lat="45.3424671553519" lon="10.884373130961452"><ele>42.0</ele><time>2026-04-04T16:10:39Z</time></trkpt><trkpt lat="45.342402947956565" lon="10.884507438813122"><ele>42.0</ele><time>2026-04-04T16:10:41Z</time></trkpt><trkpt lat="45.342428125051384" lon="10.884625681764682"><ele>42.0</ele><time>2026-04-04T16:10:42Z</time></trkpt><trkpt lat="45.34245198309918" lon="10.884780066060852"><ele>42.0</ele><time>2026-04-04T16:10:43Z</time></trkpt><trkpt lat="45.34248676738683" lon="10.884989232424582"><ele>42.666666666666664</ele><time>2026-04-04T16:10:44Z</time></trkpt><trkpt lat="45.342515276983434" lon="10.885231950076085"><ele>43.33333333333333</ele><time>2026-04-04T16:10:45Z</time></trkpt><trkpt lat="45.342532037039916" lon="10.885476614006564"><ele>44.0</ele><time>2026-04-04T16:10:46Z</time></trkpt><trkpt lat="45.3425405873704" lon="10.885694054092841"><ele>44.0</ele><time>2026-04-04T16:10:47Z</time></trkpt><trkpt lat="45.3425308431851" lon="10.885896351364531"><ele>44.0</ele><time>2026-04-04T16:10:48Z</time></trkpt><trkpt lat="45.34249677440427" lon="10.886094805295873"><ele>44.0</ele><time>2026-04-04T16:10:49Z</time></trkpt><trkpt lat="45.34244758391469" lon="10.886291831947629"><ele>44.0</ele><time>2026-04-04T16:10:50Z</time></trkpt><trkpt lat="45.34237931232003" lon="10.886474877472455"><ele>44.25</ele><time>2026-04-04T16:10:51Z</time></trkpt><trkpt lat="45.342340607844214" lon="10.886654978315875"><ele>44.5</ele><time>2026-04-04T16:10:52Z</time></trkpt><trkpt lat="45.34225935518975" lon="10.886781379875675"><ele>44.75</ele><time>2026-04-04T16:10:53Z</time></trkpt><trkpt lat="45.342184148759905" lon="10.886890256384756"><ele>45.0</ele><time>2026-04-04T16:10:54Z</time></trkpt><trkpt lat="45.34209018033149" lon="10.886979679514072"><ele>44.25</ele><time>2026-04-04T16:10:55Z</time></trkpt><trkpt lat="45.3419742644759" lon="10.887057947734387"><ele>43.5</ele><time>2026-04-04T16:10:56Z</time></trkpt><trkpt lat="45.34184537461618" lon="10.887121675483149"><ele>42.75</ele><time>2026-04-04T16:10:57Z</time></trkpt><trkpt lat="45.34171373355201" lon="10.887176801022273"><ele>42.0</ele><time>2026-04-04T16:10:58Z</time></trkpt><trkpt lat="45.34160038507273" lon="10.887207911488886"><ele>42.0</ele><time>2026-04-04T16:10:59Z</time></trkpt><trkpt lat="45.34152301930308" lon="10.887199595961814"><ele>42.0</ele><time>2026-04-04T16:11:00Z</time></trkpt><trkpt lat="45.34145153430506" lon="10.88719398944865"><ele>42.0</ele><time>2026-04-04T16:11:01Z</time></trkpt><trkpt lat="45.34138519348841" lon="10.887126407040638"><ele>42.0</ele><time>2026-04-04T16:11:02Z</time></trkpt><trkpt lat="45.34132281918842" lon="10.887054200025474"><ele>42.0</ele><time>2026-04-04T16:11:03Z</time></trkpt><trkpt lat="45.341261039273824" lon="10.887026061064788"><ele>42.0</ele><time>2026-04-04T16:11:04Z</time></trkpt><trkpt lat="45.34115281459844" lon="10.887089834279662"><ele>41.8</ele><time>2026-04-04T16:11:06Z</time></trkpt><trkpt lat="45.34115603904223" lon="10.887214289102566"><ele>41.6</ele><time>2026-04-04T16:11:07Z</time></trkpt><trkpt lat="45.34118655315713" lon="10.887314224288984"><ele>41.4</ele><time>2026-04-04T16:11:08Z</time></trkpt><trkpt lat="45.341156514712395" lon="10.887430146202158"><ele>41.199999999999996</ele><time>2026-04-04T16:11:09Z</time></trkpt><trkpt lat="45.34116215149372" lon="10.88753449331017"><ele>41.0</ele><time>2026-04-04T16:11:10Z</time></trkpt><trkpt lat="45.34096054304914" lon="10.887648893758172"><ele>41.0</ele><time>2026-04-04T16:11:12Z</time></trkpt><trkpt lat="45.34086191977313" lon="10.887740763063679"><ele>41.0</ele><time>2026-04-04T16:11:13Z</time></trkpt><trkpt lat="45.340745453618105" lon="10.887815491472747"><ele>41.0</ele><time>2026-04-04T16:11:14Z</time></trkpt><trkpt lat="45.34061474690917" lon="10.88790671489838"><ele>41.0</ele><time>2026-04-04T16:11:15Z</time></trkpt><trkpt lat="45.34047456466611" lon="10.888005219043565"><ele>40.666666666666664</ele><time>2026-04-04T16:11:16Z</time></trkpt><trkpt lat="45.340320503052084" lon="10.888110992588956"><ele>40.333333333333336</ele><time>2026-04-04T16:11:17Z</time></trkpt><trkpt lat="45.3401521252313" lon="10.88823063798657"><ele>40.0</ele><time>2026-04-04T16:11:18Z</time></trkpt><trkpt lat="45.33997175992419" lon="10.888331173603135"><ele>40.0</ele><time>2026-04-04T16:11:19Z</time></trkpt><trkpt lat="45.33980623252744" lon="10.88842266047815"><ele>40.0</ele><time>2026-04-04T16:11:20Z</time></trkpt><trkpt lat="45.33963658455499" lon="10.888487219754646"><ele>40.0</ele><time>2026-04-04T16:11:21Z</time></trkpt><trkpt lat="45.33945769518299" lon="10.888508101249705"><ele>40.0</ele><time>2026-04-04T16:11:22Z</time></trkpt><trkpt lat="45.33927224708673" lon="10.888495530612389"><ele>40.0</ele><time>2026-04-04T16:11:23Z</time></trkpt><trkpt lat="45.33907930857539" lon="10.888465533578898"><ele>40.0</ele><time>2026-04-04T16:11:24Z</time></trkpt><trkpt lat="45.338875733980245" lon="10.888418603919217"><ele>40.0</ele><time>2026-04-04T16:11:25Z</time></trkpt><trkpt lat="45.33866681677709" lon="10.88836753582257"><ele>40.0</ele><time>2026-04-04T16:11:26Z</time></trkpt><trkpt lat="45.338447721816344" lon="10.888320273211106"><ele>40.0</ele><time>2026-04-04T16:11:27Z</time></trkpt><trkpt lat="45.3382186681464" lon="10.88831914940465"><ele>40.5</ele><time>2026-04-04T16:11:28Z</time></trkpt><trkpt lat="45.337981396537444" lon="10.88830930013763"><ele>41.0</ele><time>2026-04-04T16:11:29Z</time></trkpt><trkpt lat="45.33773625964923" lon="10.888305057152127"><ele>41.0</ele><time>2026-04-04T16:11:30Z</time></trkpt><trkpt lat="45.33748406696641" lon="10.88827670588244"><ele>41.0</ele><time>2026-04-04T16:11:31Z</time></trkpt><trkpt lat="45.33722374791465" lon="10.888271252571736"><ele>40.5</ele><time>2026-04-04T16:11:32Z</time></trkpt><trkpt lat="45.336959137195656" lon="10.888269463932954"><ele>40.0</ele><time>2026-04-04T16:11:33Z</time></trkpt><trkpt lat="45.3366908911998" lon="10.888273148608654"><ele>40.0</ele><time>2026-04-04T16:11:34Z</time></trkpt><trkpt lat="45.336419149171" lon="10.888291829707018"><ele>40.0</ele><time>2026-04-04T16:11:35Z</time></trkpt><trkpt lat="45.33614306672673" lon="10.888317570252873"><ele>41.0</ele><time>2026-04-04T16:11:36Z</time></trkpt><trkpt lat="45.33586239064314" lon="10.88834699620723"><ele>42.0</ele><time>2026-04-04T16:11:37Z</time></trkpt><trkpt lat="45.335579469358414" lon="10.88837936068586"><ele>41.5</ele><time>2026-04-04T16:11:38Z</time></trkpt><trkpt lat="45.33529375471427" lon="10.888408269579905"><ele>41.0</ele><time>2026-04-04T16:11:39Z</time></trkpt><trkpt lat="45.33500629152233" lon="10.888417940386125"><ele>40.5</ele><time>2026-04-04T16:11:40Z</time></trkpt><trkpt lat="45.3347171083159" lon="10.888409853682504"><ele>40.0</ele><time>2026-04-04T16:11:41Z</time></trkpt><trkpt lat="45.33442649023971" lon="10.888410326987184"><ele>40.0</ele><time>2026-04-04T16:11:42Z</time></trkpt><trkpt lat="45.3341384086767" lon="10.888448051848368"><ele>40.0</ele><time>2026-04-04T16:11:43Z</time></trkpt><trkpt lat="45.333847966019476" lon="10.8884726999515"><ele>39.5</ele><time>2026-04-04T16:11:44Z</time></trkpt><trkpt lat="45.33356235186814" lon="10.888509656425551"><ele>39.0</ele><time>2026-04-04T16:11:45Z</time></trkpt><trkpt lat="45.333287548353944" lon="10.888518785122256"><ele>40.0</ele><time>2026-04-04T16:11:46Z</time></trkpt><trkpt lat="45.33303021790171" lon="10.888560710300974"><ele>41.0</ele><time>2026-04-04T16:11:47Z</time></trkpt><trkpt lat="45.332788269452564" lon="10.88865160491388"><ele>41.0</ele><time>2026-04-04T16:11:48Z</time></trkpt><trkpt lat="45.3325451270083" lon="10.888751966883168"><ele>41.0</ele><time>2026-04-04T16:11:49Z</time></trkpt><trkpt lat="45.332296763978796" lon="10.888859473241967"><ele>40.0</ele><time>2026-04-04T16:11:50Z</time></trkpt><trkpt lat="45.33205525145643" lon="10.889000791491346"><ele>39.0</ele><time>2026-04-04T16:11:51Z</time></trkpt><trkpt lat="45.33180645142001" lon="10.889146373942266"><ele>39.0</ele><time>2026-04-04T16:11:52Z</time></trkpt><trkpt lat="45.33155408524429" lon="10.889292462267703"><ele>39.0</ele><time>2026-04-04T16:11:53Z</time></trkpt><trkpt lat="45.33130118701578" lon="10.889433113581752"><ele>39.0</ele><time>2026-04-04T16:11:54Z</time></trkpt><trkpt lat="45.331039780765515" lon="10.88955308359962"><ele>39.0</ele><time>2026-04-04T16:11:55Z</time></trkpt><trkpt lat="45.33077823778619" lon="10.8896739301363"><ele>39.5</ele><time>2026-04-04T16:11:56Z</time></trkpt><trkpt lat="45.33052484283416" lon="10.889832846061415"><ele>40.0</ele><time>2026-04-04T16:11:57Z</time></trkpt><trkpt lat="45.33026942045658" lon="10.889984532056577"><ele>40.5</ele><time>2026-04-04T16:11:58Z</time></trkpt><trkpt lat="45.330020243503384" lon="10.890146845694273"><ele>41.0</ele><time>2026-04-04T16:11:59Z</time></trkpt><trkpt lat="45.32978474169392" lon="10.890271034794642"><ele>40.666666666666664</ele><time>2026-04-04T16:12:00Z</time></trkpt><trkpt lat="45.329595118232234" lon="10.890388756429306"><ele>40.333333333333336</ele><time>2026-04-04T16:12:01Z</time></trkpt><trkpt lat="45.329421997310675" lon="10.890475238781354"><ele>40.0</ele><time>2026-04-04T16:12:02Z</time></trkpt><trkpt lat="45.32924158276297" lon="10.890515570097662"><ele>40.0</ele><time>2026-04-04T16:12:03Z</time></trkpt><trkpt lat="45.32903978265532" lon="10.890512733266748"><ele>40.0</ele><time>2026-04-04T16:12:04Z</time></trkpt><trkpt lat="45.328818170864224" lon="10.89049387802994"><ele>40.0</ele><time>2026-04-04T16:12:05Z</time></trkpt><trkpt lat="45.328587803527604" lon="10.890472963861312"><ele>40.5</ele><time>2026-04-04T16:12:06Z</time></trkpt><trkpt lat="45.32834553686143" lon="10.890450269250438"><ele>41.0</ele><time>2026-04-04T16:12:07Z</time></trkpt><trkpt lat="45.32809547404385" lon="10.890447642828912"><ele>41.0</ele><time>2026-04-04T16:12:08Z</time></trkpt><trkpt lat="45.32784105220254" lon="10.8903925235726"><ele>41.0</ele><time>2026-04-04T16:12:09Z</time></trkpt><trkpt lat="45.327581304256576" lon="10.89035220613089"><ele>41.0</ele><time>2026-04-04T16:12:10Z</time></trkpt><trkpt lat="45.32731887529187" lon="10.890309275123899"><ele>41.0</ele><time>2026-04-04T16:12:11Z</time></trkpt><trkpt lat="45.3270544937895" lon="10.890289110776974"><ele>40.5</ele><time>2026-04-04T16:12:12Z</time></trkpt><trkpt lat="45.32679093880227" lon="10.890245163381746"><ele>40.0</ele><time>2026-04-04T16:12:13Z</time></trkpt><trkpt lat="45.326530937852944" lon="10.890208928695342"><ele>39.5</ele><time>2026-04-04T16:12:14Z</time></trkpt><trkpt lat="45.326293755709514" lon="10.890147497864058"><ele>39.0</ele><time>2026-04-04T16:12:15Z</time></trkpt><trkpt lat="45.32607725374229" lon="10.890112811927965"><ele>39.333333333333336</ele><time>2026-04-04T16:12:16Z</time></trkpt><trkpt lat="45.32588406254947" lon="10.890081860612861"><ele>39.66666666666667</ele><time>2026-04-04T16:12:17Z</time></trkpt><trkpt lat="45.32570588157358" lon="10.890053314112604"><ele>40.0</ele><time>2026-04-04T16:12:18Z</time></trkpt><trkpt lat="45.325536122165545" lon="10.89002611684578"><ele>40.0</ele><time>2026-04-04T16:12:19Z</time></trkpt><trkpt lat="45.32537722055785" lon="10.890000659094394"><ele>40.0</ele><time>2026-04-04T16:12:20Z</time></trkpt><trkpt lat="45.325231221074965" lon="10.889977613495203"><ele>40.0</ele><time>2026-04-04T16:12:21Z</time></trkpt><trkpt lat="45.325092575484675" lon="10.88997879654852"><ele>40.0</ele><time>2026-04-04T16:12:22Z</time></trkpt><trkpt lat="45.32495096757548" lon="10.889951655662925"><ele>40.0</ele><time>2026-04-04T16:12:23Z</time></trkpt><trkpt lat="45.32479935686043" lon="10.889921235754485"><ele>40.0</ele><time>2026-04-04T16:12:24Z</time></trkpt><trkpt lat="45.32464897730418" lon="10.889868405151475"><ele>40.0</ele><time>2026-04-04T16:12:25Z</time></trkpt><trkpt lat="45.32448887451116" lon="10.889767842079014"><ele>40.333333333333336</ele><time>2026-04-04T16:12:26Z</time></trkpt><trkpt lat="45.324330003025416" lon="10.889622899092274"><ele>40.666666666666664</ele><time>2026-04-04T16:12:27Z</time></trkpt><trkpt lat="45.324152269778224" lon="10.889488673205392"><ele>41.0</ele><time>2026-04-04T16:12:28Z</time></trkpt><trkpt lat="45.32396065491574" lon="10.889348853878706"><ele>39.5</ele><time>2026-04-04T16:12:29Z</time></trkpt><trkpt lat="45.323758204351776" lon="10.889203654460152"><ele>38.0</ele><time>2026-04-04T16:12:30Z</time></trkpt><trkpt lat="45.32354974644255" lon="10.889053185214324"><ele>38.0</ele><time>2026-04-04T16:12:31Z</time></trkpt><trkpt lat="45.32334435396355" lon="10.888903672552082"><ele>38.0</ele><time>2026-04-04T16:12:32Z</time></trkpt><trkpt lat="45.32315702972782" lon="10.88876777382138"><ele>38.0</ele><time>2026-04-04T16:12:33Z</time></trkpt><trkpt lat="45.32297334488211" lon="10.888654874916815"><ele>37.666666666666664</ele><time>2026-04-04T16:12:34Z</time></trkpt><trkpt lat="45.3227761931998" lon="10.888587844848264"><ele>37.333333333333336</ele><time>2026-04-04T16:12:35Z</time></trkpt><trkpt lat="45.32257189862696" lon="10.888558142808936"><ele>37.0</ele><time>2026-04-04T16:12:36Z</time></trkpt><trkpt lat="45.322358578668165" lon="10.888523055404592"><ele>37.66666666666667</ele><time>2026-04-04T16:12:37Z</time></trkpt><trkpt lat="45.3221525491403" lon="10.888457813878665"><ele>38.333333333333336</ele><time>2026-04-04T16:12:38Z</time></trkpt><trkpt lat="45.32196838619785" lon="10.88841896706129"><ele>39.0</ele><time>2026-04-04T16:12:39Z</time></trkpt><trkpt lat="45.321811544402664" lon="10.888389420032066"><ele>39.0</ele><time>2026-04-04T16:12:40Z</time></trkpt><trkpt lat="45.32168183208191" lon="10.888399830762454"><ele>39.0</ele><time>2026-04-04T16:12:41Z</time></trkpt><trkpt lat="45.321561866365776" lon="10.888418995740512"><ele>39.0</ele><time>2026-04-04T16:12:42Z</time></trkpt><trkpt lat="45.32144620644538" lon="10.888488687775723"><ele>39.0</ele><time>2026-04-04T16:12:43Z</time></trkpt><trkpt lat="45.32134329573059" lon="10.888605644189594"><ele>39.0</ele><time>2026-04-04T16:12:44Z</time></trkpt><trkpt lat="45.32126149240726" lon="10.888761346873817"><ele>39.0</ele><time>2026-04-04T16:12:45Z</time></trkpt><trkpt lat="45.3211995389595" lon="10.88894943247769"><ele>39.0</ele><time>2026-04-04T16:12:46Z</time></trkpt><trkpt lat="45.32115849039603" lon="10.889166046457088"><ele>39.0</ele><time>2026-04-04T16:12:47Z</time></trkpt><trkpt lat="45.3211324582089" lon="10.889406020749334"><ele>39.0</ele><time>2026-04-04T16:12:48Z</time></trkpt><trkpt lat="45.32111441307114" lon="10.889661321721324"><ele>39.0</ele><time>2026-04-04T16:12:49Z</time></trkpt><trkpt lat="45.32108994836279" lon="10.88991690355294"><ele>39.0</ele><time>2026-04-04T16:12:50Z</time></trkpt><trkpt lat="45.32105826194321" lon="10.890141600361144"><ele>39.25</ele><time>2026-04-04T16:12:51Z</time></trkpt><trkpt lat="45.32102524520674" lon="10.890329026413161"><ele>39.5</ele><time>2026-04-04T16:12:52Z</time></trkpt><trkpt lat="45.320974529258855" lon="10.890483482093234"><ele>39.75</ele><time>2026-04-04T16:12:53Z</time></trkpt><trkpt lat="45.32090033934933" lon="10.89061171920209"><ele>40.0</ele><time>2026-04-04T16:12:54Z</time></trkpt><trkpt lat="45.320808075546516" lon="10.890729013457369"><ele>40.0</ele><time>2026-04-04T16:12:55Z</time></trkpt><trkpt lat="45.32069611243159" lon="10.89083047254609"><ele>40.0</ele><time>2026-04-04T16:12:56Z</time></trkpt><trkpt lat="45.3205640729457" lon="10.8909072330074"><ele>40.0</ele><time>2026-04-04T16:12:57Z</time></trkpt><trkpt lat="45.32041685804202" lon="10.89089872629851"><ele>40.0</ele><time>2026-04-04T16:12:58Z</time></trkpt><trkpt lat="45.32025873138824" lon="10.890910694161718"><ele>39.66666666666667</ele><time>2026-04-04T16:12:59Z</time></trkpt><trkpt lat="45.32009183526587" lon="10.890918235820527"><ele>39.333333333333336</ele><time>2026-04-04T16:13:00Z</time></trkpt><trkpt lat="45.319917203469394" lon="10.890926127028067"><ele>39.0</ele><time>2026-04-04T16:13:01Z</time></trkpt><trkpt lat="45.31973273545282" lon="10.890934565034152"><ele>39.0</ele><time>2026-04-04T16:13:02Z</time></trkpt><trkpt lat="45.31953903470927" lon="10.890944377748024"><ele>39.0</ele><time>2026-04-04T16:13:03Z</time></trkpt><trkpt lat="45.31933860332527" lon="10.890954531429566"><ele>39.0</ele><time>2026-04-04T16:13:04Z</time></trkpt><trkpt lat="45.31913423343342" lon="10.890966072577859"><ele>39.0</ele><time>2026-04-04T16:13:05Z</time></trkpt><trkpt lat="45.318934228418506" lon="10.890980362518"><ele>39.0</ele><time>2026-04-04T16:13:06Z</time></trkpt><trkpt lat="45.31873249767749" lon="10.891034469046792"><ele>39.0</ele><time>2026-04-04T16:13:07Z</time></trkpt><trkpt lat="45.318525606228874" lon="10.891078956241195"><ele>39.333333333333336</ele><time>2026-04-04T16:13:08Z</time></trkpt><trkpt lat="45.31831478043632" lon="10.891140865747353"><ele>39.66666666666667</ele><time>2026-04-04T16:13:09Z</time></trkpt><trkpt lat="45.31810047351246" lon="10.891216760899445"><ele>40.0</ele><time>2026-04-04T16:13:10Z</time></trkpt><trkpt lat="45.31787957089024" lon="10.8912892662558"><ele>39.0</ele><time>2026-04-04T16:13:11Z</time></trkpt><trkpt lat="45.31765089046154" lon="10.891328714889415"><ele>38.0</ele><time>2026-04-04T16:13:12Z</time></trkpt><trkpt lat="45.317418740782955" lon="10.891378889162104"><ele>38.5</ele><time>2026-04-04T16:13:13Z</time></trkpt><trkpt lat="45.31718100229344" lon="10.891411094608532"><ele>39.0</ele><time>2026-04-04T16:13:14Z</time></trkpt><trkpt lat="45.31693876948695" lon="10.891432388581073"><ele>39.0</ele><time>2026-04-04T16:13:15Z</time></trkpt><trkpt lat="45.316693377416264" lon="10.89144285355975"><ele>39.0</ele><time>2026-04-04T16:13:16Z</time></trkpt><trkpt lat="45.31644731805099" lon="10.891430282483942"><ele>37.5</ele><time>2026-04-04T16:13:17Z</time></trkpt><trkpt lat="45.31620508229957" lon="10.891387128377344"><ele>36.0</ele><time>2026-04-04T16:13:18Z</time></trkpt><trkpt lat="45.31596473185291" lon="10.891333076134579"><ele>36.0</ele><time>2026-04-04T16:13:19Z</time></trkpt><trkpt lat="45.31574329491478" lon="10.891283899236585"><ele>36.0</ele><time>2026-04-04T16:13:20Z</time></trkpt><trkpt lat="45.31553548886984" lon="10.891262041835454"><ele>36.0</ele><time>2026-04-04T16:13:21Z</time></trkpt><trkpt lat="45.31533824964379" lon="10.89123969187501"><ele>36.0</ele><time>2026-04-04T16:13:22Z</time></trkpt><trkpt lat="45.31514178980594" lon="10.89125960755009"><ele>36.0</ele><time>2026-04-04T16:13:23Z</time></trkpt><trkpt lat="45.31494465021145" lon="10.891318383163048"><ele>36.0</ele><time>2026-04-04T16:13:24Z</time></trkpt><trkpt lat="45.314751197055266" lon="10.891412265420955"><ele>36.0</ele><time>2026-04-04T16:13:25Z</time></trkpt><trkpt lat="45.31456661012608" lon="10.891541922862986"><ele>36.0</ele><time>2026-04-04T16:13:26Z</time></trkpt><trkpt lat="45.314396970567074" lon="10.89170800115342"><ele>36.0</ele><time>2026-04-04T16:13:27Z</time></trkpt><trkpt lat="45.31424124288208" lon="10.891905617637159"><ele>36.333333333333336</ele><time>2026-04-04T16:13:28Z</time></trkpt><trkpt lat="45.31409282969644" lon="10.89211907805219"><ele>36.66666666666667</ele><time>2026-04-04T16:13:29Z</time></trkpt><trkpt lat="45.31394721454126" lon="10.892347212905849"><ele>37.0</ele><time>2026-04-04T16:13:30Z</time></trkpt><trkpt lat="45.31380372141766" lon="10.892579535304836"><ele>36.66666666666667</ele><time>2026-04-04T16:13:31Z</time></trkpt><trkpt lat="45.31367243413737" lon="10.892828227579583"><ele>36.333333333333336</ele><time>2026-04-04T16:13:32Z</time></trkpt><trkpt lat="45.31355844842581" lon="10.89309947790352"><ele>36.0</ele><time>2026-04-04T16:13:33Z</time></trkpt><trkpt lat="45.313452302712015" lon="10.893380513091216"><ele>36.0</ele><time>2026-04-04T16:13:34Z</time></trkpt><trkpt lat="45.31332557253318" lon="10.893652598305072"><ele>36.0</ele><time>2026-04-04T16:13:35Z</time></trkpt><trkpt lat="45.31320754234016" lon="10.893938473317231"><ele>36.0</ele><time>2026-04-04T16:13:36Z</time></trkpt><trkpt lat="45.31310158242617" lon="10.894235664208209"><ele>36.0</ele><time>2026-04-04T16:13:37Z</time></trkpt><trkpt lat="45.31298246846218" lon="10.894513625625766"><ele>35.666666666666664</ele><time>2026-04-04T16:13:38Z</time></trkpt><trkpt lat="45.31287591065271" lon="10.894764944823836"><ele>35.33333333333333</ele><time>2026-04-04T16:13:39Z</time></trkpt><trkpt lat="45.31277786667535" lon="10.894995361703142"><ele>35.0</ele><time>2026-04-04T16:13:40Z</time></trkpt><trkpt lat="45.31266543143932" lon="10.89519359858719"><ele>35.0</ele><time>2026-04-04T16:13:41Z</time></trkpt><trkpt lat="45.31255782367104" lon="10.89537053089209"><ele>35.0</ele><time>2026-04-04T16:13:42Z</time></trkpt><trkpt lat="45.31242748222555" lon="10.895502276594934"><ele>35.0</ele><time>2026-04-04T16:13:43Z</time></trkpt><trkpt lat="45.312275232150924" lon="10.895611560975269"><ele>35.0</ele><time>2026-04-04T16:13:44Z</time></trkpt><trkpt lat="45.31211403418059" lon="10.895741431405762"><ele>35.0</ele><time>2026-04-04T16:13:45Z</time></trkpt><trkpt lat="45.311928051591686" lon="10.895815207448402"><ele>35.0</ele><time>2026-04-04T16:13:46Z</time></trkpt><trkpt lat="45.31175308311883" lon="10.895909203868896"><ele>35.0</ele><time>2026-04-04T16:13:47Z</time></trkpt><trkpt lat="45.31155180805084" lon="10.895874326021259"><ele>35.0</ele><time>2026-04-04T16:13:48Z</time></trkpt><trkpt lat="45.31136250898871" lon="10.895833064394138"><ele>35.0</ele><time>2026-04-04T16:13:49Z</time></trkpt><trkpt lat="45.31117058469443" lon="10.895753879976493"><ele>35.33333333333333</ele><time>2026-04-04T16:13:50Z</time></trkpt><trkpt lat="45.31097719418859" lon="10.895640834781059"><ele>35.666666666666664</ele><time>2026-04-04T16:13:51Z</time></trkpt><trkpt lat="45.310780365835264" lon="10.895504668657955"><ele>36.0</ele><time>2026-04-04T16:13:52Z</time></trkpt><trkpt lat="45.310576837236965" lon="10.895359149689872"><ele>35.5</ele><time>2026-04-04T16:13:53Z</time></trkpt><trkpt lat="45.31036659357316" lon="10.895213322583103"><ele>35.0</ele><time>2026-04-04T16:13:54Z</time></trkpt><trkpt lat="45.310149666550544" lon="10.895065009192788"><ele>35.0</ele><time>2026-04-04T16:13:55Z</time></trkpt><trkpt lat="45.309927091938725" lon="10.89491250441219"><ele>35.0</ele><time>2026-04-04T16:13:56Z</time></trkpt><trkpt lat="45.30969972698566" lon="10.894758515974022"><ele>34.5</ele><time>2026-04-04T16:13:57Z</time></trkpt><trkpt lat="45.30946756920896" lon="10.894603463545776"><ele>34.0</ele><time>2026-04-04T16:13:58Z</time></trkpt><trkpt lat="45.30923057645633" lon="10.894443159561295"><ele>34.0</ele><time>2026-04-04T16:13:59Z</time></trkpt><trkpt lat="45.3089969559719" lon="10.894285663911687"><ele>34.0</ele><time>2026-04-04T16:14:00Z</time></trkpt><trkpt lat="45.30876698299413" lon="10.894129543660037"><ele>34.5</ele><time>2026-04-04T16:14:01Z</time></trkpt><trkpt lat="45.3085364628705" lon="10.893972721893798"><ele>35.0</ele><time>2026-04-04T16:14:02Z</time></trkpt><trkpt lat="45.30831870909496" lon="10.893800946201765"><ele>35.0</ele><time>2026-04-04T16:14:03Z</time></trkpt><trkpt lat="45.308102423232285" lon="10.89368903830475"><ele>35.0</ele><time>2026-04-04T16:14:04Z</time></trkpt><trkpt lat="45.30790510291842" lon="10.893576086779587"><ele>35.0</ele><time>2026-04-04T16:14:05Z</time></trkpt><trkpt lat="45.30770718643181" lon="10.89349691372798"><ele>35.0</ele><time>2026-04-04T16:14:06Z</time></trkpt><trkpt lat="45.30750493060113" lon="10.893460001561245"><ele>35.0</ele><time>2026-04-04T16:14:07Z</time></trkpt><trkpt lat="45.30729864167603" lon="10.89346968415485"><ele>35.0</ele><time>2026-04-04T16:14:08Z</time></trkpt><trkpt lat="45.3070854899308" lon="10.893513158116077"><ele>35.0</ele><time>2026-04-04T16:14:09Z</time></trkpt><trkpt lat="45.30686307341301" lon="10.893544220603433"><ele>35.0</ele><time>2026-04-04T16:14:10Z</time></trkpt><trkpt lat="45.30664091187749" lon="10.893595990485814"><ele>35.0</ele><time>2026-04-04T16:14:11Z</time></trkpt><trkpt lat="45.30641608657115" lon="10.89364838108924"><ele>34.666666666666664</ele><time>2026-04-04T16:14:12Z</time></trkpt><trkpt lat="45.30620380681771" lon="10.893695302263106"><ele>34.333333333333336</ele><time>2026-04-04T16:14:13Z</time></trkpt><trkpt lat="45.30601217462817" lon="10.893730093666612"><ele>34.0</ele><time>2026-04-04T16:14:14Z</time></trkpt><trkpt lat="45.30583845255807" lon="10.893740968919232"><ele>34.0</ele><time>2026-04-04T16:14:15Z</time></trkpt><trkpt lat="45.30567026407324" lon="10.89371432186201"><ele>34.0</ele><time>2026-04-04T16:14:16Z</time></trkpt><trkpt lat="45.30548962360769" lon="10.89366501872501"><ele>34.0</ele><time>2026-04-04T16:14:17Z</time></trkpt><trkpt lat="45.30529635944724" lon="10.893612051601867"><ele>34.333333333333336</ele><time>2026-04-04T16:14:18Z</time></trkpt><trkpt lat="45.30509334631248" lon="10.893577084679603"><ele>34.666666666666664</ele><time>2026-04-04T16:14:19Z</time></trkpt><trkpt lat="45.30488630970248" lon="10.893520447901636"><ele>35.0</ele><time>2026-04-04T16:14:20Z</time></trkpt><trkpt lat="45.30467656471374" lon="10.893440019311218"><ele>35.0</ele><time>2026-04-04T16:14:21Z</time></trkpt><trkpt lat="45.30445873545346" lon="10.893380848087986"><ele>35.0</ele><time>2026-04-04T16:14:22Z</time></trkpt><trkpt lat="45.30423728150613" lon="10.89332069227691"><ele>35.0</ele><time>2026-04-04T16:14:23Z</time></trkpt><trkpt lat="45.30400867551426" lon="10.893281983189757"><ele>33.5</ele><time>2026-04-04T16:14:24Z</time></trkpt><trkpt lat="45.30378083952772" lon="10.893214037612688"><ele>32.0</ele><time>2026-04-04T16:14:25Z</time></trkpt><trkpt lat="45.30354952277542" lon="10.893150306940775"><ele>32.0</ele><time>2026-04-04T16:14:26Z</time></trkpt><trkpt lat="45.30332083561908" lon="10.893090259309673"><ele>32.0</ele><time>2026-04-04T16:14:27Z</time></trkpt><trkpt lat="45.303102261865575" lon="10.893032799596813"><ele>32.666666666666664</ele><time>2026-04-04T16:14:28Z</time></trkpt><trkpt lat="45.302897094204816" lon="10.892949631226097"><ele>33.333333333333336</ele><time>2026-04-04T16:14:29Z</time></trkpt><trkpt lat="45.30270461855092" lon="10.892858831432207"><ele>34.0</ele><time>2026-04-04T16:14:30Z</time></trkpt><trkpt lat="45.3025241209817" lon="10.892732917308944"><ele>34.333333333333336</ele><time>2026-04-04T16:14:31Z</time></trkpt><trkpt lat="45.30234846936045" lon="10.892586905111632"><ele>34.666666666666664</ele><time>2026-04-04T16:14:32Z</time></trkpt><trkpt lat="45.302174113539564" lon="10.892419812635765"><ele>35.0</ele><time>2026-04-04T16:14:33Z</time></trkpt><trkpt lat="45.30199873962827" lon="10.892239956125119"><ele>35.0</ele><time>2026-04-04T16:14:34Z</time></trkpt><trkpt lat="45.30182102231735" lon="10.892056791701325"><ele>35.0</ele><time>2026-04-04T16:14:35Z</time></trkpt><trkpt lat="45.30163235091293" lon="10.89188803419044"><ele>35.0</ele><time>2026-04-04T16:14:36Z</time></trkpt><trkpt lat="45.30144987351819" lon="10.891699904423115"><ele>35.0</ele><time>2026-04-04T16:14:37Z</time></trkpt><trkpt lat="45.30126752843872" lon="10.891508396188998"><ele>35.0</ele><time>2026-04-04T16:14:38Z</time></trkpt><trkpt lat="45.30109153731959" lon="10.891327603780285"><ele>35.0</ele><time>2026-04-04T16:14:39Z</time></trkpt><trkpt lat="45.30091244970595" lon="10.891172536403198"><ele>35.0</ele><time>2026-04-04T16:14:40Z</time></trkpt><trkpt lat="45.30071626420541" lon="10.891048322666792"><ele>35.0</ele><time>2026-04-04T16:14:41Z</time></trkpt><trkpt lat="45.30050820341485" lon="10.89094333189282"><ele>35.0</ele><time>2026-04-04T16:14:42Z</time></trkpt><trkpt lat="45.300292981027404" lon="10.890847888915498"><ele>34.0</ele><time>2026-04-04T16:14:43Z</time></trkpt><trkpt lat="45.30007098349964" lon="10.89076466603467"><ele>33.0</ele><time>2026-04-04T16:14:44Z</time></trkpt><trkpt lat="45.29985177823526" lon="10.890659663542799"><ele>33.0</ele><time>2026-04-04T16:14:45Z</time></trkpt><trkpt lat="45.299625942846674" lon="10.890570292533608"><ele>33.0</ele><time>2026-04-04T16:14:46Z</time></trkpt><trkpt lat="45.299393526312166" lon="10.890497436037753"><ele>33.0</ele><time>2026-04-04T16:14:47Z</time></trkpt><trkpt lat="45.299172962554344" lon="10.890369023882663"><ele>33.0</ele><time>2026-04-04T16:14:48Z</time></trkpt><trkpt lat="45.298957223028886" lon="10.890242994847613"><ele>34.0</ele><time>2026-04-04T16:14:49Z</time></trkpt><trkpt lat="45.29874186670055" lon="10.890107926171604"><ele>35.0</ele><time>2026-04-04T16:14:50Z</time></trkpt><trkpt lat="45.298518386342536" lon="10.889997316210149"><ele>35.0</ele><time>2026-04-04T16:14:51Z</time></trkpt><trkpt lat="45.298300916249595" lon="10.889868977696851"><ele>35.0</ele><time>2026-04-04T16:14:52Z</time></trkpt><trkpt lat="45.29807767305276" lon="10.889750460386148"><ele>35.0</ele><time>2026-04-04T16:14:53Z</time></trkpt><trkpt lat="45.29784954575036" lon="10.889636684300566"><ele>35.0</ele><time>2026-04-04T16:14:54Z</time></trkpt><trkpt lat="45.29762038523374" lon="10.889526856800181"><ele>35.0</ele><time>2026-04-04T16:14:55Z</time></trkpt><trkpt lat="45.29738945837503" lon="10.889421995946027"><ele>35.0</ele><time>2026-04-04T16:14:56Z</time></trkpt><trkpt lat="45.29715651665777" lon="10.889329963482634"><ele>33.5</ele><time>2026-04-04T16:14:57Z</time></trkpt><trkpt lat="45.29692757423343" lon="10.889245403231955"><ele>32.0</ele><time>2026-04-04T16:14:58Z</time></trkpt><trkpt lat="45.29672443228285" lon="10.88912215134059"><ele>32.0</ele><time>2026-04-04T16:14:59Z</time></trkpt><trkpt lat="45.296526131716824" lon="10.888994219980507"><ele>32.0</ele><time>2026-04-04T16:15:00Z</time></trkpt><trkpt lat="45.29632021400773" lon="10.888894724517213"><ele>32.0</ele><time>2026-04-04T16:15:01Z</time></trkpt><trkpt lat="45.296116955074886" lon="10.888787428594723"><ele>32.33333333333333</ele><time>2026-04-04T16:15:02Z</time></trkpt><trkpt lat="45.29590618188259" lon="10.888718986803827"><ele>32.666666666666664</ele><time>2026-04-04T16:15:03Z</time></trkpt><trkpt lat="45.29568982568382" lon="10.888684108430478"><ele>33.0</ele><time>2026-04-04T16:15:04Z</time></trkpt><trkpt lat="45.29547053100017" lon="10.888681855134823"><ele>33.333333333333336</ele><time>2026-04-04T16:15:05Z</time></trkpt><trkpt lat="45.29525193801169" lon="10.888702975647824"><ele>33.66666666666667</ele><time>2026-04-04T16:15:06Z</time></trkpt><trkpt lat="45.29502871273131" lon="10.888724527241868"><ele>34.0</ele><time>2026-04-04T16:15:07Z</time></trkpt><trkpt lat="45.294803115279194" lon="10.888729357885932"><ele>34.0</ele><time>2026-04-04T16:15:08Z</time></trkpt><trkpt lat="45.29458011615809" lon="10.888711957544254"><ele>34.0</ele><time>2026-04-04T16:15:09Z</time></trkpt><trkpt lat="45.29436953451574" lon="10.88862520777582"><ele>34.0</ele><time>2026-04-04T16:15:10Z</time></trkpt><trkpt lat="45.29414714986898" lon="10.888574277041018"><ele>34.0</ele><time>2026-04-04T16:15:11Z</time></trkpt><trkpt lat="45.29393457681065" lon="10.888561842158795"><ele>34.0</ele><time>2026-04-04T16:15:12Z</time></trkpt><trkpt lat="45.29370746583092" lon="10.888540845375605"><ele>34.0</ele><time>2026-04-04T16:15:13Z</time></trkpt><trkpt lat="45.293490455824625" lon="10.888499030414597"><ele>34.0</ele><time>2026-04-04T16:15:14Z</time></trkpt><trkpt lat="45.29327699360804" lon="10.888458631963653"><ele>34.0</ele><time>2026-04-04T16:15:15Z</time></trkpt><trkpt lat="45.293077702617715" lon="10.888400212617428"><ele>34.0</ele><time>2026-04-04T16:15:16Z</time></trkpt><trkpt lat="45.29289560462858" lon="10.888336905573055"><ele>34.5</ele><time>2026-04-04T16:15:17Z</time></trkpt><trkpt lat="45.292729066136374" lon="10.888276220326409"><ele>35.0</ele><time>2026-04-04T16:15:18Z</time></trkpt><trkpt lat="45.29258112788629" lon="10.888244587204888"><ele>35.5</ele><time>2026-04-04T16:15:19Z</time></trkpt><trkpt lat="45.29246688060792" lon="10.888190634383305"><ele>36.0</ele><time>2026-04-04T16:15:20Z</time></trkpt><trkpt lat="45.292366023951274" lon="10.88816126640974"><ele>36.0</ele><time>2026-04-04T16:15:21Z</time></trkpt><trkpt lat="45.292266874207876" lon="10.888131520358717"><ele>36.0</ele><time>2026-04-04T16:15:22Z</time></trkpt><trkpt lat="45.292152452984254" lon="10.888113038742631"><ele>36.0</ele><time>2026-04-04T16:15:23Z</time></trkpt><trkpt lat="45.29203047901711" lon="10.88799376267487"><ele>36.0</ele><time>2026-04-04T16:15:24Z</time></trkpt><trkpt lat="45.29189365953408" lon="10.887898426115058"><ele>36.0</ele><time>2026-04-04T16:15:25Z</time></trkpt><trkpt lat="45.291739408054546" lon="10.887818822481055"><ele>36.0</ele><time>2026-04-04T16:15:26Z</time></trkpt><trkpt lat="45.29157549367333" lon="10.887723033770927"><ele>36.0</ele><time>2026-04-04T16:15:27Z</time></trkpt><trkpt lat="45.29141056202832" lon="10.887604904436273"><ele>36.0</ele><time>2026-04-04T16:15:28Z</time></trkpt><trkpt lat="45.29125772749474" lon="10.887508691451835"><ele>36.0</ele><time>2026-04-04T16:15:29Z</time></trkpt><trkpt lat="45.29112073435889" lon="10.887432148725813"><ele>36.0</ele><time>2026-04-04T16:15:30Z</time></trkpt><trkpt lat="45.29099463600803" lon="10.887358860295977"><ele>36.0</ele><time>2026-04-04T16:15:31Z</time></trkpt><trkpt lat="45.290890458716326" lon="10.887297762111855"><ele>36.0</ele><time>2026-04-04T16:15:32Z</time></trkpt><trkpt lat="45.29080439420471" lon="10.887251188956423"><ele>36.0</ele><time>2026-04-04T16:15:33Z</time></trkpt><trkpt lat="45.29073334596226" lon="10.887205972542537"><ele>36.0</ele><time>2026-04-04T16:15:34Z</time></trkpt><trkpt lat="45.29068901028367" lon="10.887141197446079"><ele>36.0</ele><time>2026-04-04T16:15:35Z</time></trkpt><trkpt lat="45.29067300110399" lon="10.88705261108309"><ele>36.0</ele><time>2026-04-04T16:15:36Z</time></trkpt><trkpt lat="45.29068136882702" lon="10.886954254941116"><ele>36.0</ele><time>2026-04-04T16:15:37Z</time></trkpt><trkpt lat="45.29070894590373" lon="10.88684054456"><ele>36.0</ele><time>2026-04-04T16:15:38Z</time></trkpt><trkpt lat="45.290747317223406" lon="10.886709267995418"><ele>36.0</ele><time>2026-04-04T16:15:39Z</time></trkpt><trkpt lat="45.29078990449546" lon="10.886557690120133"><ele>36.0</ele><time>2026-04-04T16:15:40Z</time></trkpt><trkpt lat="45.29084185422828" lon="10.886394960516121"><ele>36.0</ele><time>2026-04-04T16:15:41Z</time></trkpt><trkpt lat="45.290896545820594" lon="10.88622240718215"><ele>36.25</ele><time>2026-04-04T16:15:42Z</time></trkpt><trkpt lat="45.29095171750899" lon="10.88603893381067"><ele>36.5</ele><time>2026-04-04T16:15:43Z</time></trkpt><trkpt lat="45.29100655274199" lon="10.885852282635305"><ele>36.75</ele><time>2026-04-04T16:15:44Z</time></trkpt><trkpt lat="45.29106606413375" lon="10.885655534637307"><ele>37.0</ele><time>2026-04-04T16:15:45Z</time></trkpt><trkpt lat="45.29112906281932" lon="10.885454125207815"><ele>37.0</ele><time>2026-04-04T16:15:46Z</time></trkpt><trkpt lat="45.29119178086286" lon="10.885244179306596"><ele>37.0</ele><time>2026-04-04T16:15:47Z</time></trkpt><trkpt lat="45.29125556651095" lon="10.88503393030634"><ele>37.0</ele><time>2026-04-04T16:15:48Z</time></trkpt><trkpt lat="45.29131951688863" lon="10.884824066241208"><ele>37.0</ele><time>2026-04-04T16:15:49Z</time></trkpt><trkpt lat="45.29138233943444" lon="10.884617478452096"><ele>37.0</ele><time>2026-04-04T16:15:50Z</time></trkpt><trkpt lat="45.29144210004178" lon="10.884417402431671"><ele>37.0</ele><time>2026-04-04T16:15:51Z</time></trkpt><trkpt lat="45.2915020113518" lon="10.884220526553788"><ele>36.800000000000004</ele><time>2026-04-04T16:15:52Z</time></trkpt><trkpt lat="45.29155742500621" lon="10.884037285292642"><ele>36.6</ele><time>2026-04-04T16:15:53Z</time></trkpt><trkpt lat="45.29159941229724" lon="10.883884152420052"><ele>36.400000000000006</ele><time>2026-04-04T16:15:54Z</time></trkpt><trkpt lat="45.291641281196426" lon="10.883756751654762"><ele>36.2</ele><time>2026-04-04T16:15:55Z</time></trkpt><trkpt lat="45.29167191921482" lon="10.883650998069431"><ele>36.0</ele><time>2026-04-04T16:15:56Z</time></trkpt><trkpt lat="45.29172060515394" lon="10.883540862075826"><ele>36.0</ele><time>2026-04-04T16:15:58Z</time></trkpt><trkpt lat="45.291578173763746" lon="10.883401624185186"><ele>36.0</ele><time>2026-04-04T16:16:00Z</time></trkpt><trkpt lat="45.291504361846215" lon="10.883346668664954"><ele>36.0</ele><time>2026-04-04T16:16:01Z</time></trkpt><trkpt lat="45.29141774309741" lon="10.883283791675646"><ele>36.0</ele><time>2026-04-04T16:16:02Z</time></trkpt><trkpt lat="45.29131753882862" lon="10.883216023663918"><ele>36.25</ele><time>2026-04-04T16:16:03Z</time></trkpt><trkpt lat="45.291205067194575" lon="10.883142625805144"><ele>36.5</ele><time>2026-04-04T16:16:04Z</time></trkpt><trkpt lat="45.291097902077304" lon="10.883060439347085"><ele>36.75</ele><time>2026-04-04T16:16:05Z</time></trkpt><trkpt lat="45.29100349403454" lon="10.882964264623752"><ele>37.0</ele><time>2026-04-04T16:16:06Z</time></trkpt><trkpt lat="45.29090137101689" lon="10.882913047608888"><ele>37.0</ele><time>2026-04-04T16:16:07Z</time></trkpt><trkpt lat="45.2908167412848" lon="10.882859694751538"><ele>37.0</ele><time>2026-04-04T16:16:08Z</time></trkpt><trkpt lat="45.290755362982864" lon="10.882822785207184"><ele>37.0</ele><time>2026-04-04T16:16:09Z</time></trkpt><trkpt lat="45.290723338426254" lon="10.882712087642638"><ele>37.0</ele><time>2026-04-04T16:16:11Z</time></trkpt><trkpt lat="45.290799752967835" lon="10.882586607216023"><ele>37.0</ele><time>2026-04-04T16:16:13Z</time></trkpt><trkpt lat="45.290833729602575" lon="10.88249250655372"><ele>37.0</ele><time>2026-04-04T16:16:14Z</time></trkpt><trkpt lat="45.29087347426323" lon="10.882382353858675"><ele>36.0</ele><time>2026-04-04T16:16:15Z</time></trkpt><trkpt lat="45.290906180253565" lon="10.882291708752295"><ele>36.0</ele><time>2026-04-04T16:16:16Z</time></trkpt><trkpt lat="45.29093729876011" lon="10.882205463515218"><ele>36.0</ele><time>2026-04-04T16:16:18Z</time></trkpt></trkseg></trk></gpx>